[[{"header":{"parameterUnit":"m.s-1","parameterCategory":1,"la1":30.6,"la2":29.2853,"lo1":-89.7004,"lo2":-87.6739,"dy":0.0162,"dx":0.0183,"nx":112,"ny":82,"refTime":"2023-08-04T12:00:00:Z","depth":0,"parameterNumber":2,"parameterNumberName":"U-component_of_WINDS"},"data":[0.0,0.0,0.0,0.0,0.0,0.0,0.0,0.0,0.0,0.0,0.0,0.0,0.0,0.0,0.0,0.0,0.0,0.0,0.0,0.0,0.0,0.0,0.0,0.0,0.0,0.0,0.0,0.0,0.0,0.0,0.0,0.0,0.0,0.0,0.0,0.0,0.0,0.0,0.0,0.0,0.0,0.0,0.0,0.0,0.0,0.0,0.0,0.0,0.0,0.0,0.0,0.0,0.0,0.0,0.0,0.0,0.0,0.0,0.0,0.0,0.0,0.0,0.0,0.0,0.0,0.0,0.0,0.0,0.0,0.0,0.0,0.0,0.0,0.0,0.0,0.0,0.0,0.0,0.0,0.0,0.0,0.0,0.0,0.0,0.0,0.0,0.0,0.0,0.0,0.0,-2.5616,-2.7589,-2.9293,-3.0642,-3.1441,-3.113,-2.9384,-2.5848,0.0,0.0,0.0,0.0,0.0,0.0,0.0,0.0,0.0,0.0,0.0,0.0,0.0,0.0,0.0,0.0,0.0,0.0,0.0,0.0,0.0,0.0,0.0,0.0,0.0,0.0,0.0,0.0,0.0,0.0,0.0,0.0,0.0,0.0,0.0,0.0,0.0,0.0,0.0,0.0,0.0,0.0,0.0,0.0,0.0,0.0,0.0,0.0,0.0,0.0,0.0,0.0,0.0,0.0,0.0,0.0,0.0,0.0,0.0,0.0,0.0,0.0,0.0,0.0,0.0,0.0,0.0,0.0,0.0,0.0,0.0,0.0,0.0,0.0,0.0,0.0,0.0,0.0,0.0,0.0,0.0,0.0,0.0,0.0,0.0,0.0,0.0,0.0,0.0,0.0,0.0,0.0,0.0,0.0,0.0,0.0,0.0,0.0,0.0,0.0,0.0,0.0,0.0,0.0,-2.725,-3.1763,-3.1854,-3.1863,-3.2441,-3.1217,-2.9325,-2.6827,0.0,0.0,0.0,0.0,0.0,0.0,0.0,0.0,0.0,0.0,0.0,0.0,0.0,0.0,0.0,0.0,0.0,0.0,0.0,0.0,0.0,0.0,0.0,0.0,0.0,0.0,0.0,0.0,0.0,0.0,0.0,0.0,0.0,0.0,0.0,0.0,0.0,0.0,0.0,0.0,0.0,0.0,0.0,0.0,0.0,0.0,0.0,0.0,0.0,0.0,0.0,0.0,0.0,0.0,0.0,0.0,0.0,0.0,0.0,0.0,0.0,0.0,0.0,0.0,0.0,0.0,0.0,0.0,0.0,0.0,0.0,0.0,0.0,0.0,0.0,0.0,0.0,0.0,0.0,0.0,0.0,0.0,0.0,0.0,0.0,0.0,0.0,0.0,0.0,0.0,0.0,0.0,0.0,0.0,0.0,0.0,0.0,0.0,0.0,0.0,0.0,0.0,0.0,-2.538,-2.7587,-3.1781,-3.1883,-3.2023,-3.3004,-3.1687,-2.9723,-2.7071,-2.4932,0.0,0.0,0.0,0.0,0.0,0.0,0.0,0.0,0.0,0.0,0.0,0.0,0.0,0.0,0.0,0.0,0.0,0.0,0.0,0.0,0.0,0.0,0.0,0.0,0.0,0.0,0.0,0.0,0.0,0.0,0.0,0.0,0.0,0.0,0.0,0.0,0.0,0.0,0.0,0.0,0.0,0.0,0.0,0.0,0.0,0.0,0.0,0.0,0.0,0.0,0.0,0.0,0.0,0.0,0.0,0.0,0.0,0.0,0.0,0.0,0.0,0.0,0.0,0.0,0.0,0.0,0.0,0.0,0.0,0.0,0.0,0.0,0.0,0.0,0.0,0.0,0.0,0.0,0.0,0.0,0.0,0.0,0.0,0.0,0.0,0.0,0.0,0.0,0.0,0.0,0.0,0.0,0.0,0.0,0.0,0.0,0.0,0.0,0.0,0.0,0.0,0.0,-2.7114,-2.8425,-3.1775,-3.1921,-3.2197,-3.3223,-3.1518,-2.9272,-2.6672,-2.361,0.0,0.0,0.0,0.0,0.0,0.0,0.0,0.0,0.0,0.0,0.0,0.0,0.0,0.0,0.0,0.0,0.0,0.0,0.0,0.0,0.0,0.0,0.0,0.0,0.0,0.0,0.0,0.0,0.0,0.0,0.0,0.0,0.0,0.0,0.0,0.0,0.0,0.0,0.0,0.0,0.0,0.0,0.0,0.0,0.0,0.0,0.0,0.0,0.0,0.0,0.0,0.0,0.0,0.0,0.0,0.0,0.0,0.0,0.0,0.0,0.0,0.0,0.0,0.0,0.0,0.0,0.0,0.0,0.0,0.0,0.0,0.0,0.0,0.0,0.0,0.0,0.0,0.0,0.0,0.0,0.0,0.0,0.0,0.0,0.0,0.0,0.0,0.0,0.0,0.0,0.0,0.0,0.0,0.0,0.0,0.0,0.0,0.0,0.0,0.0,0.0,0.0,-2.8332,-3.1046,-3.398,-3.3445,-3.2959,-3.3113,-2.9774,-2.7004,-2.5419,-2.0208,0.0,0.0,0.0,0.0,0.0,0.0,0.0,0.0,0.0,0.0,0.0,0.0,0.0,0.0,0.0,0.0,0.0,0.0,0.0,0.0,0.0,0.0,0.0,0.0,0.0,0.0,0.0,0.0,0.0,0.0,0.0,0.0,0.0,0.0,0.0,0.0,0.0,0.0,0.0,0.0,0.0,0.0,0.0,0.0,0.0,0.0,0.0,0.0,0.0,0.0,0.0,0.0,0.0,0.0,0.0,0.0,0.0,0.0,0.0,0.0,0.0,0.0,0.0,0.0,0.0,0.0,0.0,0.0,0.0,0.0,0.0,0.0,0.0,0.0,0.0,0.0,0.0,0.0,0.0,0.0,0.0,0.0,0.0,0.0,0.0,0.0,0.0,0.0,0.0,0.0,0.0,0.0,0.0,0.0,0.0,0.0,0.0,0.0,0.0,0.0,0.0,0.0,-2.6515,-2.9199,0.0,-3.2862,-3.2861,-3.2868,-3.0646,-2.7705,-2.4063,0.0,0.0,0.0,0.0,0.0,0.0,0.0,0.0,0.0,0.0,0.0,0.0,0.0,0.0,0.0,0.0,0.0,0.0,0.0,0.0,0.0,0.0,0.0,0.0,0.0,0.0,0.0,0.0,0.0,0.0,0.0,0.0,0.0,0.0,0.0,0.0,0.0,0.0,0.0,0.0,0.0,0.0,0.0,0.0,0.0,0.0,0.0,0.0,0.0,0.0,0.0,0.0,0.0,0.0,0.0,0.0,0.0,0.0,0.0,0.0,0.0,0.0,0.0,0.0,0.0,0.0,0.0,0.0,0.0,0.0,0.0,0.0,0.0,0.0,0.0,0.0,0.0,0.0,0.0,0.0,0.0,0.0,0.0,0.0,0.0,0.0,0.0,0.0,0.0,0.0,0.0,0.0,0.0,0.0,0.0,0.0,0.0,0.0,0.0,0.0,0.0,0.0,-2.3301,-2.5821,-2.8388,0.0,-3.2063,-3.2181,-3.1941,-2.9847,-2.6915,-2.3046,0.0,0.0,0.0,0.0,0.0,0.0,0.0,0.0,0.0,0.0,0.0,0.0,0.0,0.0,0.0,0.0,0.0,0.0,0.0,0.0,0.0,0.0,0.0,0.0,0.0,0.0,0.0,0.0,0.0,0.0,0.0,0.0,0.0,0.0,0.0,0.0,0.0,0.0,0.0,0.0,0.0,0.0,0.0,0.0,0.0,0.0,0.0,0.0,0.0,0.0,0.0,0.0,0.0,0.0,0.0,0.0,0.0,0.0,0.0,0.0,0.0,0.0,0.0,0.0,0.0,0.0,0.0,0.0,0.0,0.0,0.0,0.0,0.0,0.0,0.0,0.0,0.0,0.0,0.0,0.0,0.0,0.0,0.0,0.0,0.0,0.0,0.0,0.0,0.0,0.0,0.0,0.0,0.0,0.0,0.0,0.0,0.0,0.0,0.0,0.0,0.0,0.0,-2.3851,-2.6808,-2.9374,-3.1382,-3.1348,-3.0916,-3.0267,-2.6773,-2.3989,0.0,0.0,0.0,0.0,0.0,0.0,0.0,0.0,0.0,0.0,0.0,0.0,0.0,0.0,0.0,0.0,0.0,0.0,0.0,0.0,0.0,0.0,0.0,0.0,0.0,0.0,0.0,0.0,0.0,0.0,0.0,0.0,0.0,0.0,0.0,0.0,0.0,0.0,0.0,0.0,0.0,0.0,0.0,0.0,0.0,0.0,0.0,0.0,0.0,0.0,0.0,0.0,0.0,0.0,0.0,0.0,0.0,0.0,0.0,0.0,0.0,0.0,0.0,0.0,0.0,0.0,0.0,0.0,0.0,0.0,0.0,0.0,0.0,0.0,0.0,0.0,0.0,0.0,0.0,0.0,0.0,0.0,0.0,0.0,0.0,0.0,0.0,0.0,0.0,0.0,0.0,0.0,0.0,0.0,0.0,0.0,0.0,0.0,0.0,0.0,0.0,0.0,0.0,-2.3204,-2.6691,-2.9386,-3.0498,-3.0809,-3.0635,-2.9986,-2.786,-2.5184,-2.1886,0.0,0.0,0.0,0.0,0.0,0.0,0.0,0.0,0.0,0.0,0.0,0.0,0.0,0.0,0.0,0.0,0.0,0.0,0.0,0.0,0.0,0.0,0.0,0.0,0.0,0.0,0.0,0.0,0.0,0.0,0.0,0.0,0.0,0.0,0.0,0.0,0.0,0.0,0.0,0.0,0.0,0.0,0.0,0.0,0.0,0.0,0.0,0.0,0.0,0.0,0.0,0.0,0.0,0.0,0.0,0.0,0.0,0.0,0.0,0.0,0.0,0.0,0.0,0.0,0.0,0.0,0.0,0.0,0.0,0.0,0.0,0.0,0.0,0.0,0.0,0.0,0.0,0.0,0.0,0.0,0.0,0.0,0.0,0.0,0.0,0.0,0.0,0.0,0.0,0.0,0.0,0.0,0.0,0.0,0.0,0.0,0.0,0.0,0.0,0.0,0.0,0.0,-2.3153,-2.653,-2.9044,-2.9942,-2.9967,-2.975,-2.9297,-2.7805,-2.5499,-2.2202,0.0,0.0,0.0,0.0,0.0,0.0,0.0,0.0,0.0,0.0,0.0,0.0,0.0,0.0,0.0,0.0,0.0,0.0,0.0,0.0,0.0,0.0,0.0,0.0,0.0,0.0,0.0,0.0,0.0,0.0,0.0,0.0,0.0,0.0,0.0,0.0,0.0,0.0,0.0,0.0,0.0,0.0,0.0,0.0,0.0,0.0,0.0,0.0,0.0,0.0,0.0,0.0,0.0,0.0,0.0,0.0,0.0,0.0,0.0,0.0,0.0,0.0,0.0,0.0,0.0,0.0,0.0,0.0,0.0,0.0,0.0,0.0,0.0,0.0,0.0,0.0,0.0,0.0,0.0,0.0,0.0,0.0,0.0,0.0,0.0,0.0,0.0,0.0,0.0,0.0,0.0,0.0,0.0,0.0,0.0,0.0,0.0,0.0,0.0,0.0,0.0,0.0,-2.3544,-2.6414,-2.8636,-2.9684,-2.9102,-2.8609,-2.8504,-2.7125,-2.5377,-2.3317,0.0,0.0,0.0,0.0,0.0,0.0,0.0,0.0,0.0,0.0,0.0,0.0,0.0,0.0,0.0,0.0,0.0,0.0,0.0,0.0,0.0,0.0,0.0,0.0,0.0,0.0,0.0,0.0,0.0,0.0,0.0,0.0,0.0,0.0,0.0,0.0,0.0,0.0,0.0,0.0,0.0,0.0,0.0,0.0,0.0,0.0,0.0,0.0,0.0,0.0,0.0,0.0,0.0,0.0,0.0,0.0,0.0,0.0,0.0,0.0,-2.7822,0.0,0.0,0.0,0.0,0.0,0.0,0.0,0.0,0.0,0.0,0.0,0.0,0.0,0.0,0.0,0.0,0.0,0.0,0.0,0.0,0.0,0.0,0.0,0.0,0.0,0.0,0.0,0.0,0.0,0.0,0.0,0.0,0.0,0.0,0.0,0.0,0.0,0.0,0.0,0.0,0.0,-2.4092,-2.7252,-2.9368,-2.963,-2.9283,-2.9106,-2.9171,-2.7622,-2.6295,-2.5409,-2.2681,0.0,0.0,0.0,0.0,0.0,0.0,0.0,0.0,0.0,0.0,0.0,0.0,0.0,0.0,0.0,0.0,0.0,0.0,0.0,0.0,0.0,0.0,0.0,0.0,0.0,0.0,0.0,0.0,0.0,0.0,0.0,0.0,0.0,0.0,0.0,0.0,0.0,0.0,0.0,0.0,0.0,0.0,0.0,0.0,0.0,0.0,0.0,0.0,0.0,0.0,0.0,0.0,0.0,0.0,0.0,0.0,0.0,0.0,0.0,0.0,-2.993,0.0,0.0,0.0,0.0,0.0,0.0,0.0,0.0,0.0,0.0,0.0,0.0,0.0,0.0,0.0,0.0,0.0,0.0,0.0,0.0,0.0,0.0,0.0,0.0,0.0,0.0,0.0,0.0,0.0,0.0,0.0,0.0,0.0,0.0,0.0,0.0,0.0,0.0,0.0,0.0,-2.4724,-2.7667,-2.9734,-3.0315,-2.9893,-2.9581,-2.9596,-2.8475,-2.7348,-2.6352,-2.4274,0.0,0.0,0.0,0.0,0.0,0.0,0.0,0.0,0.0,0.0,0.0,0.0,0.0,0.0,0.0,0.0,0.0,0.0,0.0,0.0,0.0,0.0,0.0,0.0,0.0,0.0,0.0,0.0,0.0,0.0,0.0,0.0,0.0,0.0,0.0,0.0,0.0,0.0,0.0,0.0,0.0,0.0,0.0,0.0,0.0,0.0,0.0,0.0,0.0,0.0,0.0,0.0,0.0,-3.7781,-3.8794,-3.9528,-3.9289,-3.9078,-3.8771,-3.5684,-3.4243,-3.3849,-3.1836,0.0,0.0,0.0,0.0,0.0,0.0,0.0,0.0,0.0,0.0,0.0,0.0,0.0,0.0,0.0,0.0,0.0,0.0,0.0,0.0,0.0,0.0,0.0,0.0,-2.7603,-2.6872,-2.3637,0.0,0.0,0.0,0.0,0.0,0.0,0.0,0.0,0.0,0.0,0.0,-2.5542,-2.8052,-2.9981,-3.1087,-3.0574,-3.0137,-3.0003,-2.9358,-2.8478,-2.7385,-2.6048,-2.4388,0.0,0.0,0.0,0.0,0.0,0.0,0.0,0.0,0.0,0.0,0.0,0.0,0.0,0.0,0.0,0.0,0.0,0.0,0.0,0.0,0.0,0.0,0.0,0.0,0.0,0.0,0.0,0.0,0.0,0.0,0.0,0.0,-2.6535,-2.7635,0.0,0.0,0.0,0.0,0.0,0.0,0.0,0.0,0.0,0.0,0.0,0.0,0.0,-3.7637,-3.8414,-4.0573,-4.1654,-4.1732,-4.3175,-4.39,-4.4012,-4.3354,-4.2932,-4.2625,-4.1517,0.0,-3.515,-3.4841,0.0,0.0,0.0,0.0,0.0,0.0,0.0,0.0,0.0,0.0,0.0,0.0,0.0,0.0,0.0,0.0,0.0,0.0,0.0,0.0,0.0,0.0,-3.1575,-3.0581,-3.1184,-3.1532,0.0,-2.6543,-2.3615,-2.2552,-2.1319,0.0,0.0,0.0,0.0,0.0,0.0,0.0,-2.6748,-2.8981,-3.0503,-3.1133,-3.0985,-3.0873,-3.0846,-3.0009,-2.9717,-3.0202,-2.888,-2.7121,-2.498,-2.4245,0.0,0.0,0.0,0.0,0.0,0.0,0.0,0.0,0.0,0.0,0.0,0.0,0.0,0.0,0.0,0.0,0.0,0.0,0.0,0.0,0.0,0.0,0.0,0.0,0.0,0.0,0.0,0.0,0.0,-2.5856,-2.9126,-2.9494,-3.0056,-3.0588,0.0,0.0,0.0,0.0,0.0,0.0,0.0,0.0,0.0,-4.0014,-4.1102,-4.2319,-4.3765,-4.4783,-4.5251,-4.5231,-4.5609,-4.5637,-4.5331,-4.4812,-4.4063,-4.3155,-4.2835,-4.1265,-3.8856,-3.7585,-3.5579,-3.3183,0.0,0.0,0.0,0.0,-3.0558,-3.0991,-3.2619,-3.3044,-3.2786,-3.2321,0.0,0.0,0.0,0.0,0.0,0.0,0.0,0.0,0.0,0.0,-3.1868,-3.1863,-3.2048,-3.2096,-3.1636,-2.9796,-2.7668,0.0,-2.5088,-2.3916,-2.09,0.0,0.0,0.0,0.0,-2.4991,-2.7666,-2.9271,-3.0548,-3.1546,-3.1097,-3.0882,-3.1246,-3.0893,-3.0655,-3.0633,-3.0038,-2.9035,-2.7643,-2.6554,-2.4681,0.0,0.0,0.0,0.0,0.0,0.0,0.0,0.0,0.0,0.0,0.0,0.0,0.0,0.0,0.0,0.0,0.0,0.0,0.0,0.0,0.0,0.0,0.0,0.0,0.0,0.0,0.0,0.0,-2.8244,-3.1359,-3.1552,-3.2645,-3.3318,0.0,0.0,0.0,0.0,0.0,0.0,-3.8044,-3.9095,-4.1057,-4.4258,-4.5172,-4.6481,-4.8289,-4.826,-4.8303,-4.8464,-4.7912,-4.7319,-4.6671,-4.6247,-4.5223,-4.3772,-4.3571,-4.3001,-4.2031,-4.0057,-3.8061,-3.6145,-3.5086,-3.347,-3.1876,-3.2591,-3.279,-3.296,-3.4919,-3.5515,-3.5366,-3.5165,-3.4145,-3.2503,-3.0075,0.0,0.0,0.0,0.0,-3.1644,-3.1765,-3.2184,-3.2644,-3.3047,-3.2848,-3.256,-3.2501,-3.2143,-3.1044,0.0,-2.823,-2.7391,-2.3603,0.0,0.0,0.0,0.0,-2.6244,-2.8356,-2.9434,-3.0482,-3.1804,-3.1274,-3.1014,-3.1466,-3.1511,-3.1286,-3.0806,-3.0541,-3.001,-2.907,-2.7933,-2.6239,-2.3896,0.0,0.0,0.0,0.0,0.0,0.0,0.0,0.0,0.0,0.0,0.0,0.0,0.0,0.0,0.0,0.0,0.0,0.0,0.0,0.0,0.0,0.0,0.0,0.0,0.0,0.0,0.0,0.0,0.0,-3.4677,-3.7326,0.0,0.0,0.0,0.0,-3.6153,-3.8278,-4.0382,-4.2296,-4.4573,-4.6518,-4.7984,-4.9303,-5.0385,-5.1284,-5.1093,-5.1305,-5.1849,-5.1125,-5.0287,-4.9386,-4.8668,-4.7452,-4.5893,-4.5147,-4.4295,-4.3413,-4.2081,-4.0568,-3.9176,-3.9779,-3.784,-3.4767,-3.5512,-3.5704,-3.5498,-3.4938,-3.5898,-3.7373,-3.7335,-3.6296,-3.4887,-3.4036,-3.334,0.0,0.0,-3.4343,-3.5807,-3.5003,-3.5878,-3.6594,-3.4969,-3.4622,-3.4377,-3.3467,-3.3124,-3.2332,0.0,-2.975,-2.914,-2.6754,0.0,-2.5881,-2.5213,-2.5604,-2.6684,-2.8728,-2.9568,-3.0455,-3.1677,-3.1754,-3.1653,-3.1496,-3.1511,-3.1496,-3.1451,-3.0739,-2.9678,-2.8296,-2.7896,-2.6419,-2.3769,-2.2062,0.0,0.0,0.0,0.0,0.0,0.0,0.0,0.0,0.0,0.0,0.0,0.0,0.0,0.0,0.0,0.0,0.0,0.0,0.0,0.0,0.0,0.0,0.0,0.0,0.0,0.0,0.0,0.0,-3.7022,-3.9258,0.0,-3.9834,-3.9835,-4.033,-4.1336,-4.3561,-4.5361,-4.645,-4.8502,-5.0352,-5.1916,-5.2762,-5.3515,-5.4211,-5.3145,-5.269,-5.2775,-5.1313,-4.9958,-4.8692,-4.8844,-4.7549,-4.5194,-4.541,-4.4752,-4.3565,-4.3006,-4.196,-4.068,-4.0849,-3.9286,-3.69,-3.7044,-3.7065,-3.7046,-3.7179,-3.7655,-3.8197,-3.8114,-3.7075,-3.5946,-3.6108,-3.5704,-3.525,-3.5687,-3.5704,-3.5683,-3.6103,-3.5675,-3.4999,-3.4563,-3.4133,-3.3689,-3.3159,-3.3005,-3.2636,-3.1528,-3.1244,-3.0308,-2.7582,-2.7427,-2.7218,-2.5932,-2.6981,-2.8354,-2.9507,-3.014,-3.0842,-3.1722,-3.1293,-3.1117,-3.1466,-3.1511,-3.1316,-3.0868,-3.0157,-2.926,-2.8237,-2.7135,-2.5803,-2.4253,-2.2682,-2.0836,0.0,0.0,0.0,0.0,0.0,0.0,0.0,0.0,0.0,0.0,0.0,0.0,0.0,0.0,0.0,0.0,0.0,0.0,0.0,0.0,0.0,0.0,0.0,0.0,0.0,0.0,-3.8523,-3.9273,-4.1675,-4.3125,-4.2758,-4.3284,-4.4087,-4.5125,-4.7099,-4.8591,-4.9436,-5.0992,-5.2578,-5.4124,-5.4296,-5.4771,-5.5594,-5.4091,-5.3331,-5.3359,-5.1845,-5.0492,-4.9261,-4.9393,-4.81,-4.5704,-4.5735,-4.5158,-4.4186,-4.357,-4.2973,-4.2415,-4.2008,-4.0684,-3.8997,-3.8854,-3.8608,-3.8438,-3.9016,-3.9219,-3.9145,-3.8873,-3.8294,-3.776,-3.7987,-3.789,-3.7781,-3.8193,-3.7522,-3.6799,-3.737,-3.6433,-3.5289,-3.5062,-3.4494,-3.386,-3.3287,-3.2944,-3.2621,-3.2274,-3.2125,-3.1342,-2.9005,-2.897,-2.8742,-2.7182,-2.8228,-2.9286,-2.9512,-3.0036,-3.0629,-3.1277,-3.0833,-3.0748,-3.1378,-3.1258,-3.0929,-3.0397,-2.9508,-2.8601,-2.7751,-2.6261,-2.4897,-2.3816,-2.2094,-2.0739,-1.9807,0.0,0.0,0.0,0.0,0.0,0.0,0.0,0.0,0.0,0.0,0.0,0.0,0.0,0.0,0.0,0.0,0.0,0.0,0.0,0.0,0.0,0.0,0.0,-3.4688,-3.8166,-4.0823,-4.1455,-4.4714,-4.597,-4.36,-4.5188,-4.6617,-4.7244,-4.866,-5.0022,-5.1217,-5.2158,-5.321,-5.4499,-5.3907,-5.4142,-5.5366,-5.3936,-5.3393,-5.369,-5.2938,-5.2152,-5.1247,-5.0568,-4.9307,-4.7589,-4.6205,-4.5546,-4.5301,-4.3748,-4.3631,-4.4346,-4.3453,-4.2231,-4.1007,-4.1007,-4.0446,-3.9718,-4.0316,-4.0425,-4.0254,-3.9709,-3.9978,-4.0367,-3.9735,-3.9994,-4.0467,-4.0351,-3.9925,-3.936,-3.8854,-3.8446,-3.7857,-3.6666,-3.5872,-3.5093,-3.3954,-3.3048,-3.2404,-3.228,-3.2459,-3.2256,-3.1198,-3.0995,-3.0485,-2.9063,-2.9267,0.0,-2.8712,-2.919,-2.9819,-3.0432,-3.0507,-3.072,-3.1262,-3.0811,-3.0367,-3.0098,-2.8887,-2.7736,-2.6814,-2.5304,-2.3835,-2.2479,-2.0491,-1.9932,-2.0845,0.0,0.0,0.0,0.0,0.0,0.0,0.0,0.0,0.0,0.0,0.0,0.0,0.0,0.0,0.0,0.0,0.0,0.0,0.0,0.0,0.0,0.0,-3.6736,-3.7046,-4.0403,-4.3255,-4.446,-4.63,-4.7437,-4.7279,-4.7586,-4.828,-4.9426,-4.992,-5.0995,-5.2921,-5.3161,-5.389,-5.531,-5.5071,-5.4979,-5.5168,-5.4123,-5.3613,-5.369,-5.2848,-5.1993,-5.1069,-5.0874,-4.937,-4.6897,-4.6388,-4.5352,-4.3932,-4.3232,-4.3028,-4.3098,-4.2996,-4.2329,-4.1411,-4.1274,-4.0978,-4.0726,-4.0888,-4.0907,-4.0844,-4.0713,-4.0424,-4.0216,-4.0553,-4.0424,-4.0233,-4.0732,-4.0009,-3.9129,-3.9415,-3.8195,-3.679,-3.6369,-3.5556,-3.482,-3.4475,-3.4043,-3.3672,-3.3541,-3.3189,-3.2516,-3.1341,-3.098,-3.0555,-2.9656,-2.9567,0.0,-2.9367,-2.9406,-2.9682,-3.0294,-3.0269,-3.0479,-3.1102,-3.0569,-2.9977,-2.9392,-2.8101,-2.6956,-2.6108,-2.506,-2.4188,-2.3497,-2.3367,-2.2887,0.0,0.0,0.0,0.0,0.0,0.0,0.0,0.0,0.0,0.0,0.0,0.0,0.0,0.0,0.0,0.0,0.0,0.0,0.0,0.0,0.0,0.0,-3.7089,-3.9463,-4.0377,-4.2856,-4.5194,-4.6854,-4.7934,-4.865,-4.8934,-4.9052,-4.9552,-5.0665,-5.075,-5.167,-5.3839,-5.3568,-5.3989,-5.5261,-5.4369,-5.3909,-5.3978,-5.2876,-5.2439,-5.2684,-5.2179,-5.1825,-5.1569,-5.0872,-4.9564,-4.7784,-4.6732,-4.5734,-4.4786,-4.3944,-4.3686,0.0,0.0,0.0,0.0,0.0,-4.1725,-4.1837,-4.1598,-4.1533,-4.1485,-4.1197,-4.1053,-4.1035,-4.107,-4.099,-4.0974,-4.1326,-4.0671,-3.9888,-4.0071,-3.8711,-3.7247,-3.7098,-3.6079,-3.5083,-3.4935,-3.4497,-3.406,-3.391,-3.3517,0.0,-3.2109,-3.1587,-3.1066,-3.0347,-3.0388,-3.0318,-2.9748,-2.9749,-2.9924,-3.0268,-3.0171,-3.0322,-3.0925,-3.0439,0.0,0.0,0.0,-2.6672,-2.5218,-2.4373,0.0,0.0,0.0,-2.4565,-2.4957,0.0,0.0,0.0,-2.2736,-2.2417,0.0,0.0,0.0,0.0,0.0,0.0,0.0,0.0,0.0,0.0,0.0,0.0,0.0,0.0,0.0,0.0,-3.9755,-4.1878,-4.3846,-4.5027,-4.6429,-4.8396,-4.9153,-4.9462,-4.9348,-4.9805,-5.0439,-5.1268,-5.1236,-5.2099,-5.4188,0.0,0.0,0.0,0.0,-5.1877,-5.2161,-5.0989,-5.0706,-5.1315,-5.128,-5.1626,-5.2288,-5.0653,-4.9754,-4.9284,-4.7119,-4.6348,-4.6518,-4.5088,-4.4844,-4.5166,-4.3428,-4.2542,-4.2205,-4.2173,-4.241,-4.2693,-4.2204,0.0,0.0,-4.1358,-4.1693,-4.2205,-4.1405,-4.1582,-4.2061,-4.1898,-4.1517,-4.1071,-4.0689,-3.9661,-3.862,-3.834,-3.7109,-3.5874,-3.5447,-3.4836,-3.4258,-3.4015,-3.3712,-3.3411,-3.3107,-3.2485,-3.179,-3.1026,-3.1332,-3.1214,-3.0021,-3.0048,-3.0225,-3.0373,0.0,0.0,-3.0952,-3.0544,-2.9913,-2.9044,-2.832,-2.7014,-2.4915,-2.4171,-2.4292,-2.5302,-2.4738,-2.5703,-2.8298,-2.7615,-2.7723,-2.8416,-2.45,-2.4042,0.0,0.0,0.0,0.0,0.0,0.0,0.0,0.0,0.0,0.0,0.0,0.0,0.0,0.0,0.0,-3.9755,-4.1498,-4.3048,-4.457,-4.5028,-4.573,-4.7318,-4.8029,-4.8865,-5.0045,-5.0127,-5.0642,-5.1995,-5.1425,-5.1983,-5.4188,-5.2874,-5.2383,-5.3076,-5.2092,-5.1256,-5.0634,-5.0387,-5.0603,-5.1315,0.0,0.0,-5.1871,-5.0623,-4.9401,-4.8161,-4.7015,-4.5927,-4.4926,-4.4619,-4.4165,-4.3679,-4.3689,-4.3335,-4.2726,-4.2625,-4.2289,-4.1844,-4.1735,-4.1687,-4.1671,-4.1545,-4.1739,-4.1931,-4.161,-4.1706,0.0,-4.1703,-4.1559,-4.137,-4.0767,-4.021,-3.9498,-3.8325,-3.7995,-3.7647,-3.6491,-3.6332,-3.6263,-3.5653,-3.4436,-3.3485,-3.3411,-3.2856,-3.2225,-3.1694,-3.1127,-3.0668,-3.0413,-2.9748,-2.9715,-3.0763,-3.0646,-3.0963,-3.208,-3.1602,-3.1119,-3.082,-2.9911,-2.899,-2.8037,-2.8215,-2.8001,-2.7271,-2.7966,-2.8524,-2.8933,-2.9114,-2.9399,-2.9726,-2.8252,-2.751,0.0,0.0,0.0,0.0,0.0,0.0,0.0,0.0,0.0,0.0,0.0,-3.4685,0.0,0.0,-3.9671,-4.1851,-4.2774,-4.361,-4.465,-4.4803,-4.5256,-4.6402,-4.7457,-4.8476,-4.9458,-5.0173,-5.0954,-5.1967,-5.1648,-5.2,-5.3389,-5.2298,-5.176,-5.1986,-5.0888,-5.0073,-4.9657,-4.9293,-4.9607,-5.0595,-5.049,-5.0909,-5.1762,-5.0717,-4.9767,-4.8945,-4.8055,-4.6959,-4.5754,-4.5349,-4.5101,-4.5027,-4.5306,-4.444,-4.308,-4.3176,-4.3065,-4.2867,-4.2715,-4.2748,-4.2819,-4.2303,-4.2275,-4.2295,-4.1765,-4.167,-4.1736,-4.1621,-4.1588,-4.1509,-4.1178,-4.0585,-3.9916,-3.9214,-3.8769,-3.829,-3.7565,-3.751,-3.7484,-3.6937,-3.617,-3.5467,-3.5073,-3.4457,-3.3485,-3.2012,-3.1983,-3.1985,-3.1655,-3.1278,-3.1309,-3.1912,-3.1725,-3.1816,-3.2469,-3.1823,-3.1291,-3.1071,-3.0267,-2.9617,-2.9259,-2.9479,-2.9462,-2.9167,-2.9491,-2.9804,-2.9997,-2.9935,-3.0057,-3.0392,-2.9887,-2.924,0.0,0.0,0.0,0.0,0.0,0.0,0.0,0.0,-3.2372,-3.4555,-3.6156,-3.7763,-3.9617,-4.0556,-4.1725,-4.3722,-4.4062,-4.4228,-4.4733,-4.4953,-4.5168,-4.5524,-4.6763,-4.7898,-4.8683,-4.983,-5.0841,-5.1581,-5.1564,-5.173,-5.2157,-5.1572,-5.1121,-5.0884,-4.9723,-4.8994,-4.8828,-4.8332,-4.8661,-4.9826,-4.9869,-5.0517,-5.1651,-5.079,-5.0212,-4.9865,-4.8934,-4.8072,-4.722,-4.6355,-4.6313,-4.6803,-4.6803,-4.5449,-4.3609,-4.3968,-4.4196,-4.4277,-4.3857,-4.3783,-4.3797,-4.3079,-4.2746,-4.2547,-4.1936,-4.1666,-4.1555,-4.1588,-4.1555,-4.1489,-4.1522,-4.0898,-4.0211,-4.007,-3.9449,-3.8798,-3.842,-3.8399,-3.8312,-3.7854,-3.7617,-3.7214,-3.6435,-3.5863,-3.4773,-3.2645,-3.3081,-3.3457,-3.2856,-3.2911,-3.3075,-3.3294,-3.2934,-3.2727,-3.2811,-3.2187,-3.1718,-3.1541,-3.0977,-3.0556,-3.0333,-3.0333,-3.0445,-3.068,-3.034,-3.0466,-3.1074,-3.054,-3.0467,-3.0863,-3.0659,-3.0178,-3.1823,-3.0779,-3.0559,-3.2252,-3.1819,-3.2195,0.0,0.0,-3.753,-3.9193,-4.073,-4.1878,-4.2245,-4.2979,-4.3968,-4.5405,-4.566,-4.5637,-4.5596,-4.6143,-4.6046,-4.4636,-4.5192,-4.6553,-4.8768,-4.8856,-4.9417,-5.0958,-5.0744,-5.0559,-5.0642,-5.0455,-5.0038,-4.9375,-4.9193,-4.8713,-4.7869,-4.8244,-4.8848,-4.9634,-4.9767,-5.0311,-5.1258,-5.0592,-4.9939,-4.9241,-4.8368,-4.7981,-4.7935,-4.7051,-4.6724,-4.6803,-4.6803,-4.5963,-4.4856,-4.5389,-4.5302,-4.4792,-4.3997,-4.3311,-4.2918,-4.3217,-4.2624,-4.181,-4.2192,-4.1859,-4.1357,-4.1555,-4.1388,-4.1169,-4.129,-4.1042,-4.0569,-3.9964,-4.0059,-3.9951,-3.8736,-3.8702,-3.8724,-3.808,-3.727,-3.642,-3.5729,-3.5549,-3.519,-3.4324,-3.38,-3.3424,-3.3181,-3.3069,-3.3351,-3.4317,-3.382,-3.3521,-3.3902,-3.3747,-3.3742,-3.4073,-3.3868,-3.348,-3.2897,-3.2869,-3.2426,-3.1401,-3.1013,-3.1102,-3.1695,-3.1178,-3.111,-3.1502,-3.1291,-3.0955,-3.3639,-3.3168,0.0,0.0,-3.4153,-3.5082,-3.819,-3.8538,-3.895,-4.148,-4.2486,-4.3098,-4.3702,-4.4085,-4.4618,0.0,-4.5772,-4.5783,-4.587,-4.5929,-4.5621,-4.4587,-4.4123,-4.4767,-4.7038,-4.7534,-4.814,-4.9191,-4.9094,-4.8995,-4.8995,-4.8845,-4.8414,-4.7737,-4.8018,-4.7769,-4.6963,-4.7586,-4.8417,-4.9423,-4.9374,-4.9934,-5.101,-5.065,-5.022,-4.9785,-4.8894,-4.85,-4.8514,-4.7757,-4.7672,-4.8004,-4.8004,-4.806,-4.7956,-4.6908,-4.5969,-4.517,-4.5103,-4.4925,-4.4557,-4.3949,-4.3345,-4.2742,-4.2254,-4.1742,-4.1323,-4.1423,-4.1288,-4.1195,-4.1656,-4.1579,-4.131,-4.1031,-4.1063,-4.0858,-3.9772,-3.9669,-3.9619,-3.9102,-3.8656,-3.8112,-3.7334,-3.6813,-3.6268,-3.5598,-3.4909,-3.4428,-3.4221,-3.4383,-3.479,-3.5505,-3.5201,-3.4825,-3.4536,-3.4668,-3.4639,-3.4347,-3.4612,-3.466,-3.4444,-3.392,-3.3401,-3.2898,-3.2172,-3.1871,-3.2039,-3.1873,-3.1849,-3.1914,-3.2053,-3.1902,-3.4371,0.0,0.0,-3.5103,-3.6133,-3.7605,-3.9303,-3.9722,-4.0431,-4.2847,-4.3574,-4.3816,-4.4063,-4.4125,-4.439,-4.5149,-4.5436,-4.5744,-4.6258,-4.5946,-4.5358,-4.4518,-4.3478,-4.3315,-4.462,-4.5635,-4.6485,-4.7104,-4.7438,-4.7621,-4.7621,-4.7457,-4.7111,-4.6618,-4.693,-4.6846,-4.6307,-4.7317,-4.8255,-4.9154,-4.9289,-4.9845,-5.0743,-5.0512,-5.034,-5.0152,-4.9472,-4.9173,-4.9141,-4.8652,-4.8746,-4.9173,-4.9173,-4.9496,-4.9714,-4.7945,-4.6784,-4.6083,-4.6048,-4.5897,-4.556,-4.4716,-4.4038,-4.3447,-4.2505,-4.1846,-4.1406,-4.1286,-4.1086,-4.1087,-4.1844,-4.1891,-4.1778,-4.1963,-4.178,-4.1341,-4.0729,-4.0329,-4.0051,-3.9753,-3.9661,-3.9328,-3.8476,-3.7843,-3.7169,-3.6428,-3.5891,-3.5488,-3.5148,-3.5668,-3.6122,-3.6272,-3.6281,-3.5942,-3.5118,-3.525,-3.5224,-3.4759,-3.5189,-3.5442,-3.5442,-3.4771,-3.4339,-3.4158,-3.3326,-3.2827,-3.2671,-3.2664,-3.2546,-3.2342,-3.2542,-3.2433,0.0,0.0,-3.5926,-3.6564,-3.7742,-3.9286,-4.1499,-4.245,-4.3048,-4.366,-4.4515,-4.4658,-4.3139,-4.2969,-4.3288,-4.4042,-4.4746,-4.5677,-4.6972,-4.6663,-4.5708,-4.4215,-4.3306,-4.2458,0.0,-4.2866,-4.4085,-4.5013,-4.605,-4.6634,-4.6634,-4.6504,-4.6438,-4.6422,-4.6224,-4.6108,-4.6092,-4.779,-4.8675,-4.8723,-4.9761,-5.0292,-5.0301,-5.005,-4.9931,-4.9916,-4.99,-4.986,-4.9884,-4.9829,-4.9829,-4.986,-4.986,-4.9489,-4.8864,-4.8083,-4.7933,-4.7877,-4.6339,-4.5349,-4.4824,-4.5305,-4.4526,-4.3361,-4.3122,-4.2478,-4.1686,-4.1221,-4.0814,-4.0713,-4.1566,-4.1712,-4.1771,-4.2417,-4.1919,-4.1306,-4.1291,-4.0436,-3.9717,-3.9681,-3.9553,-3.9128,-3.8243,-3.8074,-3.773,-3.6743,-3.657,-3.6307,-3.5648,-3.6553,-3.6997,-3.6373,-3.67,-3.6618,-3.5739,-3.5506,-3.5591,-3.6019,-3.6061,-3.6075,-3.6075,-3.5861,-3.5429,-3.4803,-3.4348,-3.4044,-3.3853,-3.3468,-3.3157,-3.2961,-3.2579,-3.2313,0.0,0.0,-3.6852,-3.8451,-3.9505,-4.045,-4.1581,-4.2277,-4.2907,-4.3685,-4.3727,-4.348,-4.3008,-4.259,-4.2518,-4.3243,-4.398,-4.4813,-4.5857,-4.5269,-4.3794,-4.1293,-4.152,0.0,0.0,0.0,0.0,-4.3142,-4.3885,-4.4651,-4.5473,-4.5847,-4.6168,-4.6536,-4.6797,-4.6969,-4.6969,-4.7999,-4.8759,-4.924,-4.9971,-5.0223,-5.005,-4.9931,-4.9876,-4.9876,-4.9876,-4.9836,-4.9677,-4.9677,-4.9637,-4.947,-4.8991,-4.896,-4.9031,-4.7832,-4.7761,-4.8035,-4.6202,-4.5735,-4.584,-4.5547,-4.5133,-4.4678,-4.3977,-4.3485,-4.2978,-4.2242,-4.1965,-4.2048,-4.2782,-4.2607,-4.2432,-4.3094,-4.2615,-4.1821,-4.1233,-4.0344,-3.9646,-3.9517,-3.9337,-3.8984,-3.8243,-3.7925,-3.7453,-3.656,-3.6765,-3.6968,-3.675,-3.7412,-3.781,-3.7593,-3.7469,-3.7129,-3.641,-3.6439,-3.6366,-3.6117,-3.6497,-3.6722,-3.6722,-3.6098,-3.5638,-3.5263,-3.4609,-3.4099,-3.3754,-3.3989,-3.3979,-3.3794,-3.391,-3.3849,-3.6928,-3.7462,-3.7894,-3.9429,-4.0474,-4.1276,-4.1899,-4.2074,-4.2253,-4.2825,-4.2401,-4.1777,-4.1228,-4.0611,-4.0498,-4.1444,-4.2038,-4.2829,-4.4073,-4.3773,-4.2539,-4.0216,-4.0986,-4.16,0.0,0.0,0.0,-4.265,-4.3557,-4.443,-4.526,-4.5722,-4.6129,-4.6474,-4.7001,-4.7349,-4.7405,-4.8238,-4.9084,-4.9786,-5.0039,-5.005,-4.9876,-4.9584,-4.9576,-4.9781,-4.9213,-4.9016,-4.9117,-4.8866,-4.8677,-4.8551,-4.8105,-4.8199,-4.8448,-4.7465,-4.7395,-4.7606,-4.6244,-4.6172,-4.6595,-4.5634,-4.5665,-4.5822,-4.4164,-4.3909,-4.3948,-4.2854,-4.2514,-4.2729,-4.3694,-4.3411,-4.3015,-4.3697,-4.3195,-4.2376,-4.1728,-4.085,-4.0074,-3.9725,-3.9498,-3.9106,-3.8383,-3.8011,-3.7609,-3.7041,-3.736,-3.7549,-3.7331,-3.7839,-3.8289,-3.8536,-3.8261,-3.7873,-3.742,-3.7416,-3.718,-3.6483,-3.6704,-3.6875,-3.6875,-3.6264,-3.5861,-3.5705,-3.5047,-3.4545,-3.4191,-3.454,-3.4553,-3.4283,-3.4543,-3.4535,-3.6703,-3.7756,-3.9009,-3.9644,-4.0775,-4.1861,-4.2437,-4.1908,-4.1253,-4.1066,-4.0568,-3.9621,0.0,0.0,-3.7448,-3.8714,-3.9135,-3.9956,-4.1876,-4.2373,-4.208,0.0,0.0,0.0,0.0,0.0,0.0,-4.3544,0.0,-4.5788,-4.5803,-4.6185,-4.639,-4.6422,-4.6927,-4.7293,-4.7529,-4.8668,-4.9578,-5.0214,-4.9995,-4.986,-4.9813,-4.8993,-4.8938,-4.9472,-4.7958,-4.7653,-4.8199,-4.7544,-4.7278,-4.7278,-4.7232,-4.7247,-4.7224,-4.6928,-4.6865,-4.6857,-4.6368,-4.6663,-4.7021,-4.5743,-4.618,-4.6671,-4.395,-4.4006,-4.4682,-4.3193,-4.2625,-4.2796,-4.4257,-4.3997,-4.3456,-4.4152,-4.3625,-4.291,-4.2734,-4.1863,-4.0901,-4.0263,-3.9927,-3.9532,-3.8676,-3.8344,-3.8202,-3.8202,-3.8202,-3.7999,-3.7433,-3.7854,-3.8463,-3.9131,-3.8967,-3.8759,-3.8631,-3.8382,-3.7876,-3.706,-3.6811,-3.6721,-3.6721,-3.6325,-3.6126,-3.6086,-3.5656,-3.5318,-3.5127,-3.5127,-3.4867,-3.4439,-3.4465,-3.4366,-3.874,-3.9253,-3.9754,-4.0915,-4.1444,-4.1583,-4.1106,-4.0321,-3.9517,-3.8935,-3.784,-3.666,0.0,0.0,0.0,-3.6612,-3.8143,0.0,-4.137,-4.2104,0.0,-4.208,0.0,-4.3869,-4.3869,-4.5049,0.0,0.0,-4.5722,-4.569,-4.5939,-4.7012,-4.7808,-4.8219,-4.8387,-4.8697,-4.9242,-4.9567,-4.9567,-4.9274,-4.9679,-4.9647,-4.9141,-4.8773,-4.8694,-4.8797,-4.7754,-4.7279,-4.7246,-4.706,-4.6919,-4.6715,-4.6206,-4.6314,-4.67,-4.5955,-4.6441,-4.729,-4.6533,-4.6963,-4.7727,-4.7157,-4.6964,-4.6873,-4.6348,-4.6179,-4.6042,-4.5524,-4.5064,-4.4857,-4.5234,-4.435,-4.3456,-4.4152,-4.351,-4.2734,-4.2526,-4.1748,-4.0997,-4.0628,-4.0032,-3.9475,-3.9086,-3.8574,-3.8202,-3.8202,-3.8202,-3.8144,-3.7984,-3.8101,-3.8463,-3.9131,-3.8462,-3.813,-3.8549,-3.7813,-3.7239,-3.6993,-3.6811,-3.6721,-3.6721,-3.6484,-3.6246,-3.6086,-3.5777,-3.5521,-3.5318,-3.5318,-3.5195,-3.4921,-3.5317,-3.5389,-4.0579,-4.0457,-4.0331,-4.1316,-4.11,-4.0535,-4.0038,-3.8745,-3.7352,-3.6339,-3.4929,0.0,0.0,0.0,0.0,0.0,0.0,0.0,-4.0183,-4.1824,-4.3013,0.0,-4.4601,0.0,-4.5881,-4.689,-4.7461,0.0,-4.6929,-4.6722,-4.6902,-4.7892,-4.8593,-4.8873,-4.9189,-4.9536,-4.9876,-4.9876,-4.9529,-4.8772,-4.9166,-4.8914,-4.816,-4.7653,-4.759,-4.7786,0.0,-4.6168,-4.6166,-4.599,-4.5788,-4.5563,-4.5179,-4.5271,-4.5554,-4.5282,-4.5724,-4.6431,-4.6355,-4.6864,-4.7507,-4.7265,-4.7311,-4.7388,-4.676,-4.6465,-4.6303,-4.6052,-4.5469,-4.5025,-4.5472,-4.4626,-4.3709,-4.4074,-4.3622,-4.304,-4.2737,-4.2218,-4.1528,-4.0612,-3.9843,-3.9255,-3.885,-3.8449,-3.8202,-3.8202,-3.8202,-3.8202,-3.8202,-3.8202,-3.8463,-3.9131,-3.8601,-3.8298,-3.8564,-3.7965,-3.7405,-3.7046,-3.6811,-3.6682,-3.6563,-3.6365,-3.6152,-3.5938,-3.5602,-3.5399,-3.5277,-3.5195,-3.5031,-3.4784,-3.5211,-3.5273,-4.1937,-4.1316,-4.0801,-4.1288,-4.0332,-3.9249,-3.9023,-3.71,-3.493,-3.3538,0.0,-3.0718,-2.9734,0.0,-3.1533,-3.28,0.0,-3.707,-3.8941,-4.1531,-4.3591,-4.4499,-4.6009,-4.7227,-4.7955,-4.832,-4.844,-4.8253,-4.8294,-4.831,-4.8215,-4.8767,-4.907,-4.9015,-4.9615,-4.9892,-4.9876,-4.9781,-4.9284,-4.8435,-4.8435,-4.7973,-4.7107,-4.6253,-4.6183,-4.6663,-4.5164,-4.4757,-4.5107,-4.4703,-4.4435,-4.4243,-4.4243,-4.4243,-4.4319,-4.468,-4.4913,-4.5145,-4.5828,-4.6468,-4.6915,-4.6735,-4.7364,-4.7884,-4.6416,-4.6064,-4.6138,-4.594,-4.5139,-4.4508,-4.5348,-4.4786,-4.3988,-4.3988,-4.3793,-4.3518,-4.3076,-4.2769,-4.2133,-4.0546,-3.9741,-3.9117,-3.8449,-3.826,-3.8202,-3.8202,-3.8202,-3.8202,-3.8202,-3.8202,-3.8463,-3.9093,-3.8957,-3.8749,-3.8567,-3.8385,-3.7879,-3.706,-3.6811,-3.6603,-3.6405,-3.6206,-3.5978,-3.5723,-3.5318,-3.5127,-3.5113,-3.4921,-3.4714,-3.4481,-3.478,-3.482,-4.191,-4.1499,-4.1288,-4.1392,-4.0332,-3.8957,-3.7612,-3.5062,0.0,0.0,0.0,-2.8286,-2.7425,-2.8531,0.0,-3.1267,0.0,0.0,0.0,0.0,-4.3211,0.0,0.0,0.0,0.0,0.0,0.0,0.0,0.0,-4.9354,-4.8769,-4.9573,-4.9954,-4.9742,-4.9852,-4.9797,-4.9637,-4.9111,-4.8349,-4.7427,-4.7512,-4.7114,-4.6374,-4.5866,-4.5727,-4.575,-4.4633,0.0,-4.4232,-4.415,-4.4089,-4.4065,-4.4065,-4.4065,-4.4026,-4.3968,-4.4464,-4.5227,-4.5031,-4.5702,-4.673,-4.7053,-4.7318,-4.7507,-4.7747,-4.7584,-4.7323,-4.7296,-4.6733,-4.6039,-4.5476,-4.4669,-4.3949,-4.3808,-4.3557,-4.3265,-4.285,-4.2474,-4.1942,-4.1076,-4.0394,-3.9755,-3.9131,-3.8565,-3.8202,-3.8202,-3.8202,-3.8202,-3.8202,-3.8202,-3.8373,-3.8885,-3.871,-3.8514,-3.8345,-3.8133,-3.7692,-3.7021,-3.6811,-3.6603,-3.6405,-3.6206,-3.5978,-3.5723,-3.5318,-3.5195,-3.5358,-3.4962,-3.488,-3.5003,-3.5495,-3.5679,-4.2948,-4.2434,-4.1877,-4.1508,-3.9996,-3.8124,-3.6207,0.0,0.0,0.0,0.0,-2.7078,-2.6283,0.0,0.0,0.0,0.0,0.0,0.0,0.0,0.0,0.0,0.0,0.0,0.0,0.0,0.0,0.0,0.0,-4.9907,-4.9442,-4.9527,-4.967,-4.9876,-4.9466,-4.9331,-4.9597,-4.9188,-4.834,-4.706,-4.7091,-4.6416,-4.5217,-4.5026,-4.4872,-4.474,-4.4241,0.0,-4.3832,-4.3949,-4.3949,-4.3832,-4.3832,-4.391,-4.3988,-4.3754,-4.4068,-4.4615,-4.4537,-4.5057,-4.5871,-4.6544,-4.7002,-4.7456,-4.8212,-4.7895,-4.7334,-4.7522,-4.6785,-4.5846,-4.5406,-4.4889,-4.4425,-4.4108,-4.3652,-4.3156,-4.2655,-4.2325,-4.1903,-4.1221,-4.0844,-4.0423,-3.977,-3.9146,-3.8725,-3.8725,-3.842,-3.8202,-3.8202,-3.8379,-3.8467,-3.839,-3.8353,-3.8189,-3.7799,-3.7842,-3.7639,-3.7021,-3.6811,-3.6603,-3.6405,-3.6206,-3.5978,-3.5723,-3.5318,-3.5195,-3.5399,-3.4867,-3.4784,-3.5086,-3.5254,-3.5345,-4.3759,-4.3243,-4.2477,-4.1555,-3.9842,-3.7785,-3.5391,-3.2894,0.0,0.0,-2.7218,-2.6302,-2.5659,0.0,0.0,0.0,0.0,0.0,0.0,0.0,0.0,0.0,0.0,0.0,0.0,0.0,0.0,0.0,0.0,0.0,-4.9916,-4.9355,-4.9284,-4.9821,-4.9134,-4.8921,-4.9298,-4.8956,-4.8055,-4.6609,-4.643,-4.5603,-4.4281,-4.4205,-4.4104,-4.3949,-4.3871,0.0,0.0,-4.3778,-4.3793,-4.369,-4.3636,-4.3754,-4.391,-4.3675,-4.3793,-4.4026,-4.4127,-4.4517,-4.5026,-4.5816,-4.662,-4.7456,-4.828,-4.7961,-4.7394,-4.7569,-4.673,-4.5752,-4.5495,-4.5346,-4.5067,-4.4567,-4.3992,-4.3458,-4.2904,-4.2534,-4.2092,-4.1439,-4.1076,-4.067,-4.0017,-3.9392,-3.8986,-3.8986,-3.8536,-3.826,-3.8405,-3.865,-3.8611,-3.8112,-3.8264,-3.8142,-3.7466,-3.7704,-3.7599,-3.6996,-3.6786,-3.6603,-3.6365,-3.6166,-3.5978,-3.5723,-3.5358,-3.5277,-3.548,-3.4853,-3.4771,-3.5236,-3.5003,-3.4921,-4.3297,-4.3383,-4.2944,-4.1415,-4.0373,-3.8952,-3.6006,0.0,0.0,0.0,-2.6937,-2.5496,-2.5432,-2.6189,0.0,0.0,0.0,0.0,0.0,0.0,0.0,0.0,0.0,0.0,0.0,0.0,0.0,0.0,0.0,0.0,-4.9876,-4.9654,-4.9574,-4.9637,-4.9374,-4.8972,-4.8426,-4.7549,-4.664,-4.5703,-4.491,-4.4442,-4.4281,-4.391,-4.3769,-4.3729,-4.3463,0.0,0.0,-4.3384,-4.3518,-4.369,-4.3423,-4.3518,-4.369,-4.3423,-4.3621,-4.3988,-4.3793,-4.4134,-4.4711,-4.5231,-4.6253,-4.7415,-4.8129,-4.8407,-4.8306,-4.7773,-4.7511,-4.7159,-4.6199,-4.5925,-4.5763,-4.509,-4.4714,-4.4431,-4.4175,-4.3496,-4.2731,-4.2121,-4.1018,-4.0002,-3.9392,-3.8739,-3.8289,-3.8289,-3.8246,-3.842,-3.903,-3.8991,-3.8812,-3.8546,-3.8894,-3.8767,-3.7918,-3.7864,-3.7573,-3.6788,-3.6721,-3.6524,-3.6126,-3.6126,-3.5978,-3.5723,-3.548,-3.548,-3.5669,-3.5236,-3.5236,-3.5642,-3.544,-3.5358,-4.2548,-4.2983,-4.2958,-4.1852,-4.0353,-3.8455,-3.5867,0.0,0.0,-2.8298,-2.7283,-2.6489,-2.5577,-2.6444,-2.7603,0.0,0.0,0.0,0.0,0.0,0.0,0.0,0.0,0.0,0.0,0.0,0.0,0.0,0.0,0.0,-4.9347,-4.9021,-4.899,-4.9421,-4.8789,-4.8528,-4.8715,-4.7679,-4.6745,-4.599,-4.5135,-4.4445,-4.3949,-4.3754,-4.3596,-4.3463,-4.3344,0.0,0.0,-4.329,-4.3384,-4.3463,-4.3329,-4.3463,-4.369,-4.3596,-4.3754,-4.3988,-4.391,-4.4127,-4.4504,-4.51,-4.576,-4.6484,-4.7559,-4.8214,-4.8558,-4.8296,-4.7845,-4.7298,-4.6726,-4.6294,-4.5891,-4.5465,-4.528,-4.5005,-4.4267,-4.3933,-4.3685,-4.3325,-4.2484,-4.1758,-4.1526,-4.0292,-3.9334,-3.9334,-3.903,-3.8899,-3.9175,-3.9328,-3.9362,-3.915,-3.9166,-3.8696,-3.7467,-3.7681,-3.7599,-3.6917,-3.6786,-3.6563,-3.6286,-3.6166,-3.5978,-3.5723,-3.5521,-3.5521,-3.571,-3.5318,-3.5318,-3.5669,-3.5358,-3.5236,-4.1354,-4.198,-4.222,-4.1455,-4.0017,-3.8184,0.0,0.0,0.0,-2.8393,-2.7763,-2.7142,-2.5612,-2.6772,-2.8022,0.0,0.0,0.0,0.0,0.0,0.0,0.0,0.0,0.0,0.0,0.0,0.0,0.0,0.0,0.0,0.0,-4.8341,-4.8391,-4.8802,-4.8295,-4.7972,-4.792,-4.7262,-4.6478,-4.5608,-4.4953,-4.4285,-4.369,-4.3596,-4.3463,-4.329,-4.329,0.0,0.0,-4.325,-4.325,-4.329,-4.325,-4.3384,-4.3557,-4.3518,-4.3675,-4.391,-4.3817,-4.3972,-4.4281,-4.4754,-4.5161,-4.5616,-4.6607,-4.7579,-4.8358,-4.8558,-4.8228,-4.7718,-4.7395,-4.7011,-4.6559,-4.6105,-4.5869,-4.5489,-4.466,-4.4308,-4.4073,-4.3917,-4.3217,-4.2534,-4.2318,-4.1139,-4.0139,-3.9857,-3.9625,-3.9538,-3.9741,-3.9855,-3.9801,-3.9522,-3.9375,-3.8748,-3.7383,-3.7484,-3.7417,-3.6943,-3.6786,-3.6603,-3.6405,-3.6206,-3.5992,-3.5804,-3.5602,-3.5562,-3.571,-3.544,-3.544,-3.5669,-3.5358,-3.5127,-3.9581,-4.0361,-4.0606,-3.9729,-3.9373,-3.8644,0.0,0.0,0.0,-2.9559,-2.8279,-2.6917,-2.5381,-2.7011,-2.8335,-2.7555,0.0,0.0,0.0,0.0,0.0,0.0,0.0,0.0,0.0,0.0,0.0,0.0,0.0,0.0,0.0,-4.7836,-4.7897,-4.7635,-4.8059,-4.7323,-4.5375,-4.5778,-4.5363,-4.4003,-4.3808,-4.369,-4.369,-4.3423,-4.329,0.0,0.0,0.0,0.0,-4.3076,-4.3115,-4.329,-4.3076,-4.3115,-4.329,-4.3076,-4.329,-4.369,-4.3384,-4.3621,-4.3988,-4.3988,-4.4482,-4.5054,-4.5266,-4.6383,-4.7758,-4.8419,-4.8791,-4.883,-4.8174,-4.8106,-4.8043,-4.7124,-4.6441,-4.591,-4.5621,-4.4577,-4.372,-4.372,-4.2603,-4.1474,-4.0661,-4.0505,-4.0178,-3.9344,-3.9712,-4.0321,-4.0989,-4.0495,-3.9946,-3.9562,-3.9482,-3.9064,-3.7988,-3.7344,-3.6929,-3.6721,-3.6721,-3.6603,-3.6405,-3.6206,-3.6086,-3.6086,-3.5844,-3.571,-3.571,-3.571,-3.571,-3.571,-3.548,-3.5195,-3.7469,-3.7915,-3.8206,-3.7911,-3.6683,-3.5305,-3.4526,0.0,0.0,0.0,-2.8341,-2.8067,-2.5556,-2.7364,-2.9262,-2.9366,0.0,0.0,0.0,0.0,0.0,0.0,0.0,0.0,0.0,0.0,0.0,0.0,0.0,0.0,0.0,-4.7681,-4.7615,-4.7416,-4.7424,-4.6889,-4.5793,-4.5334,-4.4896,-4.4473,-4.3767,-4.3423,-4.3423,-4.3329,-4.329,0.0,0.0,0.0,0.0,-4.3036,-4.2955,-4.289,-4.2809,-4.285,-4.289,-4.2809,-4.297,-4.321,-4.3115,-4.3409,-4.3717,-4.3279,-4.3644,-4.4345,-4.4369,-4.5392,-4.6661,-4.7333,-4.7893,-4.8253,-4.7812,-4.766,-4.752,-4.7019,-4.687,-4.6779,-4.6372,-4.6091,-4.5705,-4.5106,-4.431,-4.3458,-4.2813,-4.1825,-4.1032,-4.0748,-4.0775,-4.0684,-4.0437,-4.013,-3.9801,-3.9522,-3.8976,-3.8396,-3.796,-3.8131,-3.8088,-3.7573,-3.7506,-3.736,-3.7013,-3.6546,-3.655,-3.7041,-3.6144,-3.5913,-3.632,-3.5913,-3.5642,-3.548,-3.5277,-3.5044,0.0,-3.6026,-3.6389,-3.6324,-3.4818,0.0,0.0,0.0,0.0,0.0,0.0,0.0,0.0,0.0,0.0,0.0,0.0,0.0,0.0,0.0,0.0,0.0,0.0,0.0,0.0,0.0,0.0,0.0,0.0,0.0,0.0,-4.6551,-4.6299,-4.5715,-4.627,-4.6022,-4.4719,-4.4353,-4.4173,-4.4158,-4.3579,-4.317,-4.297,-4.2891,-4.2718,0.0,0.0,0.0,0.0,-4.2706,-4.2688,-4.2581,-4.2581,-4.2581,-4.2581,-4.2581,-4.2729,-4.2875,-4.2875,-4.2967,-4.3034,-4.2962,-4.3382,-4.3871,-4.3778,-4.4961,-4.6427,-4.6594,-4.7209,-4.7734,-4.735,-4.7272,-4.7251,-4.7062,-4.6985,-4.6849,-4.6531,-4.6382,-4.6081,-4.5257,-4.4756,-4.4152,-4.3101,-4.2346,-4.1756,-4.1346,-4.1389,-4.1323,-4.0902,-4.0455,-4.011,-3.9893,-3.9294,-3.8825,-3.8649,-3.8804,-3.8733,-3.8285,-3.8271,-3.8109,-3.7757,-3.7316,-3.7153,-3.7245,-3.6659,-3.6469,-3.6605,-3.6225,-3.5927,-3.5722,-3.5302,-3.5003,0.0,0.0,0.0,0.0,0.0,0.0,0.0,0.0,0.0,0.0,0.0,0.0,0.0,0.0,0.0,0.0,0.0,0.0,0.0,0.0,0.0,0.0,0.0,0.0,0.0,0.0,0.0,0.0,0.0,0.0,0.0,-4.4822,-4.4352,-4.3069,-4.4838,-4.4764,-4.2552,-4.3004,-4.323,-4.323,-4.326,-4.2946,-4.2357,-4.2192,-4.1718,0.0,0.0,0.0,0.0,-4.2151,-4.2348,-4.2392,-4.2392,-4.2392,-4.2392,-4.2392,-4.2541,-4.2729,-4.2729,-4.245,-4.2233,-4.3056,-4.3433,-4.3576,-4.3369,-4.4986,-4.6746,-4.6082,-4.6675,-4.7337,-4.6689,-4.6851,-4.716,-4.716,-4.6741,-4.6279,-4.6279,-4.5813,-4.517,-4.4511,-4.4347,-4.3792,-4.209,-4.229,-4.2361,-4.1372,-4.1741,-4.2078,-4.2034,-4.1293,-4.0713,-4.0508,-4.0247,-4.0053,-3.9887,-3.9366,-3.9015,-3.8986,-3.8931,-3.8808,-3.8546,-3.8297,-3.7827,-3.7099,-3.7408,-3.727,-3.6605,-3.6646,-3.6508,-3.6206,-3.5489,-3.5043,-3.3205,0.0,-3.2304,0.0,0.0,0.0,0.0,0.0,0.0,0.0,0.0,0.0,0.0,0.0,0.0,0.0,0.0,0.0,0.0,0.0,0.0,0.0,0.0,0.0,0.0,0.0,0.0,0.0,0.0,0.0,0.0,-4.5277,-4.4586,-4.3281,-4.3903,-4.3434,-4.17,-4.2291,-4.262,-4.2635,-4.2917,-4.2748,-4.2138,-4.1888,-4.1469,0.0,0.0,0.0,-4.1477,-4.1598,-4.1857,-4.2175,-4.2175,-4.2242,-4.2392,-4.2392,-4.2607,-4.2915,-4.2915,-4.2946,-4.3041,-4.3245,-4.3039,-4.2764,-4.318,-4.4298,-4.5414,-4.5102,-4.558,-4.6086,-4.5962,-4.583,-4.5768,-4.5768,-4.6052,-4.6279,-4.6279,-4.6202,-4.5873,-4.52,-4.4661,-4.4007,-4.3081,-4.2786,-4.2589,-4.2361,-4.2181,-4.1903,-4.1395,-4.103,-4.0685,-4.0465,-4.0232,-4.0195,-4.0491,-4.035,-4.0069,-3.9606,-3.9397,-3.9187,-3.8976,-3.8253,-3.8165,-3.8741,-3.8369,-3.7677,-3.6605,-3.708,-3.6711,-3.5601,-3.5716,-3.5429,-3.2079,-3.2175,-3.2512,-3.1906,-3.0354,-2.9375,0.0,0.0,0.0,0.0,0.0,0.0,0.0,0.0,0.0,0.0,0.0,0.0,0.0,0.0,0.0,0.0,0.0,0.0,0.0,0.0,0.0,0.0,0.0,0.0,0.0,-4.4358,-4.3747,-4.2598,-4.2705,-4.2386,-4.155,-4.2119,-4.2506,-4.2673,-4.2614,-4.2199,-4.1498,-4.1263,-4.0632,0.0,0.0,0.0,-4.084,-4.1161,-4.1604,-4.2092,-4.2092,-4.2175,-4.2242,-4.2242,-4.2392,-4.2622,-4.2809,-4.3036,-4.329,-4.329,-4.309,-4.2925,-4.3584,-4.3983,-4.4203,-4.4083,-4.4564,-4.5075,-4.5075,-4.4937,-4.4915,-4.5229,-4.5349,-4.5394,-4.5394,-4.5394,-4.5158,-4.4389,-4.4184,-4.3864,-4.3008,-4.2703,-4.2541,-4.2433,-4.2242,-4.1961,-4.1599,-4.1295,-4.1033,-4.0867,-4.0589,-4.0464,-4.0674,-4.0702,-4.0561,-4.0224,-4.0069,-3.9773,-3.9282,-3.8766,-3.8692,-3.9016,-3.8746,-3.8349,-3.784,-3.7908,-3.7468,-3.6623,-3.6452,-3.6197,-3.1398,-3.2228,-3.3389,-3.2793,-3.1366,-3.0548,0.0,0.0,0.0,0.0,0.0,0.0,0.0,0.0,0.0,0.0,0.0,0.0,0.0,0.0,0.0,0.0,0.0,0.0,0.0,0.0,0.0,0.0,0.0,0.0,0.0,-4.3214,-4.272,-4.1882,-4.1814,-4.1791,-4.1738,-4.2126,-4.2509,-4.2792,-4.2233,-4.1607,-4.0866,-4.0495,-3.9691,-3.8646,0.0,0.0,-4.0133,-4.0713,-4.1395,-4.2092,-4.2092,-4.2133,-4.2133,-4.2133,-4.2175,-4.2242,-4.2622,-4.297,-4.329,-4.329,-4.3364,-4.3544,-4.4152,-4.3888,-4.3439,-4.3439,-4.3768,-4.4167,-4.4167,-4.4167,-4.4261,-4.4814,-4.4605,-4.4206,-4.4061,-4.4046,-4.3796,-4.2981,-4.3193,-4.3249,-4.2441,-4.2173,-4.2091,-4.2146,-4.2005,-4.1935,-4.2036,-4.1689,-4.1466,-4.1482,-4.1057,-4.0773,-4.0828,-4.0744,-4.0702,-4.0702,-4.0659,-4.0292,-3.9506,-3.9395,-3.9196,-3.8863,-3.8906,-3.9024,-3.9169,-3.8749,-3.8333,-3.7883,-3.7237,-3.7003,-3.2562,-3.2329,-3.1643,-3.0301,-3.0005,-2.992,0.0,0.0,0.0,0.0,0.0,0.0,0.0,0.0,0.0,0.0,0.0,0.0,0.0,0.0,0.0,0.0,0.0,0.0,0.0,0.0,0.0,0.0,0.0,0.0,0.0,-4.3797,-4.3277,-4.2575,-4.2376,-4.2168,-4.196,-4.201,-4.1996,-4.1902,-4.1641,-4.1418,-4.1247,-3.9984,-3.9286,-3.9068,0.0,-3.9102,-4.0104,-4.0205,-4.0974,-4.2092,-4.2092,-4.2201,-4.2351,-4.2351,-4.2474,-4.2662,-4.2875,-4.3115,-4.329,-4.329,-4.3663,-4.4182,-4.4287,-4.4242,-4.4167,-4.4167,-4.3798,-4.3439,-4.3439,-4.3439,-4.3429,-4.3358,-4.3704,-4.3842,-4.3075,-4.2972,-4.2765,-4.2129,-4.1588,-4.1401,-4.1764,-4.1119,-4.0935,-4.2149,-4.1584,-4.1179,-4.1686,-4.1702,-4.1694,-4.1909,-4.1341,-4.1099,-4.1432,-4.0997,-4.0702,-4.0702,-4.0544,-4.0286,-3.9915,-3.9417,-3.9261,-3.9549,-3.9563,-3.9199,-3.8559,-3.8966,-3.8421,-3.7007,-3.7407,-3.7104,-3.0761,-3.1477,-3.2149,-3.1929,-3.2426,-3.2822,0.0,0.0,0.0,0.0,0.0,0.0,0.0,0.0,0.0,0.0,0.0,0.0,0.0,0.0,0.0,0.0,0.0,0.0,0.0,0.0,0.0,0.0,0.0,0.0,0.0,0.0,-4.2278,-4.1863,-4.1733,-4.1525,-4.1214,-4.1175,-4.1489,-4.206,-4.1598,-4.1167,-4.0683,-3.9983,-3.9305,-3.8667,0.0,-3.9073,-3.9639,-3.9958,-4.067,-4.1599,-4.1961,-4.2078,-4.2092,-4.2455,-4.2998,-4.3583,-4.3803,-4.4024,-4.4303,-4.4784,-4.462,-4.4377,-4.4736,-4.4347,-4.3703,-4.3359,-4.3299,-4.32,-4.2895,-4.2806,-4.2677,-4.2099,-4.1926,-4.1768,-4.1224,-4.1126,-4.0998,-4.0612,-4.0612,-4.0642,-4.0683,-4.0296,-4.0177,-4.0755,-4.0395,-4.0316,-4.0961,-4.0923,-4.0984,-4.1426,-4.1114,-4.0929,-4.1095,-4.0856,-4.0702,-4.0702,-4.0321,-3.9955,-3.9684,-3.9421,-3.9236,-3.9136,-3.9522,-3.9417,-3.8898,-3.9023,-3.8684,-3.7939,-3.7954,-3.7875,-2.9245,-3.0432,-3.2002,0.0,0.0,0.0,0.0,0.0,0.0,0.0,0.0,0.0,0.0,0.0,0.0,0.0,0.0,0.0,0.0,0.0,0.0,0.0,0.0,0.0,0.0,0.0,0.0,0.0,0.0,0.0,0.0,0.0,-4.1308,-4.1095,-4.0946,-4.0778,-4.0554,-4.0515,-4.1046,-4.2076,-4.1405,-4.0814,-4.0321,-4.0162,-3.9567,-3.8667,-3.9044,-3.9276,-3.945,-3.99,-4.0495,-4.1163,-4.1831,-4.2026,-4.1976,-4.2494,-4.3328,-4.4251,-4.4449,-4.4718,-4.5087,-4.5612,-4.5218,-4.4586,-4.4781,-4.4122,-4.3155,-4.259,-4.2611,-4.2761,-4.2306,-4.2237,-4.2115,-4.1281,-4.0736,-4.0267,-3.982,-3.9686,-3.9566,-3.9238,-3.9556,-3.9833,-3.961,-3.9391,-3.9272,-3.9479,-3.9327,-3.947,-4.0126,-4.0033,-4.0095,-4.0647,-4.0605,-4.0547,-4.0688,-4.0702,-4.0702,-4.0702,-4.0112,-3.9761,-3.9661,-3.9479,-3.9252,-3.8931,-3.9453,-3.9554,-3.9305,-3.9056,-3.893,-3.902,-3.8448,-3.8484,-2.9937,-2.9623,-2.9307,-3.1711,0.0,0.0,0.0,0.0,0.0,0.0,0.0,0.0,0.0,0.0,0.0,0.0,0.0,0.0,0.0,0.0,0.0,0.0,0.0,0.0,0.0,0.0,0.0,0.0,0.0,0.0,0.0,0.0,0.0,-4.1095,-4.0486,-4.038,-4.0757,-4.0524,-4.0665,-4.1204,-4.0521,-4.0466,-4.1004,-4.0379,-4.0046,-3.9929,-3.9421,-3.9523,-4.0046,-4.0075,-4.0495,-4.1163,-4.1831,-4.2259,-4.2538,-4.2653,-4.3242,-4.3979,-4.4251,-4.4634,-4.4897,-4.4332,-4.4661,-4.5005,-4.3798,-4.3364,-4.3155,-4.259,-4.1991,-4.1504,-4.1459,-4.1739,-4.1867,-4.1243,-4.1224,-4.0969,-3.9768,-3.9381,-3.9053,-3.8429,-3.8182,-3.8261,-3.8837,-3.8139,-3.7944,-3.931,-3.8851,-3.8604,-3.9228,-3.9272,-3.9417,-3.9816,-3.9887,-4.0083,-4.0645,-4.0702,-4.0702,-4.0702,-4.0112,-3.9971,-4.0301,-3.9715,-3.946,-3.9631,-3.9686,-3.9554,-3.9305,-3.9056,-3.9055,-3.9348,-3.8542,-3.8379,-2.8408,-2.9323,-3.0233,-3.0823,0.0,0.0,0.0,0.0,0.0,0.0,0.0,0.0,0.0,0.0,0.0,0.0,0.0,0.0,0.0,0.0,0.0,0.0,0.0,0.0,0.0,0.0,0.0,0.0,0.0,0.0,0.0,0.0,0.0,-3.9488,-3.9238,-3.9339,-3.9784,-3.9707,-4.0153,-4.1091,-4.1265,-4.125,-4.1091,-4.0829,-4.0481,-4.0089,-3.9857,-3.9886,-4.0133,-4.0539,-4.0792,-4.0934,-4.1291,-4.1823,-4.241,-4.2424,-4.2998,-4.3806,-4.4322,-4.4577,-4.4684,-4.4322,-4.4131,-4.3913,-4.3,-4.2447,-4.1983,-4.1324,-4.0875,-4.0606,-4.0771,-4.1113,-4.1249,-4.0482,-4.0538,-4.051,-3.9532,-3.9571,-3.9412,-3.8231,-3.8284,-3.84,-3.7957,-3.7575,-3.7459,-3.7887,-3.7695,-3.7687,-3.8307,-3.8392,-3.8591,-3.9183,-3.9254,-3.9352,-3.9577,-3.9605,-3.9718,-4.0112,-4.0266,-4.0292,-4.014,-3.9918,-3.9688,-3.9452,-3.9452,-3.9394,-3.9305,-3.9239,-3.9352,-3.9612,-3.8503,-3.8556,-2.7373,-2.8453,-2.9647,0.0,0.0,0.0,0.0,0.0,0.0,0.0,0.0,0.0,0.0,0.0,0.0,0.0,0.0,0.0,0.0,0.0,0.0,0.0,0.0,0.0,0.0,0.0,0.0,0.0,0.0,0.0,0.0,0.0,0.0,-3.8516,-3.8478,-3.8762,-3.9304,-3.9242,-3.9726,-4.0786,-4.125,-4.1221,-4.0786,-4.0963,-4.0586,-3.9813,-3.9735,-3.9774,-3.9842,-4.0228,-4.0501,-4.0715,-4.0701,-4.1312,-4.2209,-4.2281,-4.2697,-4.3286,-4.3887,-4.4009,-4.387,-4.359,-4.323,-4.2802,-4.1998,-4.1467,-4.0935,-4.0277,-3.9935,-3.9854,-4.0189,-4.059,-4.0687,-3.9946,-4.0217,-4.0387,-3.9494,-3.9707,-3.9764,-3.8693,-3.8683,-3.8542,-3.771,-3.7353,-3.7148,-3.7017,-3.6978,-3.7133,-3.7555,-3.7611,-3.785,-3.8496,-3.8566,-3.8677,-3.8888,-3.8902,-3.9085,-3.9507,-3.9831,-3.9941,-3.9706,-3.9483,-3.9223,-3.8932,-3.9077,-3.9127,-3.9083,-3.9253,-3.9488,-3.98,-3.8319,-3.8411,-2.7196,-2.6819,0.0,0.0,0.0,0.0,0.0,0.0,0.0,0.0,0.0,0.0,0.0,0.0,0.0,0.0,0.0,0.0,0.0,0.0,0.0,0.0,0.0,0.0,0.0,0.0,0.0,0.0,0.0,0.0,0.0,0.0,-3.8671,-3.8516,-3.8478,-3.8823,-3.9466,-3.9304,-3.9509,-4.0104,-4.0089,-4.0089,-4.0118,-4.057,-4.0235,-3.9218,-3.9011,-3.9011,-3.918,-3.9011,-3.9524,-4.0453,-4.0205,-4.0873,-4.1993,-4.2224,-4.2281,-4.2353,-4.2808,-4.2738,-4.2316,-4.1842,-4.1888,-4.19,-4.0711,-4.0382,-4.0247,-3.9568,-3.9265,-3.9253,-3.9914,-4.0247,-4.0324,-3.9885,-4.049,-4.0822,-3.9735,-3.9824,-4.0039,-3.9856,-3.914,-3.8514,-3.8263,-3.7518,-3.6978,-3.6978,-3.6978,-3.6978,-3.6978,-3.6978,-3.7217,-3.7835,-3.7892,-3.8145,-3.8832,-3.8888,-3.8888,-3.8902,-3.8614,-3.8672,-3.907,-3.8307,-3.7983,-3.8105,-3.8639,-3.8814,-3.8589,-3.8899,-3.9374,-3.9815,-3.7874,-3.7926,-2.5947,0.0,0.0,0.0,0.0,0.0,0.0,0.0,0.0,0.0,0.0,0.0,0.0,0.0,0.0,0.0,0.0,0.0,0.0,0.0,0.0,0.0,0.0,0.0,0.0,0.0,0.0,0.0,0.0,0.0,0.0,0.0,-3.7419,-3.8248,-3.787,-3.8175,-3.929,-3.9242,-3.9509,-4.0089,-3.9668,-3.9683,-4.0104,-4.0253,-4.0137,-3.9828,-3.9607,-3.9582,-3.9582,-3.9264,-3.9306,-3.9552,-3.9348,-3.9759,-4.0506,-4.0885,-4.0996,-4.1065,-4.1668,-4.181,-4.154,-4.065,-4.0837,-4.1177,-3.9876,-3.9584,-3.9627,-3.9273,-3.9031,-3.9018,-3.9547,-4.0261,-4.0877,-4.09,-4.1029,-4.0989,-4.0691,-4.1087,-4.1114,-3.9828,-3.9419,-3.9028,-3.8309,-3.7518,-3.707,-3.7187,-3.7226,-3.7226,-3.7226,-3.7109,-3.7063,-3.7245,-3.7259,-3.733,-3.7566,-3.758,-3.7683,-3.7957,-3.7393,-3.7467,-3.8421,-3.8087,-3.7821,-3.7671,-3.7833,-3.7798,-3.7638,-3.7963,-3.8111,-3.8121,-3.6904,-3.7,0.0,0.0,0.0,0.0,0.0,0.0,0.0,0.0,0.0,0.0,0.0,0.0,0.0,0.0,0.0,0.0,0.0,0.0,0.0,0.0,0.0,0.0,0.0,0.0,0.0,0.0,0.0,0.0,0.0,0.0,0.0,-3.6474,-3.6852,-3.781,-3.7491,-3.7912,-3.9189,-3.8696,-3.8754,-3.9334,-3.8463,-3.8376,-3.8986,-3.8818,-3.878,-3.8885,-3.8913,-3.8871,-3.8778,-3.857,-3.8552,-3.8684,-3.8563,-3.8902,-3.9534,-4.012,-4.0173,-4.0012,-4.0579,-4.0589,-4.0251,-3.9513,-3.9643,-3.9919,-3.9195,-3.9068,-3.9141,-3.9017,-3.8833,-3.8855,-3.9651,-4.01,-4.0448,-4.0814,-4.1375,-4.1674,-4.11,-4.1288,-4.1208,-3.9984,-3.9413,-3.8942,-3.8295,-3.7675,-3.7264,-3.7303,-3.7226,-3.7187,-3.7187,-3.707,-3.6978,-3.6978,-3.6978,-3.6993,-3.6889,-3.685,-3.6925,-3.7089,-3.6584,-3.6562,-3.7195,-3.7016,-3.6917,-3.7007,-3.7151,-3.7144,-3.693,-3.7342,-3.7457,-3.7222,-3.6118,-3.6176,0.0,0.0,0.0,0.0,0.0,0.0,0.0,0.0,0.0,0.0,0.0,0.0,0.0,0.0,0.0,0.0,0.0,0.0,0.0,0.0,0.0,0.0,0.0,0.0,0.0,0.0,0.0,0.0,0.0,0.0,0.0,-3.6041,-3.6683,-3.7288,-3.7186,-3.7738,-3.9015,-3.7825,-3.752,-3.8101,-3.6845,-3.6584,-3.7179,-3.6782,-3.6751,-3.6962,-3.7391,-3.7457,-3.7264,-3.7264,-3.7473,-3.7821,-3.7821,-3.8243,-3.8972,-3.9742,-3.9683,-3.9282,-3.9768,-3.947,-3.8885,-3.8658,-3.861,-3.8714,-3.8752,-3.8797,-3.8797,-3.8856,-3.8737,-3.8858,-4.0071,-3.9945,-3.9654,-4.0089,-4.1482,-4.2399,-4.1081,-4.0778,-4.0598,-4.0161,-3.9261,-3.8553,-3.8263,-3.787,-3.7495,-3.7341,-3.7148,-3.7017,-3.7017,-3.7017,-3.6978,-3.6993,-3.6954,-3.6875,-3.6721,-3.6642,-3.6563,-3.6405,-3.6206,-3.5992,-3.571,-3.5521,-3.5668,-3.6191,-3.6489,-3.6585,-3.6369,-3.6854,-3.6985,-3.6737,-3.5418,-3.5409,0.0,0.0,0.0,0.0,0.0,0.0,0.0,0.0,0.0,0.0,0.0,0.0,0.0,0.0,0.0,0.0,0.0,0.0,0.0,0.0,0.0,0.0,0.0,0.0,0.0,0.0,0.0,0.0,0.0,0.0,-3.5556,-3.5112,-3.5625,-3.7259,-3.6315,-3.6402,-3.7709,-3.6925,-3.6852,0.0,-3.6534,-3.6158,-3.6288,-3.618,-3.6284,-3.6575,-3.711,-3.7264,-3.707,-3.707,-3.7102,-3.7175,-3.7175,-3.7903,-3.8971,-3.9451,-3.9544,-3.9556,-4.0487,-4.0372,-3.976,-3.9228,-3.9474,-3.9794,-3.8846,-3.8686,-3.89,-3.9228,-3.9299,-3.9414,-4.0018,-4.1175,-4.1961,-4.1091,-4.08,-4.0746,-4.0804,-4.0509,-4.0108,-3.9696,-3.9201,-3.8749,-3.8475,-3.7831,-3.7341,-3.7303,-3.7148,-3.707,-3.7303,-3.7148,-3.6915,-3.6707,-3.6707,-3.6668,-3.6642,-3.6603,-3.6524,-3.6246,-3.6206,-3.6032,-3.571,-3.5521,-3.5466,-3.5587,-3.5516,-3.5459,-3.5417,-3.5341,-3.5226,-3.4946,-3.45,-3.4301,0.0,0.0,0.0,0.0,0.0,0.0,0.0,0.0,0.0,0.0,0.0,0.0,0.0,0.0,0.0,0.0,0.0,0.0,0.0,0.0,0.0,0.0,0.0,0.0,0.0,0.0,0.0,0.0,0.0,-3.4848,-3.5015,-3.4724,-3.5127,-3.633,-3.5755,-3.5872,-3.6823,-3.6185,-3.6004,-3.6252,-3.5459,-3.5016,-3.4853,-3.5453,-3.5727,-3.5902,-3.6753,-3.7109,-3.6978,-3.6978,-3.6978,-3.6978,-3.6978,-3.7465,-3.8232,-3.9041,-3.919,-3.9196,-4.0504,-4.0307,-3.944,-3.9252,-3.9281,-3.9284,-3.8949,-3.8908,-3.9042,-3.9279,-3.9547,-3.9853,-4.0056,-4.1091,-4.199,-4.1657,-4.1459,-4.1261,-4.0879,-4.0057,-3.933,-3.9113,-3.8635,-3.8265,-3.8188,-3.7839,-3.7495,-3.738,-3.7148,-3.707,-3.7187,-3.7109,-3.6954,-3.6811,-3.6772,-3.6693,-3.6524,-3.6312,-3.6098,-3.5978,-3.5978,-3.5817,-3.544,-3.5318,-3.5318,-3.5399,-3.5127,-3.4962,-3.4962,-3.4839,-3.4632,-3.4243,-3.4021,-3.3768,0.0,0.0,0.0,0.0,0.0,0.0,0.0,0.0,0.0,0.0,0.0,0.0,0.0,0.0,0.0,0.0,0.0,0.0,0.0,0.0,0.0,0.0,0.0,0.0,0.0,0.0,0.0,0.0,0.0,-3.4735,-3.4481,-3.4597,-3.4889,-3.5378,-3.529,-3.5503,-3.6141,-3.5517,-3.5137,-3.5099,-3.4462,-3.4025,-3.3733,-3.4751,-3.5178,-3.525,-3.636,-3.688,-3.6978,-3.7017,-3.707,-3.707,-3.707,-3.7243,-3.7639,-3.8802,-3.8936,-3.8764,-4.0308,-3.9971,-3.8914,-3.9112,-3.8826,-3.8478,-3.903,-3.9204,-3.9247,-3.9465,-3.9886,-4.0292,-4.0408,-4.0931,-4.1512,-4.1845,-4.2158,-4.2033,-4.0881,-3.9535,-3.8517,-3.8492,-3.8004,-3.7625,-3.7739,-3.7701,-3.7586,-3.7341,-3.7148,-3.6978,-3.6978,-3.6978,-3.694,-3.6783,-3.6783,-3.664,-3.6312,-3.5924,-3.571,-3.571,-3.5669,-3.548,-3.5154,-3.5086,-3.5127,-3.5277,-3.488,-3.4714,-3.4797,-3.4714,-3.4507,-3.416,-3.3852,-3.3598,0.0,0.0,0.0,0.0,0.0,0.0,0.0,0.0,0.0,0.0,0.0,0.0,0.0,0.0,0.0,0.0,0.0,0.0,0.0,0.0,0.0,0.0,0.0,0.0,0.0,0.0,0.0,0.0,0.0,-3.4698,-3.4664,-3.4515,-3.4738,-3.5378,-3.4835,-3.4849,-3.5508,-3.4678,-3.4565,-3.5099,-3.4661,-3.4335,-3.4126,-3.4295,-3.466,-3.5231,-3.5934,-3.6539,-3.7017,-3.7187,-3.7264,-3.7264,-3.7264,-3.7707,-3.8432,-3.9185,-3.9147,-3.897,-4.0521,-4.0224,-3.9151,-3.9204,-3.9146,-3.9088,-3.9175,-3.9204,-3.9436,-4.0539,-4.0902,-4.1091,-4.1671,-4.2281,-4.2484,-4.1468,-4.1131,-4.0865,-4.0104,-3.9054,-3.8196,-3.8012,-3.7773,-3.7586,-3.7457,-3.7264,-3.7109,-3.707,-3.7017,-3.6978,-3.6978,-3.6978,-3.6705,-3.5951,-3.5871,-3.5831,-3.5804,-3.5723,-3.571,-3.571,-3.548,-3.5358,-3.5358,-3.5044,-3.4839,-3.488,-3.441,-3.4382,-3.4797,-3.4382,-3.4243,-3.4356,-3.3894,-3.367,0.0,0.0,0.0,0.0,0.0,0.0,0.0,0.0,0.0,0.0,0.0,0.0,0.0,0.0,0.0,0.0,0.0,0.0,0.0,0.0,0.0,0.0,0.0,0.0,0.0,0.0,0.0,0.0,0.0,-3.4346,-3.4346,-3.4225,-3.4238,-3.456,-3.4008,-3.398,-3.456,-3.3926,-3.3892,-3.4421,-3.4128,-3.4002,-3.4016,-3.4016,-3.4504,-3.5416,-3.6,-3.6684,-3.7341,-3.7419,-3.738,-3.7303,-3.7419,-3.7666,-3.8153,-3.9244,-3.9168,-3.8741,-4.0485,-4.0017,-3.8696,-3.9088,-3.8942,-3.871,-3.9088,-3.9436,-3.9813,-4.0379,-4.1076,-4.1642,-4.1555,-4.1729,-4.1787,-4.1221,-4.0474,-3.9826,-3.9512,-3.8717,-3.7953,-3.7777,-3.7457,-3.7264,-3.7187,-3.7443,-3.7519,-3.707,-3.6978,-3.6978,-3.6978,-3.6978,-3.6665,-3.579,-3.571,-3.571,-3.571,-3.571,-3.5602,-3.5399,-3.5318,-3.5236,-3.5086,-3.488,-3.457,-3.413,-3.4212,-3.4356,-3.4577,-3.4243,-3.4076,-3.4008,-3.3683,-3.3471,0.0,0.0,0.0,0.0,0.0,0.0,0.0,0.0,0.0,0.0,0.0,0.0,0.0,0.0,0.0,0.0,0.0,0.0,0.0,0.0,0.0,0.0,0.0,0.0,0.0,0.0,0.0,0.0,0.0,-3.3849,-3.3815,-3.3708,-3.3602,-3.3479,-3.3298,-3.3389,-3.3776,-3.3561,-3.358,-3.3896,-3.3709,-3.3709,-3.3896,-3.3862,-3.4412,-3.543,-3.5969,-3.6646,-3.7396,-3.7553,-3.7495,-3.738,-3.7534,-3.7625,-3.783,-3.9089,-3.8982,-3.8449,-4.0234,-3.9683,-3.8318,-3.8986,-3.8754,-3.8333,-3.9,-3.9625,-4.0133,-4.0307,-4.1192,-4.1947,-4.1265,-4.1091,-4.0974,-4.0481,-3.9639,-3.8942,-3.888,-3.8351,-3.7815,-3.7586,-3.7303,-3.707,-3.7017,-3.7519,-3.7711,-3.7095,-3.6978,-3.6978,-3.6978,-3.6822,-3.6429,-3.575,-3.571,-3.571,-3.571,-3.571,-3.5562,-3.5154,-3.5195,-3.5127,-3.4797,-3.4714,-3.4434,-3.3809,-3.4188,-3.4332,-3.4188,-3.4137,-3.3992,-3.381,-3.3556,-3.3356,0.0,0.0,0.0,0.0,0.0,0.0,0.0,0.0,0.0,0.0,0.0,0.0,0.0,0.0,0.0,0.0,0.0,0.0,0.0,0.0,0.0,0.0,0.0,0.0,0.0,0.0,0.0,0.0,0.0,-3.3168,-3.2954,-3.2968,-3.2796,-3.2403,-3.2922,-3.3306,-3.3514,-3.3864,-3.4011,-3.3896,-3.3709,-3.3709,-3.3896,-3.3709,-3.417,-3.515,-3.5568,-3.6125,-3.6782,-3.7368,-3.7586,-3.7586,-3.7625,-3.7739,-3.7978,-3.8678,-3.8645,-3.8391,-3.9697,-3.9291,-3.8318,-3.8986,-3.8754,-3.8333,-3.9,-3.9625,-4.0234,-4.0858,-4.1555,-4.1947,-4.1265,-4.1091,-4.0641,-3.8797,-3.8304,-3.8185,-3.8025,-3.792,-3.7815,-3.7457,-3.738,-3.7303,-3.7017,-3.7017,-3.707,-3.7017,-3.6978,-3.6978,-3.6978,-3.627,-3.575,-3.571,-3.571,-3.571,-3.571,-3.571,-3.5602,-3.5318,-3.5195,-3.5003,-3.4797,-3.4577,-3.4384,-3.4358,-3.4384,-3.4149,-3.3639,-3.3955,-3.4076,-3.4076,-3.381,-3.3598,0.0,0.0,0.0,0.0,0.0,0.0,0.0,0.0,0.0,0.0,0.0,0.0,0.0,0.0,0.0,0.0,0.0,0.0,0.0,0.0,0.0,0.0,0.0,0.0,0.0,0.0,0.0,0.0,0.0,-3.3024,-3.334,-3.2849,-3.2557,-3.2483,-3.2397,-3.2442,-3.2652,-3.3106,-3.3556,-3.404,-3.3971,-3.404,-3.4225,-3.4142,-3.4306,-3.4674,-3.5276,-3.6122,-3.7096,-3.7327,-3.7494,-3.7582,-3.7333,-3.7419,-3.7811,-3.8611,-3.8616,-3.8333,-3.9218,-3.8942,-3.8246,-3.8478,-3.8405,-3.8246,-3.8492,-3.9015,-3.9654,-4.0278,-4.0561,-4.0672,-4.0845,-3.9884,-3.8596,-3.7644,-3.7436,-3.7477,-3.7653,-3.7663,-3.7586,-3.7534,-3.7303,-3.7109,-3.7017,-3.6978,-3.6978,-3.6978,-3.6978,-3.6783,-3.623,-3.5871,-3.571,-3.571,-3.571,-3.49,-3.2877,-3.3631,-3.4153,-3.4017,-3.3502,-3.3593,-3.4496,-3.3746,-3.3483,-3.3875,-3.3875,-3.3953,-3.411,-3.4111,-3.3992,-3.3852,-3.3598,-3.3398,0.0,0.0,0.0,0.0,0.0,0.0,0.0,0.0,0.0,0.0,0.0,0.0,0.0,0.0,0.0,0.0,0.0,0.0,0.0,0.0,0.0,0.0,0.0,0.0,0.0,0.0,0.0,0.0,0.0,0.0,-3.2968,-3.245,-3.2145,-3.2151,-3.19,-3.1929,-3.232,-3.2594,-3.3159,-3.3893,-3.3811,-3.3994,-3.4414,-3.4346,-3.4312,-3.4341,-3.5082,-3.6017,-3.6997,-3.7142,-3.7405,-3.7658,-3.7394,-3.735,-3.7496,-3.8356,-3.8298,-3.7939,-3.8861,-3.8585,-3.7895,-3.8353,-3.8246,-3.7941,-3.8144,-3.8667,-3.9276,-3.9683,-3.9841,-3.9881,-3.9856,-3.826,-3.6656,-3.6595,-3.6552,-3.6687,-3.7205,-3.7391,-3.7457,-3.7419,-3.7187,-3.6978,-3.6978,-3.6978,-3.6978,-3.6978,-3.6744,-3.635,-3.575,-3.571,-3.571,-3.571,-3.571,-3.4794,-3.2579,-3.3156,-3.3634,-3.3499,-3.2791,-3.2935,-3.4071,-3.3404,-3.3273,-3.3849,-3.3862,-3.4003,-3.4314,-3.416,-3.3937,-3.3713,-3.3471,-3.3283,0.0,0.0,0.0,0.0,0.0,0.0,0.0,0.0,0.0,0.0,0.0,0.0,0.0,0.0,0.0,0.0,0.0,0.0,0.0,0.0,0.0,0.0,0.0,0.0,0.0,0.0,0.0,0.0,-3.2642,-3.2373,-3.1792,-3.1735,-3.16,-3.1303,-3.1418,-3.177,-3.2452,-3.2481,-3.2846,-3.3503,-3.332,-3.3638,-3.438,-3.4196,-3.4094,-3.4157,-3.4984,-3.5706,-3.6323,-3.6779,-3.7353,-3.7891,-3.7877,-3.7503,-3.7102,-3.7881,-3.7647,-3.7203,-3.8634,-3.822,-3.7247,-3.8692,-3.8333,-3.7418,-3.8028,-3.8652,-3.9175,-3.9204,-3.961,-3.9716,-3.8279,-3.6365,-3.4925,-3.5525,-3.5696,-3.5882,-3.6539,-3.7168,-3.7457,-3.7109,-3.7017,-3.6978,-3.6978,-3.6978,-3.6978,-3.6978,-3.627,-3.571,-3.571,-3.571,-3.571,-3.571,-3.5669,-3.5507,-3.5087,-3.4513,-3.4086,-3.3885,-3.3331,-3.3159,-3.3587,-3.3561,-3.3809,-3.4358,-3.4358,-3.4233,-3.405,-3.4076,-3.3949,-3.367,-3.3471,-3.3283,-1.789,0.0,0.0,0.0,0.0,0.0,0.0,0.0,0.0,0.0,0.0,0.0,0.0,0.0,0.0,0.0,0.0,0.0,0.0,0.0,0.0,0.0,0.0,0.0,0.0,0.0,0.0,0.0,-3.2757,-3.2972,-3.3271,-3.2515,-3.1825,-3.1334,-3.0998,-3.1148,-3.1756,-3.2249,-3.2846,-3.3503,-3.3902,-3.4172,-3.438,-3.4196,-3.4094,-3.4108,-3.4349,-3.5076,-3.6086,-3.6396,-3.7046,-3.7863,-3.744,-3.7152,-3.7022,-3.7255,-3.73,-3.7287,-3.7672,-3.7445,-3.716,-3.8142,-3.7829,-3.722,-3.7976,-3.8333,-3.8542,-3.8905,-3.8741,-3.816,-3.6596,-3.5285,-3.4447,-3.4768,-3.5202,-3.5685,-3.6205,-3.6916,-3.7419,-3.7303,-3.7148,-3.6978,-3.6978,-3.6978,-3.6978,-3.6978,-3.627,-3.571,-3.571,-3.571,-3.571,-3.571,-3.544,-3.4968,-3.4139,-3.4006,-3.3886,-3.3709,-3.3105,-3.321,-3.4136,-3.2986,-3.2803,-3.3796,-3.3229,-3.3135,-3.3426,-3.3882,-3.3907,-3.3471,-3.3283,-3.3068,0.0,0.0,0.0,0.0,0.0,0.0,0.0,-2.1615,0.0,0.0,0.0,0.0,0.0,0.0,0.0,0.0,0.0,0.0,0.0,0.0,0.0,0.0,0.0,0.0,0.0,0.0,0.0,-3.2018,-3.2283,-3.2682,-3.3183,-3.2626,-3.2032,-3.1399,-3.1101,-3.1018,-3.1119,-3.1772,-3.2425,-3.3079,-3.3717,-3.4167,-3.438,-3.4196,-3.4094,-3.4094,-3.4094,-3.4689,-3.5675,-3.6128,-3.6838,-3.7653,-3.7537,-3.704,-3.6404,-3.6916,-3.6823,-3.644,-3.6773,-3.6736,-3.6728,-3.7548,-3.7519,-3.722,-3.7878,-3.8066,-3.8101,-3.8299,-3.7639,-3.6668,-3.5756,-3.4848,-3.4295,-3.4715,-3.5232,-3.5798,-3.6415,-3.6886,-3.7226,-3.7226,-3.7109,-3.6978,-3.6978,-3.6978,-3.6861,-3.6508,-3.6031,-3.571,-3.571,-3.571,-3.521,-3.3871,-3.462,-3.4725,-3.3621,-3.3739,-3.3831,-3.3587,-3.3025,-3.3104,-3.4018,-3.3104,-3.2959,-3.379,-3.3355,-3.3165,-3.3335,-3.3669,-3.3569,-3.3099,-3.2982,-3.281,0.0,0.0,0.0,0.0,0.0,0.0,-2.1974,-2.1795,-2.1701,0.0,0.0,0.0,0.0,0.0,0.0,0.0,0.0,0.0,0.0,0.0,0.0,0.0,0.0,0.0,0.0,-3.1575,-3.1561,-3.0976,-3.1507,-3.1976,-3.2209,-3.2286,-3.206,-3.1642,-3.1451,-3.1177,-3.0714,-3.1235,-3.1859,-3.2495,-3.3198,-3.3794,-3.4279,-3.4095,-3.3993,-3.3993,-3.3993,-3.4416,-3.5156,-3.5969,-3.6707,-3.736,-3.7897,-3.7027,-3.5604,-3.6642,-3.623,-3.5179,-3.5904,-3.6064,-3.6115,-3.6975,-3.7266,-3.7308,-3.7742,-3.7891,-3.7815,-3.7663,-3.6618,-3.5546,-3.5512,-3.4905,-3.445,-3.4894,-3.54,-3.5949,-3.6459,-3.6796,-3.6978,-3.6861,-3.694,-3.6978,-3.6978,-3.69,-3.6587,-3.5831,-3.571,-3.571,-3.571,-3.5399,-3.4257,-3.1777,-3.3635,-3.4578,-3.3564,-3.3777,-3.3882,-3.3679,-3.3182,-3.3117,-3.3625,-3.3586,-3.3699,-3.3972,-3.3917,-3.3775,-3.3484,-3.3398,-3.3142,-3.2766,-3.268,-3.255,0.0,0.0,0.0,0.0,0.0,0.0,-2.1909,-2.1595,-2.1647,0.0,0.0,0.0,0.0,0.0,0.0,0.0,0.0,0.0,0.0,0.0,0.0,0.0,0.0,0.0,0.0,-3.1053,-3.1146,-3.0488,-3.1137,-3.1821,-3.242,-3.1526,-3.1366,-3.2263,-3.1308,-3.0945,-3.1322,-3.1422,-3.1859,-3.2495,-3.3198,-3.3561,-3.3678,-3.3479,-3.3379,-3.3379,-3.3379,-3.4013,-3.5156,-3.5969,-3.6707,-3.7317,-3.7433,-3.6816,-3.587,-3.561,-3.5245,-3.4867,-3.5031,-3.5418,-3.5963,-3.6792,-3.6956,-3.696,-3.7667,-3.7777,-3.7663,-3.7625,-3.6803,-3.5897,-3.5589,-3.5252,-3.4795,-3.3888,-3.4745,-3.5484,-3.4295,-3.5588,-3.6783,-3.6071,-3.6508,-3.6978,-3.6978,-3.6429,-3.5911,-3.571,-3.571,-3.571,-3.571,-3.3499,-3.2641,-3.4592,-3.3834,-3.358,-3.4507,-3.4434,-3.4282,-3.4241,-3.4123,-3.404,-3.3991,-3.3522,-3.3217,-3.3126,-3.2877,-3.2886,-3.3197,-3.3154,-3.3111,-3.3025,-3.2463,-3.2201,0.0,0.0,0.0,-2.4346,0.0,0.0,0.0,-2.2657,-2.1989,0.0,0.0,0.0,0.0,0.0,0.0,0.0,0.0,0.0,0.0,0.0,0.0,0.0,0.0,0.0,0.0,-3.0377,-3.0413,-3.0309,-3.0924,-3.1498,-3.1861,-3.1527,-3.1674,-3.2466,-3.1826,-3.1637,-3.1988,-3.2324,-3.2466,-3.2399,-3.3166,-3.347,-3.3357,-3.2893,-3.2922,-3.3343,-3.2893,-3.333,-3.4356,-3.4958,-3.5608,-3.6288,-3.7242,-3.6489,-3.4981,-3.5282,-3.496,-3.4382,-3.4696,-3.5211,-3.5876,-3.6593,-3.6985,-3.721,-3.7525,-3.7457,-3.7246,-3.6935,-3.6509,-3.5963,-3.5469,-3.5503,-3.5484,-3.4843,-3.4971,-3.518,-3.5157,-3.6121,-3.6861,-3.6429,-3.635,-3.635,-3.635,-3.5991,-3.571,-3.571,-3.571,-3.571,-3.571,-3.4166,-3.3132,-3.3314,-3.3569,-3.3843,-3.4094,-3.4271,-3.4356,-3.4285,-3.4243,-3.416,-3.3894,-3.3624,-3.3357,-3.3203,-3.2891,-3.2861,-3.3124,-3.3124,-3.3124,-3.3068,-3.2419,-3.2025,0.0,0.0,0.0,0.0,0.0,-2.5845,0.0,0.0,0.0,0.0,0.0,0.0,0.0,0.0,0.0,0.0,0.0,0.0,0.0,0.0,0.0,0.0,0.0,0.0,0.0,-2.91,-2.8713,-2.9806,-2.9875,-3.0219,-3.1013,-3.1206,-3.1674,-3.2434,-3.219,-3.219,-3.2449,-3.284,-3.2775,-3.2256,-3.2807,-3.2995,-3.2817,-3.2285,-3.2439,-3.3064,-3.2381,-3.2598,-3.3481,-3.3902,-3.4396,-3.4994,-3.6661,-3.6034,-3.4304,-3.5046,-3.474,-3.4035,-3.4512,-3.5103,-3.5788,-3.643,-3.7035,-3.7495,-3.7303,-3.7063,-3.6726,-3.6322,-3.6079,-3.5822,-3.5241,-3.5578,-3.6027,-3.5985,-3.5478,-3.5429,-3.6729,-3.6978,-3.6978,-3.6978,-3.631,-3.571,-3.571,-3.571,-3.571,-3.571,-3.571,-3.5547,-3.5086,-3.4607,-3.3608,-3.1822,-3.312,-3.3908,-3.3535,-3.4058,-3.4314,-3.4118,-3.4034,-3.3907,-3.367,-3.3598,-3.3513,-3.3441,-3.3197,-3.3124,-3.3124,-3.3124,-3.3025,-3.281,-3.2288,-3.1925,0.0,0.0,0.0,0.0,-2.8455,0.0,0.0,0.0,-2.4644,-2.2635,0.0,0.0,0.0,0.0,0.0,0.0,0.0,0.0,0.0,0.0,0.0,0.0,0.0,0.0,0.0,0.0,-2.4856,-2.8183,-2.6572,-2.6829,-3.0058,-2.9315,-2.9879,-3.2248,-3.1567,-3.1489,-3.2241,-3.1593,-3.1543,-3.2047,-3.172,-3.1521,-3.1521,-3.1546,-3.164,-3.1729,-3.1625,-3.2197,-3.3268,-3.3869,-3.398,-3.3845,-3.4775,-3.521,-3.5208,-3.4193,-3.3967,-3.4176,-3.4247,-3.4828,-3.5634,-3.6258,-3.6831,-3.7303,-3.7109,-3.6638,-3.6276,-3.6549,-3.6007,-3.5236,-3.4906,-3.5328,-3.5746,-3.5461,-3.6074,-3.6771,-3.695,-3.6978,-3.6978,-3.6978,-3.631,-3.571,-3.571,-3.571,-3.571,-3.571,-3.571,-3.4963,-3.2884,-3.1944,-3.2136,-3.3822,-3.2463,-3.2202,-3.411,-3.4345,-3.4314,-3.4118,-3.3781,-3.3556,-3.3513,-3.3283,-3.3154,-3.3154,-3.3124,-3.3124,-3.3124,-3.3124,-3.268,-3.1837,-3.1793,-3.1705,0.0,0.0,0.0,0.0,0.0,0.0,-2.6033,0.0,-2.4669,0.0,0.0,0.0,0.0,0.0,0.0,0.0,0.0,0.0,0.0,0.0,0.0,0.0,0.0,0.0,0.0,0.0,0.0,0.0,-2.5718,-2.6048,-2.8752,-2.8707,-2.9506,-3.1556,-3.126,-3.1449,-3.2241,-3.2389,-3.2342,-3.2191,-3.2453,-3.2341,-3.187,-3.1606,-3.1464,-3.1356,-3.098,-3.131,-3.2112,-3.2241,-3.2472,-3.2839,-3.3317,-3.3804,-3.4213,-3.4023,-3.405,-3.4203,-3.4203,-3.4908,-3.5949,-3.6555,-3.6936,-3.7109,-3.7017,-3.6595,-3.6051,-3.5891,-3.5522,-3.5068,-3.457,-3.5199,-3.5913,-3.5638,-3.6075,-3.6615,-3.6915,-3.6797,-3.6575,-3.631,-3.5951,-3.5276,-3.3892,-3.4801,-3.5248,-3.3865,-3.3661,-3.3308,-3.2341,-3.2055,-3.2084,-3.2385,-3.2738,-3.3352,-3.4319,-3.4397,-3.423,-3.3894,-3.3484,-3.3283,-3.3283,-3.3154,-3.3124,-3.3124,-3.3124,-3.3124,-3.3124,-3.3124,-3.268,-3.1937,-3.1937,-3.1849,-2.4247,0.0,0.0,0.0,0.0,0.0,0.0,0.0,0.0,0.0,0.0,0.0,0.0,0.0,0.0,0.0,0.0,0.0,0.0,0.0,0.0,0.0,0.0,0.0,0.0,0.0,0.0,-2.5397,-2.4347,-2.4713,-2.7357,-2.7949,-2.8926,-3.0451,-3.0791,-3.1268,-3.195,-3.2475,-3.2562,-3.2209,-3.2674,-3.2691,-3.2306,-3.1878,-3.1544,-3.1277,-3.074,-3.0766,-3.1211,-3.1054,-3.1557,-3.2442,-3.2824,-3.3125,-3.3431,-3.4014,-3.4301,-3.4492,-3.4492,-3.518,-3.6174,-3.6624,-3.6764,-3.6764,-3.6764,-3.6178,-3.5428,-3.5125,-3.4892,-3.4682,-3.4306,-3.5003,-3.5798,-3.5634,-3.591,-3.6232,-3.6468,-3.6417,-3.6232,-3.5804,-3.571,-3.4963,-3.2589,-3.3607,-3.4163,-3.2477,-3.254,-3.2793,-3.2793,-3.2484,-3.215,-3.194,-3.3404,-3.4397,-3.4397,-3.4189,-3.3894,-3.3556,-3.3283,-3.3124,-3.3124,-3.3124,-3.3124,-3.3124,-3.3124,-3.2973,-3.2616,-3.2674,-3.227,-3.1528,-3.1723,-3.1714,0.0,0.0,0.0,-2.354,0.0,0.0,0.0,0.0,-2.4344,0.0,0.0,0.0,0.0,0.0,-2.1533,-2.149,0.0,0.0,0.0,0.0,0.0,0.0,0.0,0.0,0.0,0.0,0.0,-2.3416,-2.1413,-2.1796,-2.5941,-2.6735,-2.764,-2.8931,-2.9978,-3.0704,-3.1051,-3.0938,-3.1269,-3.2001,-3.1588,-3.1711,-3.232,-3.2227,-3.185,-3.1274,-3.1057,-3.0994,-3.1008,-3.1008,-3.1736,-3.2939,-3.3611,-3.373,-3.3655,-3.405,-3.4618,-3.5161,-3.5161,-3.5583,-3.6103,-3.6131,-3.6131,-3.6131,-3.6131,-3.5125,-3.4052,-3.4505,-3.4154,-3.3735,-3.4111,-3.4676,-3.5141,-3.5102,-3.562,-3.5952,-3.544,-3.5817,-3.6112,-3.5764,-3.571,-3.4963,-3.2589,-3.2236,-3.23,-3.2218,-3.3422,-3.4334,-3.4334,-3.2424,-3.1875,-3.4058,-3.4358,-3.4397,-3.4397,-3.3611,-3.3124,-3.3124,-3.3124,-3.3124,-3.3124,-3.3124,-3.3124,-3.3124,-3.3124,-3.2583,-3.1449,-3.151,-3.1033,-3.0065,-3.079,-3.1077,0.0,0.0,-2.5256,-2.3544,0.0,0.0,0.0,0.0,0.0,0.0,0.0,0.0,0.0,0.0,0.0,-2.0954,0.0,0.0,0.0,0.0,0.0,0.0,0.0,0.0,0.0,0.0,0.0,-2.1477,-2.0365,-2.0881,-2.396,-2.5115,-2.6243,-2.7483,-2.8902,-2.9889,-3.0394,-3.0982,-3.1639,-3.232,-3.2634,-3.2804,-3.2893,-3.2475,-3.1997,-3.1543,-3.1194,-3.1282,-3.1668,-3.1797,-3.1925,-3.2057,-3.2892,-3.3428,-3.3844,-3.4717,-3.4826,-3.4604,-3.5048,-3.5062,-3.4927,-3.5372,-3.5766,-3.6033,-3.5625,-3.5055,-3.4478,-3.4224,-3.3868,-3.3528,-3.3271,-3.4238,-3.5052,-3.4114,-3.4731,-3.5514,-3.5561,-3.5291,-3.5222,-3.5602,-3.5562,-3.5063,-3.386,-3.2404,-3.1397,-3.1397,-3.3133,-3.4397,-3.4397,-3.3731,-3.296,-3.2215,-3.3496,-3.416,-3.3569,-3.3283,-3.3124,-3.3124,-3.3124,-3.3124,-3.3124,-3.3124,-3.2772,-3.1976,-3.2215,-3.1926,-3.106,-3.1317,-3.1133,-3.0511,-3.0429,-3.0394,-2.533,-2.543,0.0,-2.38,-2.36,0.0,-2.2447,0.0,-2.2985,0.0,0.0,0.0,0.0,0.0,0.0,0.0,-1.9941,0.0,0.0,-1.4407,0.0,0.0,0.0,0.0,0.0,0.0,-1.7539,-2.0225,-1.9237,-1.9696,0.0,0.0,-2.5173,-2.6132,-2.8066,-2.9294,-2.9783,-3.0629,-3.1449,-3.2133,-3.2571,-3.2709,-3.2533,-3.2591,-3.2213,-3.1492,-3.1664,-3.1876,-3.2098,-3.1979,-3.202,-3.2153,-3.2762,-3.3297,-3.3872,-3.4994,-3.506,-3.4562,-3.452,-3.4379,-3.4259,-3.4615,-3.5162,-3.5517,-3.4924,-3.4594,-3.4321,-3.3645,-3.3486,-3.3399,-3.2964,-3.3861,-3.4621,-3.369,-3.4074,-3.4745,-3.5009,-3.4741,-3.4647,-3.5292,-3.5358,-3.5154,-3.466,-3.3262,-3.2202,-3.2202,-3.3104,-3.394,-3.4345,-3.4397,-3.3794,-3.228,-3.3116,-3.3636,-3.3129,-3.2747,-3.2583,-3.2679,-3.2692,-3.2692,-3.2692,-3.2692,-3.234,-3.1612,-3.1901,-3.1696,-3.0951,-3.1016,-3.0686,-3.0094,-2.971,-2.9573]},{"header":{"parameterUnit":"m.s-1","parameterCategory":1,"la1":30.6,"la2":29.2853,"lo1":-89.7004,"lo2":-87.6739,"dy":0.0162,"dx":0.0183,"nx":112,"ny":82,"refTime":"2023-08-04T12:00:00:Z","depth":0,"parameterNumber":3,"parameterNumberName":"V-component_of_WINDS"},"data":[0.0,0.0,0.0,0.0,0.0,0.0,0.0,0.0,0.0,0.0,0.0,0.0,0.0,0.0,0.0,0.0,0.0,0.0,0.0,0.0,0.0,0.0,0.0,0.0,0.0,0.0,0.0,0.0,0.0,0.0,0.0,0.0,0.0,0.0,0.0,0.0,0.0,0.0,0.0,0.0,0.0,0.0,0.0,0.0,0.0,0.0,0.0,0.0,0.0,0.0,0.0,0.0,0.0,0.0,0.0,0.0,0.0,0.0,0.0,0.0,0.0,0.0,0.0,0.0,0.0,0.0,0.0,0.0,0.0,0.0,0.0,0.0,0.0,0.0,0.0,0.0,0.0,0.0,0.0,0.0,0.0,0.0,0.0,0.0,0.0,0.0,0.0,0.0,0.0,0.0,-1.4456,-1.5808,-1.6998,-1.7825,-1.8198,-1.8383,-1.7612,-1.5608,0.0,0.0,0.0,0.0,0.0,0.0,0.0,0.0,0.0,0.0,0.0,0.0,0.0,0.0,0.0,0.0,0.0,0.0,0.0,0.0,0.0,0.0,0.0,0.0,0.0,0.0,0.0,0.0,0.0,0.0,0.0,0.0,0.0,0.0,0.0,0.0,0.0,0.0,0.0,0.0,0.0,0.0,0.0,0.0,0.0,0.0,0.0,0.0,0.0,0.0,0.0,0.0,0.0,0.0,0.0,0.0,0.0,0.0,0.0,0.0,0.0,0.0,0.0,0.0,0.0,0.0,0.0,0.0,0.0,0.0,0.0,0.0,0.0,0.0,0.0,0.0,0.0,0.0,0.0,0.0,0.0,0.0,0.0,0.0,0.0,0.0,0.0,0.0,0.0,0.0,0.0,0.0,0.0,0.0,0.0,0.0,0.0,0.0,0.0,0.0,0.0,0.0,0.0,0.0,-1.5693,-1.8616,-1.8998,-1.9287,-2.0026,-1.9554,-1.8637,-1.7214,0.0,0.0,0.0,0.0,0.0,0.0,0.0,0.0,0.0,0.0,0.0,0.0,0.0,0.0,0.0,0.0,0.0,0.0,0.0,0.0,0.0,0.0,0.0,0.0,0.0,0.0,0.0,0.0,0.0,0.0,0.0,0.0,0.0,0.0,0.0,0.0,0.0,0.0,0.0,0.0,0.0,0.0,0.0,0.0,0.0,0.0,0.0,0.0,0.0,0.0,0.0,0.0,0.0,0.0,0.0,0.0,0.0,0.0,0.0,0.0,0.0,0.0,0.0,0.0,0.0,0.0,0.0,0.0,0.0,0.0,0.0,0.0,0.0,0.0,0.0,0.0,0.0,0.0,0.0,0.0,0.0,0.0,0.0,0.0,0.0,0.0,0.0,0.0,0.0,0.0,0.0,0.0,0.0,0.0,0.0,0.0,0.0,0.0,0.0,0.0,0.0,0.0,0.0,-1.5212,-1.6658,-1.9571,-1.9778,-2.0107,-2.1077,-2.0382,-1.921,-1.7664,-1.6152,0.0,0.0,0.0,0.0,0.0,0.0,0.0,0.0,0.0,0.0,0.0,0.0,0.0,0.0,0.0,0.0,0.0,0.0,0.0,0.0,0.0,0.0,0.0,0.0,0.0,0.0,0.0,0.0,0.0,0.0,0.0,0.0,0.0,0.0,0.0,0.0,0.0,0.0,0.0,0.0,0.0,0.0,0.0,0.0,0.0,0.0,0.0,0.0,0.0,0.0,0.0,0.0,0.0,0.0,0.0,0.0,0.0,0.0,0.0,0.0,0.0,0.0,0.0,0.0,0.0,0.0,0.0,0.0,0.0,0.0,0.0,0.0,0.0,0.0,0.0,0.0,0.0,0.0,0.0,0.0,0.0,0.0,0.0,0.0,0.0,0.0,0.0,0.0,0.0,0.0,0.0,0.0,0.0,0.0,0.0,0.0,0.0,0.0,0.0,0.0,0.0,0.0,-1.6943,-1.7978,-2.0389,-2.0631,-2.0959,-2.1782,-2.0713,-1.9329,-1.7737,-1.5851,0.0,0.0,0.0,0.0,0.0,0.0,0.0,0.0,0.0,0.0,0.0,0.0,0.0,0.0,0.0,0.0,0.0,0.0,0.0,0.0,0.0,0.0,0.0,0.0,0.0,0.0,0.0,0.0,0.0,0.0,0.0,0.0,0.0,0.0,0.0,0.0,0.0,0.0,0.0,0.0,0.0,0.0,0.0,0.0,0.0,0.0,0.0,0.0,0.0,0.0,0.0,0.0,0.0,0.0,0.0,0.0,0.0,0.0,0.0,0.0,0.0,0.0,0.0,0.0,0.0,0.0,0.0,0.0,0.0,0.0,0.0,0.0,0.0,0.0,0.0,0.0,0.0,0.0,0.0,0.0,0.0,0.0,0.0,0.0,0.0,0.0,0.0,0.0,0.0,0.0,0.0,0.0,0.0,0.0,0.0,0.0,0.0,0.0,0.0,0.0,0.0,0.0,-1.8268,-2.0113,-2.2014,-2.2189,-2.2179,-2.223,-2.0368,-1.8777,-1.784,-1.4249,0.0,0.0,0.0,0.0,0.0,0.0,0.0,0.0,0.0,0.0,0.0,0.0,0.0,0.0,0.0,0.0,0.0,0.0,0.0,0.0,0.0,0.0,0.0,0.0,0.0,0.0,0.0,0.0,0.0,0.0,0.0,0.0,0.0,0.0,0.0,0.0,0.0,0.0,0.0,0.0,0.0,0.0,0.0,0.0,0.0,0.0,0.0,0.0,0.0,0.0,0.0,0.0,0.0,0.0,0.0,0.0,0.0,0.0,0.0,0.0,0.0,0.0,0.0,0.0,0.0,0.0,0.0,0.0,0.0,0.0,0.0,0.0,0.0,0.0,0.0,0.0,0.0,0.0,0.0,0.0,0.0,0.0,0.0,0.0,0.0,0.0,0.0,0.0,0.0,0.0,0.0,0.0,0.0,0.0,0.0,0.0,0.0,0.0,0.0,0.0,0.0,0.0,-1.755,-1.951,0.0,-2.2322,-2.2532,-2.259,-2.1408,-1.958,-1.7085,0.0,0.0,0.0,0.0,0.0,0.0,0.0,0.0,0.0,0.0,0.0,0.0,0.0,0.0,0.0,0.0,0.0,0.0,0.0,0.0,0.0,0.0,0.0,0.0,0.0,0.0,0.0,0.0,0.0,0.0,0.0,0.0,0.0,0.0,0.0,0.0,0.0,0.0,0.0,0.0,0.0,0.0,0.0,0.0,0.0,0.0,0.0,0.0,0.0,0.0,0.0,0.0,0.0,0.0,0.0,0.0,0.0,0.0,0.0,0.0,0.0,0.0,0.0,0.0,0.0,0.0,0.0,0.0,0.0,0.0,0.0,0.0,0.0,0.0,0.0,0.0,0.0,0.0,0.0,0.0,0.0,0.0,0.0,0.0,0.0,0.0,0.0,0.0,0.0,0.0,0.0,0.0,0.0,0.0,0.0,0.0,0.0,0.0,0.0,0.0,0.0,0.0,-1.568,-1.7498,-1.9419,0.0,-2.2347,-2.2586,-2.2521,-2.1388,-1.951,-1.6859,0.0,0.0,0.0,0.0,0.0,0.0,0.0,0.0,0.0,0.0,0.0,0.0,0.0,0.0,0.0,0.0,0.0,0.0,0.0,0.0,0.0,0.0,0.0,0.0,0.0,0.0,0.0,0.0,0.0,0.0,0.0,0.0,0.0,0.0,0.0,0.0,0.0,0.0,0.0,0.0,0.0,0.0,0.0,0.0,0.0,0.0,0.0,0.0,0.0,0.0,0.0,0.0,0.0,0.0,0.0,0.0,0.0,0.0,0.0,0.0,0.0,0.0,0.0,0.0,0.0,0.0,0.0,0.0,0.0,0.0,0.0,0.0,0.0,0.0,0.0,0.0,0.0,0.0,0.0,0.0,0.0,0.0,0.0,0.0,0.0,0.0,0.0,0.0,0.0,0.0,0.0,0.0,0.0,0.0,0.0,0.0,0.0,0.0,0.0,0.0,0.0,0.0,-1.6469,-1.8511,-2.033,-2.1923,-2.2412,-2.241,-2.194,-1.9901,-1.8242,0.0,0.0,0.0,0.0,0.0,0.0,0.0,0.0,0.0,0.0,0.0,0.0,0.0,0.0,0.0,0.0,0.0,0.0,0.0,0.0,0.0,0.0,0.0,0.0,0.0,0.0,0.0,0.0,0.0,0.0,0.0,0.0,0.0,0.0,0.0,0.0,0.0,0.0,0.0,0.0,0.0,0.0,0.0,0.0,0.0,0.0,0.0,0.0,0.0,0.0,0.0,0.0,0.0,0.0,0.0,0.0,0.0,0.0,0.0,0.0,0.0,0.0,0.0,0.0,0.0,0.0,0.0,0.0,0.0,0.0,0.0,0.0,0.0,0.0,0.0,0.0,0.0,0.0,0.0,0.0,0.0,0.0,0.0,0.0,0.0,0.0,0.0,0.0,0.0,0.0,0.0,0.0,0.0,0.0,0.0,0.0,0.0,0.0,0.0,0.0,0.0,0.0,0.0,-1.6134,-1.8951,-2.1058,-2.1854,-2.259,-2.2824,-2.229,-2.1185,-1.9412,-1.6908,0.0,0.0,0.0,0.0,0.0,0.0,0.0,0.0,0.0,0.0,0.0,0.0,0.0,0.0,0.0,0.0,0.0,0.0,0.0,0.0,0.0,0.0,0.0,0.0,0.0,0.0,0.0,0.0,0.0,0.0,0.0,0.0,0.0,0.0,0.0,0.0,0.0,0.0,0.0,0.0,0.0,0.0,0.0,0.0,0.0,0.0,0.0,0.0,0.0,0.0,0.0,0.0,0.0,0.0,0.0,0.0,0.0,0.0,0.0,0.0,0.0,0.0,0.0,0.0,0.0,0.0,0.0,0.0,0.0,0.0,0.0,0.0,0.0,0.0,0.0,0.0,0.0,0.0,0.0,0.0,0.0,0.0,0.0,0.0,0.0,0.0,0.0,0.0,0.0,0.0,0.0,0.0,0.0,0.0,0.0,0.0,0.0,0.0,0.0,0.0,0.0,0.0,-1.6477,-1.9143,-2.1198,-2.2055,-2.2479,-2.2571,-2.2328,-2.1577,-2.0056,-1.7581,0.0,0.0,0.0,0.0,0.0,0.0,0.0,0.0,0.0,0.0,0.0,0.0,0.0,0.0,0.0,0.0,0.0,0.0,0.0,0.0,0.0,0.0,0.0,0.0,0.0,0.0,0.0,0.0,0.0,0.0,0.0,0.0,0.0,0.0,0.0,0.0,0.0,0.0,0.0,0.0,0.0,0.0,0.0,0.0,0.0,0.0,0.0,0.0,0.0,0.0,0.0,0.0,0.0,0.0,0.0,0.0,0.0,0.0,0.0,0.0,0.0,0.0,0.0,0.0,0.0,0.0,0.0,0.0,0.0,0.0,0.0,0.0,0.0,0.0,0.0,0.0,0.0,0.0,0.0,0.0,0.0,0.0,0.0,0.0,0.0,0.0,0.0,0.0,0.0,0.0,0.0,0.0,0.0,0.0,0.0,0.0,0.0,0.0,0.0,0.0,0.0,0.0,-1.7303,-1.9368,-2.1093,-2.2368,-2.223,-2.2102,-2.227,-2.1432,-2.0367,-1.9093,0.0,0.0,0.0,0.0,0.0,0.0,0.0,0.0,0.0,0.0,0.0,0.0,0.0,0.0,0.0,0.0,0.0,0.0,0.0,0.0,0.0,0.0,0.0,0.0,0.0,0.0,0.0,0.0,0.0,0.0,0.0,0.0,0.0,0.0,0.0,0.0,0.0,0.0,0.0,0.0,0.0,0.0,0.0,0.0,0.0,0.0,0.0,0.0,0.0,0.0,0.0,0.0,0.0,0.0,0.0,0.0,0.0,0.0,0.0,0.0,-1.5028,0.0,0.0,0.0,0.0,0.0,0.0,0.0,0.0,0.0,0.0,0.0,0.0,0.0,0.0,0.0,0.0,0.0,0.0,0.0,0.0,0.0,0.0,0.0,0.0,0.0,0.0,0.0,0.0,0.0,0.0,0.0,0.0,0.0,0.0,0.0,0.0,0.0,0.0,0.0,0.0,0.0,-1.8072,-2.0629,-2.2332,-2.2633,-2.2827,-2.2894,-2.2843,-2.2219,-2.1436,-2.0576,-1.8697,0.0,0.0,0.0,0.0,0.0,0.0,0.0,0.0,0.0,0.0,0.0,0.0,0.0,0.0,0.0,0.0,0.0,0.0,0.0,0.0,0.0,0.0,0.0,0.0,0.0,0.0,0.0,0.0,0.0,0.0,0.0,0.0,0.0,0.0,0.0,0.0,0.0,0.0,0.0,0.0,0.0,0.0,0.0,0.0,0.0,0.0,0.0,0.0,0.0,0.0,0.0,0.0,0.0,0.0,0.0,0.0,0.0,0.0,0.0,0.0,-1.6505,0.0,0.0,0.0,0.0,0.0,0.0,0.0,0.0,0.0,0.0,0.0,0.0,0.0,0.0,0.0,0.0,0.0,0.0,0.0,0.0,0.0,0.0,0.0,0.0,0.0,0.0,0.0,0.0,0.0,0.0,0.0,0.0,0.0,0.0,0.0,0.0,0.0,0.0,0.0,0.0,-1.8758,-2.1277,-2.3074,-2.3631,-2.3725,-2.3741,-2.3753,-2.3213,-2.2494,-2.1675,-2.0234,0.0,0.0,0.0,0.0,0.0,0.0,0.0,0.0,0.0,0.0,0.0,0.0,0.0,0.0,0.0,0.0,0.0,0.0,0.0,0.0,0.0,0.0,0.0,0.0,0.0,0.0,0.0,0.0,0.0,0.0,0.0,0.0,0.0,0.0,0.0,0.0,0.0,0.0,0.0,0.0,0.0,0.0,0.0,0.0,0.0,0.0,0.0,0.0,0.0,0.0,0.0,0.0,0.0,-2.0834,-2.1504,-2.163,-2.1779,-2.1997,-2.2103,-1.9984,-1.9079,-1.9102,-1.8334,0.0,0.0,0.0,0.0,0.0,0.0,0.0,0.0,0.0,0.0,0.0,0.0,0.0,0.0,0.0,0.0,0.0,0.0,0.0,0.0,0.0,0.0,0.0,0.0,-1.8663,-1.8211,-1.6056,0.0,0.0,0.0,0.0,0.0,0.0,0.0,0.0,0.0,0.0,0.0,-1.9555,-2.1769,-2.3582,-2.4672,-2.4593,-2.4513,-2.4677,-2.4201,-2.358,-2.2877,-2.1857,-2.0555,0.0,0.0,0.0,0.0,0.0,0.0,0.0,0.0,0.0,0.0,0.0,0.0,0.0,0.0,0.0,0.0,0.0,0.0,0.0,0.0,0.0,0.0,0.0,0.0,0.0,0.0,0.0,0.0,0.0,0.0,0.0,0.0,-1.1366,-1.1873,0.0,0.0,0.0,0.0,0.0,0.0,0.0,0.0,0.0,0.0,0.0,0.0,0.0,-2.0117,-2.102,-2.2201,-2.2911,-2.3133,-2.3994,-2.4459,-2.4459,-2.4155,-2.4228,-2.4609,-2.391,0.0,-2.0602,-2.0472,0.0,0.0,0.0,0.0,0.0,0.0,0.0,0.0,0.0,0.0,0.0,0.0,0.0,0.0,0.0,0.0,0.0,0.0,0.0,0.0,0.0,0.0,-2.1297,-2.0675,-2.1282,-2.1672,0.0,-1.8414,-1.6535,-1.5975,-1.5383,0.0,0.0,0.0,0.0,0.0,0.0,0.0,-2.0804,-2.2642,-2.3993,-2.4709,-2.4924,-2.5001,-2.5034,-2.4793,-2.4716,-2.4896,-2.4073,-2.2858,-2.1335,-2.0753,0.0,0.0,0.0,0.0,0.0,0.0,0.0,0.0,0.0,0.0,0.0,0.0,0.0,0.0,0.0,0.0,0.0,0.0,0.0,0.0,0.0,0.0,0.0,0.0,0.0,0.0,0.0,0.0,0.0,-1.141,-1.3044,-1.3132,-1.3737,-1.4263,0.0,0.0,0.0,0.0,0.0,0.0,0.0,0.0,0.0,-2.1388,-2.2085,-2.3037,-2.4259,-2.476,-2.5083,-2.5201,-2.6002,-2.615,-2.5778,-2.5938,-2.5826,-2.5483,-2.5295,-2.4611,-2.3463,-2.2695,-2.1484,-2.0086,0.0,0.0,0.0,0.0,-1.8726,-1.9178,-2.0185,-2.0648,-2.0837,-2.0839,0.0,0.0,0.0,0.0,0.0,0.0,0.0,0.0,0.0,0.0,-2.1596,-2.195,-2.2129,-2.2265,-2.241,-2.1156,-1.9599,0.0,-1.8103,-1.7456,-1.536,0.0,0.0,0.0,0.0,-1.9437,-2.147,-2.3127,-2.4408,-2.5318,-2.5407,-2.5514,-2.5872,-2.5807,-2.5665,-2.5478,-2.5094,-2.4526,-2.3661,-2.283,-2.1503,0.0,0.0,0.0,0.0,0.0,0.0,0.0,0.0,0.0,0.0,0.0,0.0,0.0,0.0,0.0,0.0,0.0,0.0,0.0,0.0,0.0,0.0,0.0,0.0,0.0,0.0,0.0,0.0,-1.2909,-1.4457,-1.4504,-1.5396,-1.5937,0.0,0.0,0.0,0.0,0.0,0.0,-2.0016,-2.0952,-2.2292,-2.4093,-2.4782,-2.5765,-2.6974,-2.7027,-2.719,-2.742,-2.7872,-2.7803,-2.7286,-2.7582,-2.724,-2.6431,-2.631,-2.6158,-2.5946,-2.4607,-2.3267,-2.2095,-2.1765,-2.0813,-1.9678,-2.0119,-2.039,-2.0746,-2.2032,-2.2625,-2.2857,-2.3165,-2.2654,-2.1666,-2.0238,0.0,0.0,0.0,0.0,-2.1194,-2.1781,-2.1965,-2.2226,-2.3086,-2.2894,-2.2693,-2.3451,-2.3246,-2.24,0.0,-2.0557,-2.0084,-1.7585,0.0,0.0,0.0,0.0,-2.0689,-2.2204,-2.3518,-2.4739,-2.5869,-2.5837,-2.5966,-2.6461,-2.6499,-2.6311,-2.585,-2.574,-2.5461,-2.4938,-2.4282,-2.3163,-2.1564,0.0,0.0,0.0,0.0,0.0,0.0,0.0,0.0,0.0,0.0,0.0,0.0,0.0,0.0,0.0,0.0,0.0,0.0,0.0,0.0,0.0,0.0,0.0,0.0,0.0,0.0,0.0,0.0,0.0,-1.6124,-1.7604,0.0,0.0,0.0,0.0,-1.887,-2.0032,-2.1528,-2.3445,-2.4453,-2.5455,-2.6598,-2.7682,-2.8507,-2.8941,-2.9276,-2.977,-3.0465,-3.004,-2.9769,-2.9601,-2.9242,-2.8724,-2.8055,-2.7666,-2.741,-2.7127,-2.5977,-2.5043,-2.4361,-2.4797,-2.3588,-2.1725,-2.219,-2.2473,-2.2615,-2.2258,-2.3257,-2.4678,-2.477,-2.4252,-2.3476,-2.2957,-2.2488,0.0,0.0,-2.3165,-2.4209,-2.4001,-2.4486,-2.4858,-2.4428,-2.4243,-2.4183,-2.4148,-2.4288,-2.3979,0.0,-2.2215,-2.1661,-2.0252,0.0,-2.0266,-1.9787,-2.0458,-2.1608,-2.3212,-2.3944,-2.4772,-2.6055,-2.6176,-2.6267,-2.6487,-2.6499,-2.6487,-2.6449,-2.608,-2.5459,-2.4489,-2.468,-2.384,-2.1733,-2.0845,0.0,0.0,0.0,0.0,0.0,0.0,0.0,0.0,0.0,0.0,0.0,0.0,0.0,0.0,0.0,0.0,0.0,0.0,0.0,0.0,0.0,0.0,0.0,0.0,0.0,0.0,0.0,0.0,-1.7609,-1.9042,0.0,-1.9644,-2.0079,-2.0827,-2.1979,-2.3162,-2.431,-2.5417,-2.6954,-2.8127,-2.8852,-2.97,-3.0432,-3.1063,-3.0684,-3.0651,-3.1087,-3.0756,-3.0241,-2.9693,-3.0005,-2.9352,-2.8035,-2.8169,-2.7896,-2.7289,-2.7004,-2.6283,-2.542,-2.5774,-2.4848,-2.3395,-2.3714,-2.3898,-2.4,-2.426,-2.4746,-2.5342,-2.5467,-2.4948,-2.4246,-2.4355,-2.4082,-2.3777,-2.4071,-2.4082,-2.4182,-2.4987,-2.4576,-2.411,-2.4597,-2.4459,-2.4308,-2.4536,-2.4646,-2.4649,-2.4522,-2.3866,-2.2838,-2.126,-2.1332,-2.1409,-2.0767,-2.18,-2.296,-2.3894,-2.4571,-2.5255,-2.6092,-2.5968,-2.5995,-2.6461,-2.6499,-2.6336,-2.5959,-2.5529,-2.5046,-2.4438,-2.4007,-2.3386,-2.2419,-2.1524,-2.0121,0.0,0.0,0.0,0.0,0.0,0.0,0.0,0.0,0.0,0.0,0.0,0.0,0.0,0.0,0.0,0.0,0.0,0.0,0.0,0.0,0.0,0.0,0.0,0.0,0.0,0.0,-1.8633,-1.9102,-2.0722,-2.1796,-2.1786,-2.2472,-2.338,-2.4501,-2.5573,-2.6589,-2.7403,-2.8703,-2.9747,-3.0466,-3.0797,-3.1383,-3.234,-3.1466,-3.1336,-3.1824,-3.1538,-3.1017,-3.0409,-3.0789,-3.0129,-2.8767,-2.8717,-2.8424,-2.7879,-2.7757,-2.7311,-2.6697,-2.6827,-2.6106,-2.5083,-2.5232,-2.5252,-2.5261,-2.5946,-2.6205,-2.628,-2.6159,-2.583,-2.5469,-2.5622,-2.5557,-2.5543,-2.5944,-2.5368,-2.4938,-2.6106,-2.5333,-2.4481,-2.5241,-2.5061,-2.477,-2.5083,-2.5051,-2.5087,-2.55,-2.493,-2.3995,-2.2865,-2.2941,-2.2914,-2.211,-2.3115,-2.3981,-2.4166,-2.476,-2.5361,-2.5956,-2.5757,-2.5858,-2.6505,-2.6345,-2.6068,-2.579,-2.5147,-2.4644,-2.4283,-2.3491,-2.2814,-2.2257,-2.1151,-2.0248,-1.9635,0.0,0.0,0.0,0.0,0.0,0.0,0.0,0.0,0.0,0.0,0.0,0.0,0.0,0.0,0.0,0.0,0.0,0.0,0.0,0.0,0.0,0.0,0.0,-1.6918,-1.8563,-2.0021,-2.0725,-2.2722,-2.374,-2.2878,-2.4344,-2.5641,-2.6323,-2.7112,-2.8157,-2.957,-2.9735,-3.0335,-3.1465,-3.1123,-3.1496,-3.2613,-3.1771,-3.1844,-3.2901,-3.252,-3.2194,-3.2023,-3.1598,-3.1035,-3.0317,-2.9436,-2.9016,-2.8929,-2.8275,-2.8132,-2.832,-2.8084,-2.7491,-2.6758,-2.6758,-2.6581,-2.6476,-2.7129,-2.7525,-2.7602,-2.691,-2.6966,-2.7228,-2.6802,-2.6977,-2.7359,-2.7668,-2.7184,-2.6799,-2.7459,-2.692,-2.6262,-2.6457,-2.6122,-2.5731,-2.582,-2.5589,-2.5431,-2.5619,-2.536,-2.5144,-2.5095,-2.5099,-2.4797,-2.3852,-2.4341,0.0,-2.4092,-2.4494,-2.5021,-2.5536,-2.5598,-2.5892,-2.6641,-2.6026,-2.5764,-2.6049,-2.5,-2.427,-2.3985,-2.3238,-2.2324,-2.1285,-1.9831,-1.9759,-2.1166,0.0,0.0,0.0,0.0,0.0,0.0,0.0,0.0,0.0,0.0,0.0,0.0,0.0,0.0,0.0,0.0,0.0,0.0,0.0,0.0,0.0,0.0,-1.8416,-1.8319,-2.0034,-2.1625,-2.2532,-2.4038,-2.5024,-2.5072,-2.5904,-2.6831,-2.7822,-2.81,-2.8778,-3.0094,-3.0461,-3.1035,-3.1934,-3.2036,-3.2385,-3.2985,-3.2601,-3.2613,-3.2901,-3.2703,-3.2489,-3.2378,-3.2177,-3.1301,-2.9949,-2.9838,-2.9102,-2.7988,-2.8209,-2.8412,-2.8661,-2.8391,-2.8017,-2.767,-2.7839,-2.8032,-2.8122,-2.8299,-2.8444,-2.8466,-2.8244,-2.8043,-2.7899,-2.8132,-2.8043,-2.7976,-2.8388,-2.782,-2.7272,-2.7985,-2.7307,-2.6485,-2.6667,-2.6551,-2.6358,-2.6394,-2.6537,-2.6724,-2.692,-2.6578,-2.5981,-2.5042,-2.5087,-2.502,-2.4392,-2.4591,0.0,-2.4587,-2.4784,-2.5183,-2.576,-2.5909,-2.6205,-2.6858,-2.634,-2.583,-2.555,-2.4535,-2.3796,-2.3456,-2.3013,-2.2803,-2.279,-2.2813,-2.2688,0.0,0.0,0.0,0.0,0.0,0.0,0.0,0.0,0.0,0.0,0.0,0.0,0.0,0.0,0.0,0.0,0.0,0.0,0.0,0.0,0.0,0.0,-1.9102,-2.0379,-2.0907,-2.1895,-2.3028,-2.4326,-2.542,-2.6277,-2.6777,-2.733,-2.8035,-2.8884,-2.8933,-2.9606,-3.1006,-3.1084,-3.1564,-3.2714,-3.2266,-3.2312,-3.2916,-3.2323,-3.2213,-3.2523,-3.2447,-3.2462,-3.2538,-3.2253,-3.1652,-3.0809,-3.0421,-2.9913,-2.9293,-2.9293,-2.9536,0.0,0.0,0.0,0.0,0.0,-2.9149,-2.9499,-2.9195,-2.9082,-2.9048,-2.8847,-2.8679,-2.8533,-2.8757,-2.8768,-2.8757,-2.9139,-2.8611,-2.806,-2.8714,-2.7996,-2.7186,-2.7389,-2.7187,-2.6981,-2.7172,-2.7256,-2.7397,-2.7582,-2.7446,0.0,-2.577,-2.5578,-2.5382,-2.4905,-2.5162,-2.5215,-2.4741,-2.5073,-2.5501,-2.5851,-2.6054,-2.6416,-2.7061,-2.6519,0.0,0.0,0.0,-2.391,-2.3159,-2.2778,0.0,0.0,0.0,-2.4352,-2.5121,0.0,0.0,0.0,-2.4117,-2.3934,0.0,0.0,0.0,0.0,0.0,0.0,0.0,0.0,0.0,0.0,0.0,0.0,0.0,0.0,0.0,0.0,-2.0916,-2.2208,-2.3868,-2.3815,-2.417,-2.58,-2.6619,-2.7276,-2.792,-2.8538,-2.9121,-2.96,-2.9655,-3.0307,-3.1919,0.0,0.0,0.0,0.0,-3.1635,-3.2514,-3.1476,-3.1302,-3.1988,-3.2043,-3.2338,-3.2753,-3.2269,-3.2079,-3.2158,-3.1114,-3.0969,-3.1451,-3.0844,-3.082,-3.1042,-2.9639,-2.9307,-2.9621,-2.9667,-3.0042,-3.0453,-2.9827,0.0,0.0,-2.9094,-2.9058,-2.9143,-2.8992,-2.9251,-2.9588,-2.9886,-2.9478,-2.9026,-2.9427,-2.8881,-2.8253,-2.8305,-2.8027,-2.7777,-2.8007,-2.7896,-2.7804,-2.7916,-2.8038,-2.7849,-2.699,-2.6424,-2.5916,-2.5462,-2.5828,-2.5788,-2.4747,-2.5325,-2.5871,-2.5998,0.0,0.0,-2.7444,-2.6845,-2.6349,-2.6151,-2.5612,-2.4754,-2.3541,-2.3189,-2.3458,-2.438,-2.4204,-2.5479,-2.8298,-2.804,-2.8645,-3.0009,-2.6158,-2.5838,0.0,0.0,0.0,0.0,0.0,0.0,0.0,0.0,0.0,0.0,0.0,0.0,0.0,0.0,0.0,-2.125,-2.2298,-2.3373,-2.4579,-2.4639,-2.5023,-2.6027,-2.676,-2.7506,-2.8314,-2.8723,-2.9238,-3.0019,-2.999,-3.0544,-3.1919,-3.1456,-3.1553,-3.2445,-3.1844,-3.1564,-3.164,-3.1409,-3.1543,-3.1988,0.0,0.0,-3.3445,-3.3427,-3.3009,-3.2332,-3.1936,-3.1417,-3.0805,-3.0666,-3.0567,-3.0513,-3.0805,-3.0697,-3.0406,-3.0615,-3.0514,-3.0262,-3.0114,-3.008,-3.0068,-2.9977,-2.9841,-2.9772,-2.9886,-2.9886,0.0,-3.0091,-3.0056,-2.9851,-2.9551,-2.9619,-2.9562,-2.8749,-2.9089,-2.9347,-2.8574,-2.8965,-2.93,-2.8936,-2.845,-2.8035,-2.7849,-2.7387,-2.6801,-2.6126,-2.5831,-2.5619,-2.5407,-2.5407,-2.5774,-2.6683,-2.7054,-2.7696,-2.8821,-2.833,-2.802,-2.8118,-2.7893,-2.739,-2.6664,-2.7128,-2.704,-2.6278,-2.7244,-2.8153,-2.8933,-2.9497,-3.0311,-3.1324,-3.0164,-2.976,0.0,0.0,0.0,0.0,0.0,0.0,0.0,0.0,0.0,0.0,0.0,-1.9127,0.0,0.0,-2.1652,-2.3079,-2.371,-2.4298,-2.5198,-2.5284,-2.5475,-2.5987,-2.6781,-2.7636,-2.8555,-2.9113,-2.979,-3.0611,-3.0575,-3.1014,-3.2079,-3.1657,-3.1564,-3.2092,-3.1491,-3.1137,-3.1029,-3.0801,-3.1073,-3.1923,-3.2088,-3.2667,-3.3614,-3.3569,-3.341,-3.3092,-3.2873,-3.2501,-3.2112,-3.1975,-3.2022,-3.2192,-3.2541,-3.1772,-3.0516,-3.1154,-3.1074,-3.0647,-3.0892,-3.0845,-3.0613,-3.0594,-3.0433,-3.0238,-3.0205,-3.0136,-3.0045,-3.017,-3.0216,-3.0158,-2.9917,-3.0032,-3.0079,-2.955,-2.9748,-2.9983,-2.9547,-2.9837,-3.0151,-3.0112,-2.9816,-2.9563,-2.9364,-2.8913,-2.8035,-2.6447,-2.6482,-2.6602,-2.6327,-2.6714,-2.7216,-2.7802,-2.8192,-2.8647,-2.9235,-2.8843,-2.8673,-2.8911,-2.8597,-2.829,-2.8071,-2.8405,-2.8451,-2.8166,-2.8981,-2.9609,-2.9997,-3.0662,-3.1467,-3.2307,-3.219,-3.191,0.0,0.0,0.0,0.0,0.0,0.0,0.0,0.0,-1.8222,-1.9401,-2.03,-2.1148,-2.2073,-2.2596,-2.3307,-2.4737,-2.4929,-2.515,-2.5762,-2.5888,-2.5946,-2.5953,-2.6659,-2.7584,-2.8605,-2.9352,-3.0097,-3.084,-3.0983,-3.1313,-3.1962,-3.1758,-3.1634,-3.1719,-3.1071,-3.0689,-3.066,-3.0422,-3.0852,-3.1895,-3.2154,-3.2806,-3.3784,-3.3777,-3.3868,-3.4031,-3.3868,-3.3739,-3.3759,-3.3524,-3.3648,-3.4004,-3.4004,-3.2643,-3.0748,-3.1725,-3.1743,-3.1292,-3.1645,-3.1447,-3.1024,-3.1155,-3.0915,-3.0489,-3.0468,-3.0342,-3.0261,-3.0216,-3.0261,-3.0352,-3.0306,-3.0332,-3.037,-3.0264,-3.0338,-3.038,-3.0356,-3.0476,-3.068,-3.0997,-3.1009,-3.0882,-3.0505,-3.0093,-2.9113,-2.703,-2.7391,-2.7703,-2.7326,-2.8109,-2.8815,-2.907,-2.933,-2.9532,-2.9673,-2.943,-2.9449,-2.9866,-2.9524,-2.9315,-2.9292,-2.9292,-2.9401,-2.9692,-3.0011,-3.0466,-3.1074,-3.1626,-3.2317,-3.3097,-3.3312,-3.3223,-1.6655,-1.6538,-1.6983,-1.8434,-1.8325,-1.8494,0.0,0.0,-2.1559,-2.2231,-2.3044,-2.3633,-2.3537,-2.3824,-2.4497,-2.5689,-2.5833,-2.5952,-2.6259,-2.6641,-2.6652,-2.6162,-2.6488,-2.7217,-2.8227,-2.885,-2.9473,-3.0091,-3.0641,-3.0982,-3.1033,-3.1299,-3.1267,-3.0853,-3.0739,-3.0587,-3.0423,-3.1106,-3.1646,-3.2156,-3.341,-3.4175,-3.4412,-3.5179,-3.5294,-3.4962,-3.474,-3.4541,-3.4271,-3.4028,-3.3947,-3.4004,-3.4004,-3.3165,-3.1995,-3.2826,-3.2613,-3.195,-3.1819,-3.1467,-3.111,-3.1761,-3.1182,-3.0376,-3.1078,-3.0904,-3.0532,-3.0261,-3.0556,-3.0883,-3.0623,-3.0857,-3.106,-3.0597,-3.1017,-3.1284,-3.0332,-3.0785,-3.1289,-3.0905,-3.0723,-3.0493,-2.998,-2.9829,-2.9528,-2.8737,-2.8298,-2.8108,-2.8214,-2.8494,-2.9183,-3.0361,-3.0186,-3.0315,-3.0998,-3.1196,-3.1603,-3.2334,-3.2492,-3.2331,-3.1838,-3.1811,-3.1314,-3.0323,-3.0609,-3.1102,-3.1695,-3.2286,-3.2999,-3.3782,-3.3925,-3.4153,-1.8312,-1.848,0.0,0.0,-1.9868,-2.0562,-2.2328,-2.27,-2.3001,-2.413,-2.4653,-2.4883,-2.4851,-2.5006,-2.5373,0.0,-2.6227,-2.6366,-2.6683,-2.6852,-2.6606,-2.5937,-2.6186,-2.6899,-2.8124,-2.8702,-2.9284,-2.9924,-3.0232,-3.0393,-3.0393,-3.067,-3.0621,-3.012,-3.0517,-3.0579,-3.0208,-3.0829,-3.1593,-3.248,-3.3225,-3.3999,-3.4813,-3.5301,-3.5574,-3.5511,-3.5279,-3.5157,-3.5005,-3.4618,-3.4636,-3.4877,-3.4877,-3.4598,-3.4207,-3.3691,-3.2789,-3.1923,-3.2321,-3.2267,-3.2077,-3.1785,-3.142,-3.1054,-3.0629,-3.0536,-3.0578,-3.0442,-3.0691,-3.1043,-3.1177,-3.1474,-3.1698,-3.1484,-3.1795,-3.1994,-3.1354,-3.1484,-3.1797,-3.1877,-3.1866,-3.1697,-3.1257,-3.1027,-3.0703,-3.0136,-2.9618,-2.934,-2.9552,-3.0021,-3.0712,-3.1759,-3.1834,-3.1841,-3.1925,-3.2471,-3.2872,-3.2952,-3.3352,-3.3471,-3.3189,-3.2972,-3.2609,-3.2118,-3.2102,-3.2291,-3.2674,-3.3514,-3.4154,-3.46,-3.5134,-3.5587,-1.9249,0.0,0.0,-2.0216,-2.1125,-2.2206,-2.3209,-2.3691,-2.4293,-2.5618,-2.5924,-2.5938,-2.5826,-2.5798,-2.5887,-2.633,-2.6497,-2.6744,-2.718,-2.7132,-2.6784,-2.6093,-2.6124,-2.6543,-2.7477,-2.8102,-2.8696,-2.9291,-2.9715,-2.9902,-2.9902,-3.0161,-3.0158,-2.9842,-3.0404,-3.0568,-3.0216,-3.1097,-3.2015,-3.2921,-3.3559,-3.4337,-3.5202,-3.5533,-3.5742,-3.5938,-3.5779,-3.5726,-3.5703,-3.5347,-3.5416,-3.5726,-3.5726,-3.5714,-3.5543,-3.4357,-3.3294,-3.2493,-3.2846,-3.2889,-3.2723,-3.2191,-3.1995,-3.1711,-3.0882,-3.0823,-3.099,-3.0759,-3.096,-3.1314,-3.1675,-3.1999,-3.2275,-3.2418,-3.2496,-3.2518,-3.2253,-3.2223,-3.2288,-3.2624,-3.2766,-3.2709,-3.2357,-3.2108,-3.1815,-3.1388,-3.0994,-3.0714,-3.0689,-3.1487,-3.2241,-3.2659,-3.3028,-3.3079,-3.2676,-3.3306,-3.3646,-3.3566,-3.3908,-3.4151,-3.4151,-3.3946,-3.3745,-3.3567,-3.3545,-3.3625,-3.3831,-3.4647,-3.5132,-3.5373,-3.6062,-3.6579,0.0,0.0,-2.0429,-2.1004,-2.2011,-2.3199,-2.4445,-2.5255,-2.593,-2.669,-2.7013,-2.6966,-2.6306,-2.5946,-2.5946,-2.6398,-2.682,-2.7242,-2.7738,-2.7762,-2.7532,-2.683,-2.6408,-2.6146,0.0,-2.6786,-2.7414,-2.7584,-2.8915,-2.9709,-2.9709,-2.9984,-3.0085,-3.0075,-3.0378,-3.0518,-3.0507,-3.2463,-3.3453,-3.3486,-3.5005,-3.5708,-3.5797,-3.6114,-3.6277,-3.6266,-3.6254,-3.6309,-3.6243,-3.6286,-3.6286,-3.6309,-3.6309,-3.5956,-3.542,-3.4934,-3.4507,-3.415,-3.3513,-3.2948,-3.2641,-3.3372,-3.2948,-3.2158,-3.2348,-3.2228,-3.1914,-3.1203,-3.1318,-3.1737,-3.2039,-3.2297,-3.2635,-3.314,-3.3046,-3.2783,-3.2771,-3.2744,-3.2667,-3.2711,-3.2896,-3.2978,-3.2663,-3.259,-3.251,-3.2365,-3.2354,-3.2121,-3.1539,-3.2697,-3.3313,-3.2751,-3.3409,-3.3701,-3.3327,-3.3547,-3.3997,-3.4707,-3.4748,-3.4761,-3.4761,-3.501,-3.4892,-3.4276,-3.4649,-3.4948,-3.5133,-3.55,-3.5791,-3.5971,-3.6422,-3.6684,0.0,0.0,-2.117,-2.2424,-2.3328,-2.4185,-2.5108,-2.5844,-2.6423,-2.6836,-2.673,-2.6384,-2.6034,-2.5591,-2.5484,-2.5983,-2.6426,-2.686,-2.7282,-2.72,-2.6771,-2.5802,-2.5881,0.0,0.0,0.0,0.0,-2.7155,-2.8025,-2.8928,-2.9742,-3.0346,-3.0921,-3.1389,-3.2013,-3.2281,-3.2281,-3.3298,-3.3983,-3.4318,-3.5316,-3.5906,-3.6114,-3.6277,-3.632,-3.632,-3.632,-3.6375,-3.6592,-3.6592,-3.6646,-3.6773,-3.65,-3.6477,-3.6447,-3.5637,-3.5503,-3.5463,-3.4032,-3.3611,-3.3765,-3.3703,-3.3473,-3.3136,-3.3064,-3.3066,-3.3053,-3.2633,-3.264,-3.2851,-3.3275,-3.3214,-3.3152,-3.3669,-3.352,-3.3266,-3.3093,-3.2889,-3.2754,-3.2939,-3.3154,-3.3148,-3.2663,-3.2823,-3.2918,-3.2631,-3.2958,-3.3141,-3.2945,-3.3612,-3.4045,-3.3849,-3.4334,-3.4472,-3.3953,-3.4579,-3.4966,-3.4802,-3.5168,-3.5385,-3.5385,-3.5242,-3.5098,-3.5033,-3.4913,-3.5004,-3.5337,-3.5895,-3.6279,-3.6478,-3.7168,-3.7593,-2.1428,-2.1793,-2.2099,-2.3342,-2.4259,-2.5047,-2.5676,-2.61,-2.6403,-2.663,-2.6239,-2.5726,-2.5388,-2.4825,-2.4635,-2.5335,-2.5635,-2.5989,-2.6613,-2.6693,-2.6388,-2.5497,-2.5923,-2.6121,0.0,0.0,0.0,-2.7237,-2.8354,-2.9408,-3.0171,-3.1058,-3.1778,-3.224,-3.2987,-3.3308,-3.3193,-3.4012,-3.4609,-3.5104,-3.5693,-3.6114,-3.632,-3.619,-3.6268,-3.6417,-3.6167,-3.627,-3.6594,-3.6407,-3.6432,-3.6503,-3.625,-3.632,-3.6508,-3.593,-3.5958,-3.6036,-3.4532,-3.44,-3.4715,-3.4076,-3.41,-3.4217,-3.3431,-3.3541,-3.3875,-3.3406,-3.3365,-3.3534,-3.4138,-3.3993,-3.3834,-3.4293,-3.4205,-3.401,-3.3942,-3.3749,-3.3552,-3.3481,-3.366,-3.3696,-3.3219,-3.3408,-3.3567,-3.3352,-3.3639,-3.3809,-3.3613,-3.4071,-3.4476,-3.4698,-3.5059,-3.5163,-3.4818,-3.5507,-3.567,-3.5154,-3.56,-3.5844,-3.5844,-3.5715,-3.5705,-3.5861,-3.5742,-3.585,-3.6187,-3.6637,-3.6973,-3.725,-3.778,-3.8104,-2.162,-2.2296,-2.3093,-2.382,-2.4743,-2.5589,-2.6069,-2.5997,-2.5903,-2.6162,-2.5597,-2.4939,0.0,0.0,-2.3514,-2.4545,-2.4573,-2.4846,-2.5788,-2.6285,-2.6422,0.0,0.0,0.0,0.0,0.0,0.0,-2.7942,0.0,-3.103,-3.1113,-3.204,-3.2634,-3.2656,-3.3396,-3.3656,-3.3357,-3.4555,-3.5364,-3.5817,-3.6157,-3.6309,-3.6274,-3.6005,-3.6212,-3.6607,-3.5893,-3.5909,-3.632,-3.5827,-3.5627,-3.5627,-3.5592,-3.5603,-3.5667,-3.5928,-3.6042,-3.5955,-3.5179,-3.5243,-3.5514,-3.4548,-3.4878,-3.5329,-3.3648,-3.3767,-3.4363,-3.367,-3.3603,-3.389,-3.4655,-3.4607,-3.4567,-3.5041,-3.5013,-3.4903,-3.5149,-3.5127,-3.4933,-3.4388,-3.4479,-3.4517,-3.4218,-3.4298,-3.4397,-3.4397,-3.4397,-3.4214,-3.3705,-3.4084,-3.4633,-3.5234,-3.5473,-3.5672,-3.5867,-3.6106,-3.61,-3.571,-3.5938,-3.6086,-3.6086,-3.6484,-3.6682,-3.6721,-3.7084,-3.738,-3.7586,-3.7586,-3.7801,-3.8165,-3.8194,-3.8335,-2.2819,-2.3295,-2.3827,-2.4889,-2.5335,-2.5482,-2.5437,-2.5257,-2.4994,-2.4745,-2.3991,-2.3299,0.0,0.0,0.0,-2.3156,-2.395,0.0,-2.5788,-2.631,0.0,-2.6422,0.0,-2.8015,-2.8015,-2.9747,0.0,0.0,-3.1058,-3.1623,-3.2392,-3.3379,-3.418,-3.4713,-3.4914,-3.5218,-3.5531,-3.5848,-3.5848,-3.5554,-3.6094,-3.6071,-3.5703,-3.5844,-3.595,-3.6108,-3.5741,-3.5789,-3.609,-3.5947,-3.6002,-3.6171,-3.5776,-3.586,-3.6159,-3.6066,-3.6365,-3.6864,-3.6437,-3.6362,-3.6457,-3.643,-3.62,-3.5967,-3.6293,-3.616,-3.5891,-3.5888,-3.5525,-3.5125,-3.534,-3.4884,-3.4567,-3.5041,-3.5155,-3.5149,-3.5369,-3.5264,-3.5092,-3.5162,-3.4953,-3.4848,-3.4962,-3.4656,-3.4397,-3.4397,-3.4397,-3.4345,-3.4201,-3.4306,-3.4633,-3.5234,-3.5244,-3.5402,-3.5869,-3.5883,-3.5805,-3.5723,-3.5938,-3.6086,-3.6086,-3.6325,-3.6563,-3.6721,-3.6968,-3.7187,-3.738,-3.738,-3.7495,-3.7777,-3.8289,-3.8621,-2.4082,-2.4249,-2.4534,-2.5505,-2.5372,-2.5023,-2.4898,-2.4387,-2.3739,-2.3039,-2.2199,0.0,0.0,0.0,0.0,0.0,0.0,0.0,-2.5292,-2.6389,-2.7139,0.0,-2.8826,0.0,-3.0153,-3.1702,-3.2771,0.0,-3.2784,-3.2943,-3.3532,-3.4398,-3.5062,-3.5508,-3.5738,-3.599,-3.632,-3.632,-3.6067,-3.5679,-3.5968,-3.5948,-3.5555,-3.5584,-3.5699,-3.5927,0.0,-3.5506,-3.5987,-3.5609,-3.5613,-3.5838,-3.5536,-3.5609,-3.5912,-3.6099,-3.6452,-3.685,-3.679,-3.7027,-3.7284,-3.6928,-3.6964,-3.7024,-3.678,-3.6713,-3.6666,-3.6386,-3.5926,-3.5574,-3.5606,-3.526,-3.5002,-3.5295,-3.5482,-3.5637,-3.594,-3.5978,-3.5941,-3.5773,-3.5405,-3.5037,-3.4904,-3.462,-3.4397,-3.4397,-3.4397,-3.4397,-3.4397,-3.4397,-3.4633,-3.5234,-3.5294,-3.548,-3.5883,-3.5949,-3.5886,-3.5696,-3.5938,-3.6126,-3.6246,-3.6445,-3.6628,-3.6811,-3.7109,-3.7303,-3.7419,-3.7495,-3.7649,-3.7877,-3.8174,-3.8409,-2.5199,-2.5133,-2.5187,-2.5737,-2.5202,-2.4466,-2.4385,-2.3408,-2.2307,-2.1366,0.0,-1.9758,-1.9587,0.0,-2.0331,-2.1607,0.0,-2.3673,-2.4808,-2.6522,-2.7905,-2.8623,-3.0525,-3.2005,-3.2498,-3.3521,-3.4234,-3.4498,-3.4607,-3.4619,-3.455,-3.5188,-3.5569,-3.5611,-3.6048,-3.6332,-3.632,-3.6251,-3.6137,-3.584,-3.584,-3.5742,-3.5498,-3.5331,-3.5518,-3.5887,-3.5207,-3.5283,-3.588,-3.5162,-3.503,-3.5271,-3.5271,-3.5271,-3.5332,-3.61,-3.637,-3.6395,-3.6699,-3.7211,-3.7653,-3.6843,-3.7339,-3.8004,-3.6428,-3.6559,-3.703,-3.6054,-3.5745,-3.5722,-3.5669,-3.5624,-3.562,-3.562,-3.586,-3.6193,-3.6628,-3.7015,-3.7031,-3.6348,-3.5783,-3.5221,-3.462,-3.445,-3.4397,-3.4397,-3.4397,-3.4397,-3.4397,-3.4397,-3.4633,-3.5276,-3.5542,-3.5741,-3.5965,-3.6188,-3.6182,-3.571,-3.5938,-3.6206,-3.6405,-3.6603,-3.6772,-3.6993,-3.738,-3.7586,-3.7572,-3.7777,-3.7967,-3.8127,-3.8039,-3.8083,-2.562,-2.5618,-2.5737,-2.5865,-2.5202,-2.4343,-2.3731,-2.2391,0.0,0.0,0.0,-1.8589,-1.8368,-1.875,0.0,-2.0597,0.0,0.0,0.0,0.0,-2.8062,0.0,0.0,0.0,0.0,0.0,0.0,0.0,0.0,-3.5776,-3.5352,-3.5606,-3.5879,-3.614,-3.622,-3.6429,-3.6646,-3.6175,-3.5858,-3.5657,-3.5641,-3.5423,-3.4945,-3.5354,-3.5565,-3.5663,-3.5503,0.0,-3.5659,-3.5513,-3.5464,-3.5524,-3.5524,-3.5524,-3.5572,-3.5923,-3.6087,-3.6136,-3.6628,-3.6762,-3.6756,-3.726,-3.7555,-3.7788,-3.7894,-3.7597,-3.7139,-3.6952,-3.6594,-3.6213,-3.6012,-3.5771,-3.5668,-3.5872,-3.6146,-3.6465,-3.6922,-3.7413,-3.7599,-3.6985,-3.6371,-3.5796,-3.5234,-3.4724,-3.4397,-3.4397,-3.4397,-3.4397,-3.4397,-3.4397,-3.4703,-3.5476,-3.5783,-3.5993,-3.623,-3.6425,-3.632,-3.575,-3.5938,-3.6206,-3.6405,-3.6603,-3.6772,-3.6993,-3.738,-3.7495,-3.7341,-3.7739,-3.7815,-3.7701,-3.8231,-3.8513,-2.6319,-2.6259,-2.6231,-2.5937,-2.5114,-2.4054,-2.2956,0.0,0.0,0.0,0.0,-1.8008,-1.7686,0.0,0.0,0.0,0.0,0.0,0.0,0.0,0.0,0.0,0.0,0.0,0.0,0.0,0.0,0.0,0.0,-3.6011,-3.5921,-3.5737,-3.5839,-3.632,-3.6187,-3.6337,-3.67,-3.6563,-3.6262,-3.5786,-3.5809,-3.5536,-3.5011,-3.5257,-3.5453,-3.5588,-3.5586,0.0,-3.5812,-3.5668,-3.5668,-3.5812,-3.5812,-3.5716,-3.562,-3.5908,-3.5925,-3.5807,-3.5904,-3.6162,-3.6488,-3.7023,-3.7387,-3.7664,-3.8093,-3.7927,-3.7567,-3.7296,-3.6717,-3.6142,-3.6037,-3.6027,-3.6135,-3.6522,-3.7036,-3.7433,-3.7325,-3.7611,-3.773,-3.7116,-3.6776,-3.6397,-3.5809,-3.5247,-3.4868,-3.4868,-3.4593,-3.4397,-3.4397,-3.4785,-3.5094,-3.5178,-3.5765,-3.6082,-3.587,-3.6305,-3.6347,-3.575,-3.5938,-3.6206,-3.6405,-3.6603,-3.6772,-3.6993,-3.738,-3.7495,-3.7303,-3.7801,-3.7877,-3.7625,-3.8054,-3.8236,-2.7013,-2.6956,-2.6671,-2.6156,-2.5321,-2.4187,-2.271,-2.1464,0.0,0.0,-1.8186,-1.7658,-1.7389,0.0,0.0,0.0,0.0,0.0,0.0,0.0,0.0,0.0,0.0,0.0,0.0,0.0,0.0,0.0,0.0,0.0,-3.6266,-3.5941,-3.5972,-3.6363,-3.6275,-3.6365,-3.6645,-3.6808,-3.6542,-3.5926,-3.5869,-3.5629,-3.5223,-3.532,-3.5476,-3.5668,-3.5764,0.0,0.0,-3.5847,-3.586,-3.6015,-3.6051,-3.5908,-3.5716,-3.6003,-3.586,-3.5572,-3.5416,-3.5649,-3.6137,-3.6525,-3.7083,-3.7664,-3.7976,-3.8064,-3.7868,-3.7332,-3.6756,-3.623,-3.627,-3.6394,-3.6739,-3.7313,-3.799,-3.8364,-3.7958,-3.7963,-3.79,-3.7312,-3.6985,-3.6619,-3.6031,-3.5469,-3.5103,-3.5103,-3.4698,-3.445,-3.458,-3.5184,-3.5458,-3.5077,-3.5917,-3.6274,-3.5709,-3.6252,-3.6388,-3.5804,-3.5992,-3.6206,-3.6445,-3.6642,-3.6772,-3.6993,-3.7341,-3.7419,-3.7226,-3.7787,-3.7863,-3.7457,-3.7701,-3.7777,-2.7385,-2.7505,-2.7358,-2.6703,-2.6156,-2.5296,-2.3663,0.0,0.0,0.0,-1.8427,-1.7523,-1.7479,-1.779,0.0,0.0,0.0,0.0,0.0,0.0,0.0,0.0,0.0,0.0,0.0,0.0,0.0,0.0,0.0,0.0,-3.632,-3.6491,-3.6599,-3.6646,-3.6869,-3.6819,-3.6409,-3.6239,-3.595,-3.5627,-3.5404,-3.5272,-3.5223,-3.5716,-3.592,-3.5968,-3.6228,0.0,0.0,-3.6323,-3.6193,-3.6015,-3.6275,-3.6193,-3.6015,-3.6275,-3.6038,-3.562,-3.586,-3.5501,-3.5089,-3.5818,-3.6792,-3.7716,-3.8198,-3.8161,-3.7911,-3.7324,-3.712,-3.7094,-3.7079,-3.7107,-3.7307,-3.8087,-3.8528,-3.8794,-3.8997,-3.8821,-3.8475,-3.7926,-3.6933,-3.6018,-3.5469,-3.4881,-3.4476,-3.4476,-3.4437,-3.4593,-3.5142,-3.5417,-3.5643,-3.5787,-3.6588,-3.6949,-3.6537,-3.6564,-3.6443,-3.6073,-3.6086,-3.6286,-3.6682,-3.6682,-3.6772,-3.6993,-3.7226,-3.7226,-3.7017,-3.7457,-3.7457,-3.707,-3.7264,-3.7341,-2.7106,-2.7515,-2.7698,-2.7179,-2.6331,-2.5272,-2.3909,0.0,0.0,-1.9585,-1.8751,-1.8078,-1.7578,-1.8005,-1.8663,0.0,0.0,0.0,0.0,0.0,0.0,0.0,0.0,0.0,0.0,0.0,0.0,0.0,0.0,0.0,-3.7101,-3.6689,-3.6666,-3.6904,-3.6932,-3.6985,-3.7127,-3.7,-3.6768,-3.6337,-3.6063,-3.5831,-3.5668,-3.5908,-3.6098,-3.6228,-3.637,0.0,0.0,-3.6405,-3.6323,-3.6228,-3.6358,-3.6228,-3.6015,-3.6098,-3.5908,-3.562,-3.5716,-3.5416,-3.5163,-3.5794,-3.6156,-3.6563,-3.7408,-3.7839,-3.7938,-3.7733,-3.7549,-3.7454,-3.767,-3.8077,-3.8592,-3.9003,-3.9188,-3.9295,-3.9423,-3.9211,-3.899,-3.8924,-3.8253,-3.7599,-3.739,-3.6279,-3.5417,-3.5417,-3.5142,-3.5025,-3.5273,-3.5802,-3.6227,-3.6428,-3.6925,-3.6882,-3.6103,-3.6388,-3.6388,-3.5885,-3.5992,-3.6246,-3.6524,-3.6642,-3.6772,-3.6993,-3.7187,-3.7187,-3.6978,-3.738,-3.738,-3.7017,-3.7341,-3.7457,-2.6472,-2.7197,-2.7615,-2.7179,-2.6486,-2.5574,0.0,0.0,0.0,-1.9927,-1.926,-1.8611,-1.7768,-1.8357,-1.9124,0.0,0.0,0.0,0.0,0.0,0.0,0.0,0.0,0.0,0.0,0.0,0.0,0.0,0.0,0.0,0.0,-3.7261,-3.7132,-3.711,-3.7226,-3.7228,-3.7104,-3.7342,-3.7136,-3.6441,-3.6321,-3.6183,-3.6015,-3.6098,-3.6228,-3.6405,-3.6405,0.0,0.0,-3.6452,-3.6452,-3.6405,-3.6452,-3.6323,-3.6146,-3.6193,-3.6003,-3.5716,-3.58,-3.5608,-3.5381,-3.5758,-3.5843,-3.5961,-3.6659,-3.7256,-3.7781,-3.7938,-3.8105,-3.8212,-3.8209,-3.8926,-3.9677,-3.9726,-3.9611,-3.9543,-3.9599,-3.9201,-3.8907,-3.9112,-3.8488,-3.7963,-3.7853,-3.6798,-3.5983,-3.5887,-3.5678,-3.56,-3.5783,-3.6122,-3.6471,-3.6774,-3.696,-3.677,-3.6022,-3.6198,-3.6212,-3.5831,-3.5992,-3.6206,-3.6405,-3.6603,-3.6786,-3.6915,-3.7109,-3.7148,-3.6978,-3.7264,-3.7264,-3.7017,-3.7341,-3.7586,-2.5582,-2.6462,-2.694,-2.6672,-2.6745,-2.6497,0.0,0.0,0.0,-2.1084,-1.9986,-1.8935,-1.8063,-1.8869,-1.9565,-1.925,0.0,0.0,0.0,0.0,0.0,0.0,0.0,0.0,0.0,0.0,0.0,0.0,0.0,0.0,0.0,-3.8221,-3.827,-3.7216,-3.7972,-3.7643,-3.6013,-3.6823,-3.6653,-3.5633,-3.5872,-3.6015,-3.6015,-3.6275,-3.6405,0.0,0.0,0.0,0.0,-3.6628,-3.6581,-3.6405,-3.6628,-3.6581,-3.6405,-3.6628,-3.6405,-3.6015,-3.6323,-3.6038,-3.562,-3.562,-3.5941,-3.6321,-3.6087,-3.6565,-3.7312,-3.7829,-3.881,-3.9541,-3.8923,-3.9655,-4.0402,-4.0158,-3.9664,-3.9384,-3.9658,-3.8835,-3.8005,-3.8005,-3.7116,-3.6212,-3.5895,-3.5836,-3.5703,-3.5348,-3.5757,-3.6305,-3.6907,-3.6462,-3.6284,-3.6731,-3.6817,-3.6748,-3.6604,-3.6062,-3.5817,-3.6086,-3.6086,-3.6206,-3.6405,-3.6603,-3.6721,-3.6721,-3.6875,-3.6978,-3.6978,-3.6978,-3.6978,-3.6978,-3.7226,-3.7495,-2.4566,-2.5274,-2.5891,-2.5873,-2.5212,-2.4492,-2.4175,0.0,0.0,0.0,-2.0169,-1.9744,-1.8187,-1.925,-2.049,-2.085,0.0,0.0,0.0,0.0,0.0,0.0,0.0,0.0,0.0,0.0,0.0,0.0,0.0,0.0,0.0,-3.7505,-3.7621,-3.7463,-3.7892,-3.7717,-3.6835,-3.6875,-3.6763,-3.6417,-3.632,-3.6275,-3.6275,-3.6358,-3.6405,0.0,0.0,0.0,0.0,-3.6675,-3.6769,-3.6875,-3.6968,-3.6922,-3.6875,-3.6968,-3.6781,-3.6499,-3.6581,-3.6263,-3.5798,-3.5439,-3.5579,-3.583,-3.577,-3.6431,-3.7282,-3.7819,-3.8524,-3.9074,-3.9151,-3.9551,-3.9962,-4.007,-3.9854,-3.9689,-4.0134,-3.9802,-3.9382,-3.921,-3.8518,-3.786,-3.7381,-3.676,-3.6302,-3.6209,-3.6473,-3.6632,-3.641,-3.6372,-3.6471,-3.6774,-3.6585,-3.6517,-3.6577,-3.6822,-3.6782,-3.6443,-3.6457,-3.6634,-3.7013,-3.6706,-3.7032,-3.819,-3.7428,-3.7189,-3.7611,-3.7189,-3.707,-3.7226,-3.7419,-3.7663,0.0,-2.4128,-2.4777,-2.4907,-2.4098,0.0,0.0,0.0,0.0,0.0,0.0,0.0,0.0,0.0,0.0,0.0,0.0,0.0,0.0,0.0,0.0,0.0,0.0,0.0,0.0,0.0,0.0,0.0,0.0,0.0,0.0,-3.6698,-3.6828,-3.6527,-3.7302,-3.7267,-3.6455,-3.6562,-3.6657,-3.6645,-3.6486,-3.6304,-3.6056,-3.615,-3.6083,0.0,0.0,0.0,0.0,-3.6879,-3.7108,-3.7261,-3.7261,-3.7261,-3.7261,-3.7261,-3.7062,-3.6862,-3.6862,-3.6454,-3.595,-3.5731,-3.5682,-3.5764,-3.5847,-3.6653,-3.7512,-3.7647,-3.8315,-3.9,-3.8945,-3.9315,-3.9736,-3.9929,-3.9688,-3.9486,-3.9829,-3.9614,-3.9183,-3.8825,-3.8479,-3.8044,-3.7467,-3.7055,-3.678,-3.6741,-3.7104,-3.7207,-3.6828,-3.6827,-3.6915,-3.712,-3.7045,-3.7086,-3.7241,-3.739,-3.7323,-3.6971,-3.6958,-3.7125,-3.7511,-3.7234,-3.7479,-3.8401,-3.7962,-3.7765,-3.7906,-3.7512,-3.7447,-3.7643,-3.7609,-3.7701,0.0,0.0,0.0,0.0,0.0,0.0,0.0,0.0,0.0,0.0,0.0,0.0,0.0,0.0,0.0,0.0,0.0,0.0,0.0,0.0,0.0,0.0,0.0,0.0,0.0,0.0,0.0,0.0,0.0,0.0,0.0,-3.5893,-3.5915,-3.4799,-3.6309,-3.6492,-3.5155,-3.5925,-3.6355,-3.6355,-3.638,-3.6116,-3.5542,-3.5797,-3.5631,0.0,0.0,0.0,0.0,-3.7129,-3.7466,-3.7505,-3.7505,-3.7505,-3.7505,-3.7505,-3.7307,-3.7062,-3.7062,-3.6577,-3.5991,-3.6288,-3.6203,-3.6001,-3.631,-3.7084,-3.777,-3.7317,-3.8135,-3.9022,-3.8488,-3.8966,-3.9572,-3.9572,-3.922,-3.8919,-3.8919,-3.8442,-3.7902,-3.7349,-3.7211,-3.6991,-3.6427,-3.6762,-3.7068,-3.7007,-3.7502,-3.7887,-3.7848,-3.759,-3.7471,-3.7692,-3.7943,-3.8175,-3.8434,-3.7933,-3.7594,-3.7567,-3.7596,-3.7723,-3.7962,-3.8131,-3.8076,-3.7834,-3.8569,-3.8594,-3.7906,-3.7948,-3.8054,-3.8153,-3.7809,-3.7744,-2.2928,0.0,-2.241,0.0,0.0,0.0,0.0,0.0,0.0,0.0,0.0,0.0,0.0,0.0,0.0,0.0,0.0,0.0,0.0,0.0,0.0,0.0,0.0,0.0,0.0,0.0,0.0,0.0,0.0,0.0,0.0,-3.5854,-3.5624,-3.4504,-3.5631,-3.5804,-3.4835,-3.5408,-3.5683,-3.5696,-3.6332,-3.6349,-3.5831,-3.6093,-3.589,0.0,0.0,0.0,-3.6535,-3.6722,-3.7195,-3.7808,-3.7808,-3.7703,-3.7505,-3.7505,-3.7201,-3.6815,-3.6815,-3.6599,-3.6276,-3.6367,-3.6034,-3.5725,-3.6232,-3.6598,-3.6776,-3.685,-3.7407,-3.7991,-3.7804,-3.8116,-3.8404,-3.8404,-3.8642,-3.8919,-3.8919,-3.8768,-3.8492,-3.7927,-3.7475,-3.7008,-3.6471,-3.6786,-3.7103,-3.7068,-3.7566,-3.773,-3.7273,-3.7269,-3.7444,-3.7652,-3.793,-3.8394,-3.9017,-3.8966,-3.8695,-3.8247,-3.8378,-3.8593,-3.8806,-3.8588,-3.8922,-3.9943,-3.9732,-3.9016,-3.7906,-3.8397,-3.8265,-3.7515,-3.8051,-3.8159,-2.2358,-2.2425,-2.2659,-2.2706,-2.1953,-2.1539,0.0,0.0,0.0,0.0,0.0,0.0,0.0,0.0,0.0,0.0,0.0,0.0,0.0,0.0,0.0,0.0,0.0,0.0,0.0,0.0,0.0,0.0,0.0,0.0,0.0,-3.5284,-3.511,-3.4419,-3.4969,-3.5018,-3.4557,-3.5186,-3.5667,-3.6045,-3.6236,-3.6121,-3.5678,-3.5949,-3.5633,0.0,0.0,0.0,-3.6371,-3.6657,-3.7215,-3.79,-3.79,-3.7808,-3.7703,-3.7703,-3.7505,-3.7214,-3.6968,-3.6675,-3.6405,-3.6405,-3.6157,-3.6019,-3.6571,-3.658,-3.6438,-3.6582,-3.6981,-3.7405,-3.7405,-3.754,-3.7688,-3.7952,-3.8052,-3.809,-3.809,-3.809,-3.7976,-3.7495,-3.7404,-3.7298,-3.6977,-3.7121,-3.7307,-3.7459,-3.7703,-3.7782,-3.7456,-3.7674,-3.7931,-3.8109,-3.8434,-3.882,-3.9278,-3.9305,-3.9169,-3.8844,-3.8948,-3.8999,-3.8941,-3.8766,-3.9116,-4.0139,-3.9774,-3.9452,-3.9184,-3.9255,-3.9054,-3.8592,-3.8834,-3.9072,-2.2036,-2.2724,-2.3652,-2.388,-2.3051,-2.245,0.0,0.0,0.0,0.0,0.0,0.0,0.0,0.0,0.0,0.0,0.0,0.0,0.0,0.0,0.0,0.0,0.0,0.0,0.0,0.0,0.0,0.0,0.0,0.0,0.0,-3.4838,-3.4826,-3.4525,-3.4545,-3.4603,-3.4636,-3.527,-3.5907,-3.6629,-3.623,-3.5851,-3.5602,-3.567,-3.5193,-3.4341,0.0,0.0,-3.6136,-3.6658,-3.7273,-3.79,-3.79,-3.7854,-3.7854,-3.7854,-3.7808,-3.7703,-3.7214,-3.6781,-3.6405,-3.6405,-3.6468,-3.6619,-3.7048,-3.6908,-3.6531,-3.6531,-3.6807,-3.7061,-3.7061,-3.7061,-3.7222,-3.7687,-3.7511,-3.7258,-3.7218,-3.7205,-3.7076,-3.6709,-3.6972,-3.7266,-3.7302,-3.7311,-3.7403,-3.7782,-3.7821,-3.7841,-3.7933,-3.8285,-3.8584,-3.8767,-3.9047,-3.9288,-3.9427,-3.9346,-3.9305,-3.9305,-3.9349,-3.9251,-3.8992,-3.8882,-3.911,-3.9633,-3.9591,-3.9885,-4.0561,-4.0126,-3.9956,-4.0008,-3.9758,-4.0029,-2.3766,-2.4472,-2.4501,-2.2782,-2.2817,-2.3376,0.0,0.0,0.0,0.0,0.0,0.0,0.0,0.0,0.0,0.0,0.0,0.0,0.0,0.0,0.0,0.0,0.0,0.0,0.0,0.0,0.0,0.0,0.0,0.0,0.0,-3.5545,-3.5595,-3.5096,-3.5244,-3.5462,-3.5679,-3.5801,-3.6027,-3.6345,-3.6437,-3.6483,-3.6412,-3.5687,-3.5296,-3.51,0.0,-3.5208,-3.6109,-3.6201,-3.6894,-3.79,-3.79,-3.7749,-3.7551,-3.7551,-3.7413,-3.7168,-3.6862,-3.6581,-3.6405,-3.6405,-3.6719,-3.7073,-3.7161,-3.7123,-3.7061,-3.7061,-3.6832,-3.6531,-3.6531,-3.6531,-3.6603,-3.6868,-3.7245,-3.7445,-3.7198,-3.7109,-3.693,-3.6381,-3.5993,-3.591,-3.6385,-3.6379,-3.6616,-3.7455,-3.7442,-3.7569,-3.8115,-3.8213,-3.8626,-3.9511,-3.9231,-3.9258,-4.0011,-3.959,-3.9305,-3.9305,-3.9496,-3.9675,-3.9828,-3.9331,-3.9432,-4.0246,-4.026,-4.0151,-3.9929,-4.035,-4.0223,-3.9598,-4.0026,-4.0227,-2.2918,-2.4044,-2.4836,-2.3572,-2.4213,-2.5242,0.0,0.0,0.0,0.0,0.0,0.0,0.0,0.0,0.0,0.0,0.0,0.0,0.0,0.0,0.0,0.0,0.0,0.0,0.0,0.0,0.0,0.0,0.0,0.0,0.0,0.0,-3.524,-3.5127,-3.5251,-3.5466,-3.5827,-3.5872,-3.6225,-3.6967,-3.6722,-3.6502,-3.6311,-3.5922,-3.5391,-3.4816,0.0,-3.5182,-3.5691,-3.5979,-3.6619,-3.7456,-3.7782,-3.7887,-3.79,-3.8227,-3.8293,-3.8221,-3.791,-3.7683,-3.7505,-3.7662,-3.7524,-3.7236,-3.7538,-3.7211,-3.6671,-3.6383,-3.6332,-3.6329,-3.5994,-3.5918,-3.5889,-3.5877,-3.5808,-3.5752,-3.5756,-3.575,-3.5718,-3.5537,-3.5537,-3.5799,-3.6311,-3.6363,-3.6494,-3.7019,-3.7096,-3.7268,-3.7864,-3.8078,-3.847,-3.9226,-3.9186,-3.9266,-3.9685,-3.9454,-3.9305,-3.9305,-3.9108,-3.9093,-3.9339,-3.9078,-3.9236,-3.9912,-4.0218,-4.0375,-4.028,-4.0675,-4.0675,-4.0331,-4.0879,-4.1243,-2.2138,-2.3352,-2.4611,0.0,0.0,0.0,0.0,0.0,0.0,0.0,0.0,0.0,0.0,0.0,0.0,0.0,0.0,0.0,0.0,0.0,0.0,0.0,0.0,0.0,0.0,0.0,0.0,0.0,0.0,0.0,0.0,0.0,-3.4816,-3.5098,-3.4971,-3.5137,-3.5721,-3.5766,-3.6315,-3.739,-3.6793,-3.6428,-3.6305,-3.6162,-3.5626,-3.4816,-3.5155,-3.5365,-3.5521,-3.5926,-3.6462,-3.7063,-3.7665,-3.809,-3.8464,-3.8939,-3.9184,-3.9236,-3.8981,-3.8702,-3.8423,-3.8528,-3.8026,-3.7412,-3.7575,-3.7023,-3.6292,-3.5658,-3.5755,-3.5881,-3.542,-3.5441,-3.5495,-3.518,-3.4946,-3.4773,-3.4691,-3.4727,-3.4775,-3.4791,-3.5228,-3.5709,-3.6217,-3.6254,-3.6382,-3.6734,-3.6754,-3.6887,-3.75,-3.7742,-3.8132,-3.8741,-3.8955,-3.9156,-3.9292,-3.9305,-3.9305,-3.9305,-3.8735,-3.8564,-3.8974,-3.888,-3.9081,-3.9703,-4.0148,-4.0515,-4.0702,-4.0887,-4.1114,-4.1298,-4.1592,-4.209,-2.2971,-2.3248,-2.3521,-2.5111,0.0,0.0,0.0,0.0,0.0,0.0,0.0,0.0,0.0,0.0,0.0,0.0,0.0,0.0,0.0,0.0,0.0,0.0,0.0,0.0,0.0,0.0,0.0,0.0,0.0,0.0,0.0,0.0,0.0,-3.5098,-3.4578,-3.4641,-3.543,-3.5696,-3.6215,-3.7019,-3.6405,-3.6436,-3.692,-3.6358,-3.6057,-3.5953,-3.5495,-3.5587,-3.6057,-3.6083,-3.6462,-3.7063,-3.7665,-3.8385,-3.9064,-3.9084,-3.9278,-3.9512,-3.9236,-3.88,-3.8345,-3.7863,-3.7808,-3.7764,-3.6832,-3.6468,-3.6292,-3.5658,-3.5157,-3.4826,-3.4788,-3.5335,-3.5758,-3.5225,-3.5756,-3.6166,-3.5106,-3.5072,-3.5087,-3.4525,-3.4682,-3.5059,-3.5587,-3.5565,-3.5773,-3.6657,-3.6547,-3.6554,-3.7144,-3.7268,-3.7569,-3.8366,-3.8434,-3.8708,-3.9251,-3.9305,-3.9305,-3.9305,-3.8735,-3.8768,-3.9604,-3.9113,-3.9288,-4.0329,-4.0385,-4.0515,-4.0702,-4.0887,-4.1426,-4.2196,-4.1877,-4.2159,-2.1947,-2.2807,-2.3673,-2.4408,0.0,0.0,0.0,0.0,0.0,0.0,0.0,0.0,0.0,0.0,0.0,0.0,0.0,0.0,0.0,0.0,0.0,0.0,0.0,0.0,0.0,0.0,0.0,0.0,0.0,0.0,0.0,0.0,0.0,-3.4478,-3.426,-3.45,-3.5353,-3.544,-3.5996,-3.6998,-3.7155,-3.7142,-3.6998,-3.6763,-3.6449,-3.6096,-3.5887,-3.5913,-3.6136,-3.6502,-3.6891,-3.7345,-3.8169,-3.8831,-3.9289,-3.9303,-3.9487,-3.9703,-3.9126,-3.8835,-3.8503,-3.7604,-3.7195,-3.6847,-3.6081,-3.5617,-3.5228,-3.4675,-3.4451,-3.4376,-3.4211,-3.4805,-3.5308,-3.4882,-3.5473,-3.5919,-3.5284,-3.5474,-3.5564,-3.4802,-3.5004,-3.5341,-3.5473,-3.5424,-3.5547,-3.6032,-3.6007,-3.6156,-3.6751,-3.6832,-3.7104,-3.7756,-3.7824,-3.7919,-3.8136,-3.8163,-3.8355,-3.8735,-3.8884,-3.9251,-3.9878,-3.9658,-3.9861,-4.0587,-4.0587,-4.0616,-4.0702,-4.144,-4.1924,-4.2109,-4.2019,-4.2447,-2.1242,-2.208,-2.3059,0.0,0.0,0.0,0.0,0.0,0.0,0.0,0.0,0.0,0.0,0.0,0.0,0.0,0.0,0.0,0.0,0.0,0.0,0.0,0.0,0.0,0.0,0.0,0.0,0.0,0.0,0.0,0.0,0.0,0.0,-3.4076,-3.4118,-3.4445,-3.5158,-3.5256,-3.577,-3.6724,-3.7142,-3.7116,-3.6724,-3.6964,-3.6624,-3.5848,-3.5935,-3.5891,-3.5874,-3.638,-3.695,-3.7555,-3.8372,-3.9033,-3.9533,-3.9428,-3.9555,-3.9664,-3.8999,-3.8595,-3.822,-3.7229,-3.6597,-3.6074,-3.524,-3.4718,-3.4349,-3.3796,-3.3808,-3.3964,-3.4022,-3.4667,-3.5213,-3.4725,-3.5425,-3.5968,-3.5327,-3.5674,-3.5961,-3.5455,-3.5524,-3.5706,-3.5708,-3.5602,-3.5562,-3.5669,-3.571,-3.5859,-3.6266,-3.632,-3.6551,-3.7175,-3.7243,-3.7268,-3.7472,-3.7485,-3.7662,-3.8068,-3.8548,-3.9079,-3.9706,-3.9569,-3.9827,-4.0492,-4.0731,-4.0873,-4.0915,-4.191,-4.2439,-4.2495,-4.2002,-4.2473,-2.1247,-2.1095,0.0,0.0,0.0,0.0,0.0,0.0,0.0,0.0,0.0,0.0,0.0,0.0,0.0,0.0,0.0,0.0,0.0,0.0,0.0,0.0,0.0,0.0,0.0,0.0,0.0,0.0,0.0,0.0,0.0,0.0,-3.3839,-3.4076,-3.4118,-3.4347,-3.4917,-3.5158,-3.5574,-3.6109,-3.6096,-3.6096,-3.6123,-3.6932,-3.6547,-3.5312,-3.5512,-3.5512,-3.5355,-3.5512,-3.6456,-3.7723,-3.7987,-3.8787,-3.9763,-3.9461,-3.9428,-3.9408,-3.8884,-3.8145,-3.7356,-3.6533,-3.6093,-3.5628,-3.4312,-3.3884,-3.3771,-3.3275,-3.324,-3.3525,-3.4165,-3.5064,-3.5598,-3.4825,-3.5823,-3.6596,-3.5232,-3.5544,-3.621,-3.6441,-3.6181,-3.5993,-3.6231,-3.5994,-3.571,-3.571,-3.571,-3.571,-3.571,-3.571,-3.594,-3.6537,-3.6592,-3.6836,-3.7418,-3.7472,-3.7472,-3.7485,-3.7698,-3.8169,-3.907,-3.8727,-3.8991,-4.0066,-4.0717,-4.117,-4.1381,-4.2265,-4.2969,-4.3546,-4.1879,-4.2121,-2.0181,0.0,0.0,0.0,0.0,0.0,0.0,0.0,0.0,0.0,0.0,0.0,0.0,0.0,0.0,0.0,0.0,0.0,0.0,0.0,0.0,0.0,0.0,0.0,0.0,0.0,0.0,0.0,0.0,0.0,0.0,0.0,-3.3398,-3.4288,-3.3949,-3.4223,-3.5145,-3.5256,-3.5574,-3.6096,-3.5717,-3.573,-3.6109,-3.6323,-3.6219,-3.5861,-3.6134,-3.6191,-3.6191,-3.6535,-3.6976,-3.737,-3.7585,-3.8144,-3.8776,-3.8376,-3.8229,-3.8126,-3.7436,-3.7072,-3.6671,-3.5493,-3.5188,-3.5091,-3.3908,-3.3437,-3.3325,-3.3321,-3.3484,-3.3769,-3.4529,-3.5699,-3.6564,-3.6185,-3.654,-3.6907,-3.6478,-3.6914,-3.7264,-3.6817,-3.6598,-3.6473,-3.6354,-3.5994,-3.5642,-3.5521,-3.548,-3.548,-3.548,-3.5602,-3.5791,-3.5967,-3.5981,-3.6049,-3.6198,-3.6211,-3.647,-3.7057,-3.6907,-3.7304,-3.8421,-3.8505,-3.874,-3.9266,-3.9435,-3.9657,-3.9836,-4.071,-4.1318,-4.1601,-4.0807,-4.1273,0.0,0.0,0.0,0.0,0.0,0.0,0.0,0.0,0.0,0.0,0.0,0.0,0.0,0.0,0.0,0.0,0.0,0.0,0.0,0.0,0.0,0.0,0.0,0.0,0.0,0.0,0.0,0.0,0.0,0.0,0.0,-3.2697,-3.3036,-3.4045,-3.3757,-3.4136,-3.5286,-3.4842,-3.4894,-3.5417,-3.4633,-3.4554,-3.5103,-3.526,-3.5302,-3.5244,-3.5735,-3.6011,-3.6082,-3.6362,-3.6665,-3.6951,-3.7077,-3.7485,-3.8011,-3.7906,-3.7708,-3.7394,-3.6778,-3.6387,-3.6004,-3.4805,-3.4538,-3.4548,-3.3773,-3.3441,-3.3356,-3.3471,-3.3683,-3.4075,-3.5003,-3.5791,-3.634,-3.6428,-3.7091,-3.7606,-3.725,-3.7421,-3.7595,-3.7367,-3.6834,-3.6393,-3.634,-3.583,-3.544,-3.5399,-3.548,-3.5521,-3.5521,-3.5642,-3.571,-3.571,-3.571,-3.5723,-3.5858,-3.5898,-3.6129,-3.6686,-3.6584,-3.6882,-3.7685,-3.7915,-3.8229,-3.8658,-3.8979,-3.9228,-3.943,-4.022,-4.0699,-4.0888,-4.0201,-4.0621,0.0,0.0,0.0,0.0,0.0,0.0,0.0,0.0,0.0,0.0,0.0,0.0,0.0,0.0,0.0,0.0,0.0,0.0,0.0,0.0,0.0,0.0,0.0,0.0,0.0,0.0,0.0,0.0,0.0,0.0,0.0,-3.2097,-3.2669,-3.3574,-3.3483,-3.3979,-3.5129,-3.4058,-3.3783,-3.4306,-3.3248,-3.3013,-3.3549,-3.3926,-3.4046,-3.4018,-3.4792,-3.5236,-3.544,-3.544,-3.5872,-3.6524,-3.6524,-3.6931,-3.7553,-3.7879,-3.7658,-3.7115,-3.6681,-3.6168,-3.5476,-3.4504,-3.4234,-3.4176,-3.3836,-3.3725,-3.3725,-3.3777,-3.3972,-3.4455,-3.553,-3.5731,-3.5704,-3.6096,-3.7351,-3.826,-3.7561,-3.7284,-3.7365,-3.7863,-3.6853,-3.5951,-3.6231,-3.5624,-3.5195,-3.5358,-3.5562,-3.5669,-3.5669,-3.5669,-3.571,-3.5723,-3.5764,-3.5844,-3.6086,-3.6166,-3.6246,-3.6405,-3.6603,-3.6786,-3.6978,-3.7187,-3.7586,-3.8221,-3.8959,-3.9404,-3.9603,-4.0219,-4.0628,-4.08,-3.9857,-4.0022,0.0,0.0,0.0,0.0,0.0,0.0,0.0,0.0,0.0,0.0,0.0,0.0,0.0,0.0,0.0,0.0,0.0,0.0,0.0,0.0,0.0,0.0,0.0,0.0,0.0,0.0,0.0,0.0,0.0,0.0,-3.1526,-3.1408,-3.2006,-3.3548,-3.2698,-3.2777,-3.3953,-3.3247,-3.3182,0.0,-3.3185,-3.2988,-3.3107,-3.3225,-3.3688,-3.4406,-3.5063,-3.544,-3.5642,-3.5642,-3.5751,-3.59,-3.59,-3.6523,-3.747,-3.7193,-3.7037,-3.6967,-3.6937,-3.6511,-3.5878,-3.5243,-3.5232,-3.5284,-3.4292,-3.3852,-3.3815,-3.4478,-3.4693,-3.4947,-3.5796,-3.6992,-3.7782,-3.6998,-3.6737,-3.6768,-3.7227,-3.6796,-3.6512,-3.7017,-3.6316,-3.5741,-3.6035,-3.5665,-3.5358,-3.5399,-3.5562,-3.5642,-3.5399,-3.5562,-3.5804,-3.6072,-3.6072,-3.6112,-3.6166,-3.6206,-3.6286,-3.6563,-3.6603,-3.6747,-3.6978,-3.7187,-3.7374,-3.7501,-3.7837,-3.8025,-3.8063,-3.84,-3.8611,-3.8812,-3.8739,-3.8942,0.0,0.0,0.0,0.0,0.0,0.0,0.0,0.0,0.0,0.0,0.0,0.0,0.0,0.0,0.0,0.0,0.0,0.0,0.0,0.0,0.0,0.0,0.0,0.0,0.0,0.0,0.0,0.0,0.0,-3.0763,-3.1252,-3.0992,-3.1421,-3.2712,-3.2124,-3.2228,-3.3156,-3.2581,-3.2489,-3.2856,-3.2421,-3.2298,-3.2501,-3.3061,-3.3682,-3.4293,-3.5183,-3.5602,-3.571,-3.571,-3.571,-3.571,-3.571,-3.6022,-3.6519,-3.6887,-3.6786,-3.6551,-3.7034,-3.6612,-3.5824,-3.542,-3.5214,-3.5063,-3.4764,-3.4575,-3.4542,-3.4981,-3.5297,-3.557,-3.5987,-3.6998,-3.7808,-3.7508,-3.7494,-3.7479,-3.7377,-3.6625,-3.6118,-3.6553,-3.5949,-3.5372,-3.5455,-3.5285,-3.5195,-3.5318,-3.5562,-3.5642,-3.5521,-3.5602,-3.5764,-3.5938,-3.5978,-3.6058,-3.6286,-3.647,-3.6654,-3.6772,-3.6772,-3.6929,-3.7264,-3.738,-3.738,-3.7303,-3.7586,-3.7739,-3.7739,-3.7853,-3.8043,-3.8366,-3.8538,-3.876,0.0,0.0,0.0,0.0,0.0,0.0,0.0,0.0,0.0,0.0,0.0,0.0,0.0,0.0,0.0,0.0,0.0,0.0,0.0,0.0,0.0,0.0,0.0,0.0,0.0,0.0,0.0,0.0,0.0,-3.0596,-3.0911,-3.0811,-3.1071,-3.1784,-3.1706,-3.1967,-3.2542,-3.198,-3.1847,-3.2092,-3.1717,-3.1729,-3.2152,-3.3122,-3.375,-3.4041,-3.5113,-3.5615,-3.571,-3.5669,-3.5642,-3.5642,-3.5642,-3.5575,-3.564,-3.6742,-3.6628,-3.6069,-3.7017,-3.6546,-3.5502,-3.5372,-3.4959,-3.4646,-3.5142,-3.5299,-3.5338,-3.5534,-3.5913,-3.6279,-3.6384,-3.6854,-3.7377,-3.7678,-3.8293,-3.8516,-3.7461,-3.6386,-3.5761,-3.6131,-3.5595,-3.5086,-3.4962,-3.5003,-3.5127,-3.5358,-3.5562,-3.571,-3.571,-3.571,-3.575,-3.5911,-3.5911,-3.6085,-3.647,-3.6797,-3.6978,-3.6978,-3.7017,-3.7226,-3.7534,-3.7625,-3.7586,-3.7419,-3.7815,-3.7967,-3.7891,-3.7967,-3.8156,-3.8441,-3.8686,-3.8907,0.0,0.0,0.0,0.0,0.0,0.0,0.0,0.0,0.0,0.0,0.0,0.0,0.0,0.0,0.0,0.0,0.0,0.0,0.0,0.0,0.0,0.0,0.0,0.0,0.0,0.0,0.0,0.0,0.0,-3.0698,-3.0736,-3.0874,-3.121,-3.1784,-3.1365,-3.1378,-3.1902,-3.1568,-3.1604,-3.2092,-3.2393,-3.2654,-3.2955,-3.3118,-3.3471,-3.3948,-3.4626,-3.5209,-3.5669,-3.5521,-3.544,-3.544,-3.544,-3.5626,-3.5995,-3.662,-3.6346,-3.5788,-3.6726,-3.6297,-3.5329,-3.5299,-3.5247,-3.5195,-3.5273,-3.5299,-3.5508,-3.6502,-3.6828,-3.6998,-3.7521,-3.807,-3.8253,-3.7338,-3.7361,-3.7364,-3.6748,-3.5552,-3.4695,-3.4984,-3.507,-3.5127,-3.5236,-3.544,-3.5602,-3.5642,-3.5669,-3.571,-3.571,-3.571,-3.5991,-3.6744,-3.6822,-3.6861,-3.6915,-3.6993,-3.6978,-3.6978,-3.7226,-3.7341,-3.7341,-3.7663,-3.7853,-3.7815,-3.8217,-3.8269,-3.7891,-3.8269,-3.8366,-3.824,-3.8649,-3.8819,0.0,0.0,0.0,0.0,0.0,0.0,0.0,0.0,0.0,0.0,0.0,0.0,0.0,0.0,0.0,0.0,0.0,0.0,0.0,0.0,0.0,0.0,0.0,0.0,0.0,0.0,0.0,0.0,0.0,-3.1061,-3.1061,-3.1224,-3.1442,-3.1668,-3.1027,-3.1,-3.1668,-3.1088,-3.1125,-3.1819,-3.2104,-3.2267,-3.228,-3.228,-3.2815,-3.3756,-3.4388,-3.4888,-3.5358,-3.5277,-3.5318,-3.5399,-3.5277,-3.5356,-3.5578,-3.6356,-3.5891,-3.5112,-3.6533,-3.6031,-3.4842,-3.5195,-3.5064,-3.4855,-3.5195,-3.5508,-3.5848,-3.6358,-3.6985,-3.7495,-3.7416,-3.7573,-3.7625,-3.7116,-3.6603,-3.6096,-3.589,-3.5168,-3.4701,-3.4921,-3.5236,-3.544,-3.5521,-3.5223,-3.5141,-3.5642,-3.571,-3.571,-3.571,-3.571,-3.6031,-3.69,-3.6978,-3.6978,-3.6978,-3.6978,-3.7109,-3.7303,-3.738,-3.7457,-3.7625,-3.7815,-3.7809,-3.7575,-3.808,-3.824,-3.8066,-3.8366,-3.8516,-3.8523,-3.8833,-3.9017,0.0,0.0,0.0,0.0,0.0,0.0,0.0,0.0,0.0,0.0,0.0,0.0,0.0,0.0,0.0,0.0,0.0,0.0,0.0,0.0,0.0,0.0,0.0,0.0,0.0,0.0,0.0,0.0,0.0,-3.1085,-3.1122,-3.1296,-3.1266,-3.1083,-3.0646,-3.0662,-3.1222,-3.0821,-3.0973,-3.1609,-3.178,-3.178,-3.1609,-3.1646,-3.223,-3.3257,-3.391,-3.4473,-3.4872,-3.5019,-3.5195,-3.5318,-3.5154,-3.5086,-3.5123,-3.5976,-3.5486,-3.462,-3.6227,-3.573,-3.4502,-3.5103,-3.4894,-3.4515,-3.5116,-3.5678,-3.6136,-3.6292,-3.709,-3.7769,-3.7155,-3.6998,-3.6894,-3.6449,-3.5691,-3.5064,-3.5162,-3.4989,-3.488,-3.5127,-3.5399,-3.5642,-3.5669,-3.5141,-3.4936,-3.5588,-3.571,-3.571,-3.571,-3.5871,-3.627,-3.694,-3.6978,-3.6978,-3.6978,-3.6978,-3.7148,-3.7534,-3.7495,-3.7586,-3.7891,-3.7967,-3.7826,-3.7549,-3.797,-3.813,-3.797,-3.8331,-3.859,-3.8723,-3.8943,-3.9141,0.0,0.0,0.0,0.0,0.0,0.0,0.0,0.0,0.0,0.0,0.0,0.0,0.0,0.0,0.0,0.0,0.0,0.0,0.0,0.0,0.0,0.0,0.0,0.0,0.0,0.0,0.0,0.0,0.0,-3.0527,-3.073,-3.0743,-3.0383,-2.9627,-3.0102,-3.0319,-3.0176,-3.0895,-3.1371,-3.1609,-3.178,-3.178,-3.1609,-3.178,-3.2003,-3.2209,-3.3023,-3.3687,-3.43,-3.4846,-3.5127,-3.5127,-3.5086,-3.4962,-3.4876,-3.5442,-3.5102,-3.4567,-3.5744,-3.5378,-3.4502,-3.5103,-3.4894,-3.4515,-3.5116,-3.5678,-3.6227,-3.6789,-3.7416,-3.7769,-3.7155,-3.6998,-3.6593,-3.4933,-3.4489,-3.4533,-3.4767,-3.4824,-3.488,-3.5236,-3.5318,-3.5399,-3.5669,-3.5669,-3.5642,-3.5669,-3.571,-3.571,-3.571,-3.6429,-3.694,-3.6978,-3.6978,-3.6978,-3.6978,-3.6978,-3.7109,-3.738,-3.7495,-3.7701,-3.7891,-3.8066,-3.8188,-3.8159,-3.8188,-3.7926,-3.736,-3.8127,-3.8516,-3.8516,-3.8723,-3.8907,0.0,0.0,0.0,0.0,0.0,0.0,0.0,0.0,0.0,0.0,0.0,0.0,0.0,0.0,0.0,0.0,0.0,0.0,0.0,0.0,0.0,0.0,0.0,0.0,0.0,0.0,0.0,0.0,0.0,-3.0998,-3.1432,-3.124,-3.0895,-3.049,-3.021,-2.9989,-2.9789,-3.0536,-3.1086,-3.1397,-3.1471,-3.1397,-3.1224,-3.1286,-3.1367,-3.1427,-3.2042,-3.2883,-3.3844,-3.4054,-3.4508,-3.5046,-3.451,-3.459,-3.5029,-3.5458,-3.5076,-3.4515,-3.5312,-3.5064,-3.4437,-3.4646,-3.458,-3.4437,-3.4659,-3.5129,-3.5704,-3.6266,-3.6682,-3.7024,-3.7182,-3.6467,-3.5445,-3.4344,-3.4079,-3.4266,-3.4883,-3.5044,-3.5127,-3.5154,-3.5399,-3.5602,-3.5669,-3.571,-3.571,-3.571,-3.571,-3.5911,-3.6468,-3.6822,-3.6978,-3.6978,-3.6978,-3.6537,-3.5411,-3.5829,-3.6465,-3.7123,-3.6641,-3.6902,-3.806,-3.7396,-3.7186,-3.7622,-3.7622,-3.7709,-3.7883,-3.8302,-3.859,-3.8686,-3.8907,-3.9104,0.0,0.0,0.0,0.0,0.0,0.0,0.0,0.0,0.0,0.0,0.0,0.0,0.0,0.0,0.0,0.0,0.0,0.0,0.0,0.0,0.0,0.0,0.0,0.0,0.0,0.0,0.0,0.0,0.0,0.0,-3.1285,-3.1064,-3.0705,-3.0244,-2.9683,-2.9451,-2.9487,-2.9998,-3.0451,-3.0921,-3.0982,-3.1014,-3.0986,-3.1061,-3.1099,-3.1125,-3.1588,-3.2359,-3.3313,-3.359,-3.42,-3.4964,-3.4415,-3.4376,-3.4737,-3.507,-3.4787,-3.431,-3.5067,-3.4819,-3.4271,-3.4609,-3.4437,-3.4162,-3.4345,-3.4816,-3.5365,-3.573,-3.6109,-3.6384,-3.6441,-3.529,-3.4033,-3.3754,-3.3714,-3.3913,-3.4619,-3.5021,-3.5236,-3.5277,-3.5521,-3.571,-3.571,-3.571,-3.571,-3.571,-3.5951,-3.635,-3.694,-3.6978,-3.6978,-3.6978,-3.6978,-3.6585,-3.5553,-3.5712,-3.6147,-3.6961,-3.6258,-3.6418,-3.7839,-3.7099,-3.6954,-3.7593,-3.7607,-3.7847,-3.8277,-3.8441,-3.8612,-3.8782,-3.9017,-3.9228,0.0,0.0,0.0,0.0,0.0,0.0,0.0,0.0,0.0,0.0,0.0,0.0,0.0,0.0,0.0,0.0,0.0,0.0,0.0,0.0,0.0,0.0,0.0,0.0,0.0,0.0,0.0,0.0,-3.0976,-3.072,-3.0169,-3.0115,-2.9661,-2.8747,-2.8476,-2.8669,-2.9284,-2.931,-2.9575,-3.01,-3.0332,-3.0621,-3.1024,-3.1198,-3.131,-3.1299,-3.1638,-3.215,-3.2777,-3.3554,-3.4228,-3.4797,-3.4784,-3.4441,-3.3924,-3.4258,-3.4196,-3.4016,-3.4939,-3.464,-3.4056,-3.4992,-3.4515,-3.3692,-3.4241,-3.4803,-3.5273,-3.5299,-3.5665,-3.5839,-3.4923,-3.3542,-3.2568,-3.3127,-3.3287,-3.346,-3.4073,-3.4659,-3.5236,-3.5602,-3.5669,-3.571,-3.571,-3.571,-3.571,-3.571,-3.6429,-3.6978,-3.6978,-3.6978,-3.6978,-3.6978,-3.7017,-3.7173,-3.7544,-3.6689,-3.6393,-3.6979,-3.6374,-3.6425,-3.7302,-3.7273,-3.7549,-3.8159,-3.8159,-3.8271,-3.8486,-3.8516,-3.8627,-3.8819,-3.9017,-3.9228,-1.5111,0.0,0.0,0.0,0.0,0.0,0.0,0.0,0.0,0.0,0.0,0.0,0.0,0.0,0.0,0.0,0.0,0.0,0.0,0.0,0.0,0.0,0.0,0.0,0.0,0.0,0.0,0.0,-3.0882,-3.0882,-3.1162,-3.0255,-2.9419,-2.8713,-2.8095,-2.8046,-2.8656,-2.91,-2.9575,-3.01,-3.0592,-3.0904,-3.1024,-3.1198,-3.131,-3.1323,-3.1406,-3.2001,-3.2922,-3.2988,-3.3724,-3.4771,-3.4307,-3.4043,-3.3925,-3.3989,-3.3881,-3.3721,-3.3994,-3.4012,-3.3976,-3.4494,-3.4286,-3.3882,-3.4269,-3.4515,-3.4779,-3.5339,-3.5344,-3.4967,-3.4126,-3.3411,-3.2904,-3.285,-3.3187,-3.3642,-3.4058,-3.4727,-3.5277,-3.5399,-3.5562,-3.571,-3.571,-3.571,-3.571,-3.571,-3.6429,-3.6978,-3.6978,-3.6978,-3.6978,-3.6978,-3.7264,-3.7253,-3.6851,-3.6788,-3.6899,-3.7192,-3.6606,-3.6722,-3.7912,-3.6635,-3.6431,-3.7535,-3.723,-3.7288,-3.7865,-3.8296,-3.8664,-3.9017,-3.9228,-3.9409,0.0,0.0,0.0,0.0,0.0,0.0,0.0,-1.8748,0.0,0.0,0.0,0.0,0.0,0.0,0.0,0.0,0.0,0.0,0.0,0.0,0.0,0.0,0.0,0.0,0.0,0.0,0.0,-3.0186,-3.0303,-3.0477,-3.0741,-2.9962,-2.9223,-2.8584,-2.8127,-2.7928,-2.802,-2.8608,-2.9196,-2.9784,-3.0359,-3.0764,-3.1024,-3.1198,-3.131,-3.131,-3.131,-3.1787,-3.2619,-3.2673,-3.3315,-3.4277,-3.4171,-3.3645,-3.3067,-3.3606,-3.3448,-3.3027,-3.3183,-3.3369,-3.3581,-3.3957,-3.393,-3.3882,-3.4406,-3.4577,-3.4684,-3.5249,-3.4869,-3.4193,-3.3709,-3.336,-3.3118,-3.316,-3.358,-3.4119,-3.4632,-3.5157,-3.548,-3.548,-3.5602,-3.571,-3.571,-3.571,-3.5831,-3.6191,-3.6665,-3.6978,-3.6978,-3.6978,-3.6701,-3.6006,-3.6883,-3.732,-3.6771,-3.6901,-3.7082,-3.7302,-3.6678,-3.6765,-3.7781,-3.6765,-3.6685,-3.7776,-3.7536,-3.7652,-3.8179,-3.8561,-3.8958,-3.9358,-3.9481,-3.9625,0.0,0.0,0.0,0.0,0.0,0.0,-1.9228,-1.8988,-1.8947,0.0,0.0,0.0,0.0,0.0,0.0,0.0,0.0,0.0,0.0,0.0,0.0,0.0,0.0,0.0,0.0,-2.9316,-2.956,-2.9013,-2.9445,-2.9688,-2.9579,-2.9263,-2.893,-2.849,-2.8381,-2.8072,-2.7594,-2.8124,-2.8686,-2.9323,-2.9826,-3.0361,-3.0932,-3.1106,-3.1217,-3.1217,-3.1217,-3.1536,-3.2144,-3.2529,-3.3051,-3.3639,-3.4123,-3.3339,-3.2058,-3.3065,-3.2909,-3.2236,-3.2542,-3.283,-3.3093,-3.3512,-3.3628,-3.3814,-3.4584,-3.4797,-3.488,-3.5044,-3.4446,-3.3732,-3.3626,-3.3414,-3.3268,-3.3623,-3.4111,-3.4639,-3.5208,-3.5533,-3.571,-3.5831,-3.575,-3.571,-3.571,-3.579,-3.6111,-3.6861,-3.6978,-3.6978,-3.6978,-3.6817,-3.6179,-3.4831,-3.6227,-3.7243,-3.7113,-3.7104,-3.722,-3.7404,-3.6852,-3.678,-3.7426,-3.7383,-3.7674,-3.8399,-3.8421,-3.8598,-3.9031,-3.9104,-3.9322,-3.9661,-3.9732,-3.9839,0.0,0.0,0.0,0.0,0.0,0.0,-1.9597,-1.9274,-1.9363,0.0,0.0,0.0,0.0,0.0,0.0,0.0,0.0,0.0,0.0,0.0,0.0,0.0,0.0,0.0,0.0,-2.8643,-2.8917,-2.8932,-2.8783,-2.8904,-2.9319,-2.8386,-2.8242,-2.9114,-2.819,-2.7863,-2.8203,-2.8355,-2.8686,-2.9323,-2.9826,-3.0153,-3.0257,-3.0477,-3.0586,-3.0586,-3.0586,-3.1167,-3.2144,-3.2529,-3.3051,-3.36,-3.3705,-3.3368,-3.2725,-3.2488,-3.2366,-3.2372,-3.2454,-3.2812,-3.3316,-3.3713,-3.3939,-3.4165,-3.4667,-3.4921,-3.5044,-3.5086,-3.4848,-3.4439,-3.3772,-3.3673,-3.3528,-3.2725,-3.3552,-3.4192,-3.3118,-3.4367,-3.5911,-3.6626,-3.6191,-3.571,-3.571,-3.627,-3.6783,-3.6978,-3.6978,-3.6978,-3.6978,-3.5766,-3.5311,-3.6373,-3.6521,-3.6808,-3.7575,-3.7826,-3.7991,-3.8028,-3.7897,-3.7972,-3.8251,-3.7806,-3.771,-3.8024,-3.7904,-3.8335,-3.9301,-3.9337,-3.9373,-3.9445,-3.991,-4.0121,0.0,0.0,0.0,-2.2115,0.0,0.0,0.0,-2.0401,-1.9799,0.0,0.0,0.0,0.0,0.0,0.0,0.0,0.0,0.0,0.0,0.0,0.0,0.0,0.0,0.0,0.0,-2.7472,-2.7868,-2.8325,-2.8524,-2.8736,-2.9004,-2.8763,-2.8833,-2.9297,-2.8782,-2.8612,-2.8865,-2.9104,-2.9297,-2.9429,-2.9862,-3.0137,-3.0233,-3.0075,-3.0102,-3.022,-3.0075,-3.0408,-3.1138,-3.1753,-3.2344,-3.2962,-3.3828,-3.3436,-3.2336,-3.2614,-3.2387,-3.2062,-3.2355,-3.2834,-3.3381,-3.39,-3.4339,-3.4699,-3.4992,-3.5236,-3.5345,-3.505,-3.4873,-3.4653,-3.3954,-3.4061,-3.4192,-3.3647,-3.3993,-3.4421,-3.4025,-3.4882,-3.5831,-3.627,-3.635,-3.635,-3.635,-3.6705,-3.6978,-3.6978,-3.6978,-3.6978,-3.6978,-3.6399,-3.592,-3.5725,-3.6554,-3.7176,-3.737,-3.7895,-3.824,-3.8329,-3.8366,-3.8441,-3.8649,-3.8341,-3.8289,-3.8449,-3.851,-3.8817,-3.9388,-3.9388,-3.9388,-3.9409,-3.9945,-4.0261,0.0,0.0,0.0,0.0,0.0,-2.3631,0.0,0.0,0.0,0.0,0.0,0.0,0.0,0.0,0.0,0.0,0.0,0.0,0.0,0.0,0.0,0.0,0.0,0.0,0.0,-2.603,-2.6484,-2.7432,-2.7616,-2.7934,-2.8543,-2.891,-2.9151,-2.9332,-2.9368,-2.9368,-2.9345,-2.9699,-2.9771,-2.9557,-2.9735,-2.9905,-3.0072,-2.9583,-2.953,-2.9771,-2.9478,-2.9675,-3.0213,-3.0998,-3.1587,-3.2206,-3.3741,-3.3383,-3.2059,-3.2753,-3.2537,-3.1947,-3.2466,-3.2949,-3.3446,-3.4046,-3.4687,-3.5195,-3.5399,-3.548,-3.5465,-3.5152,-3.4841,-3.4517,-3.4106,-3.4432,-3.4867,-3.4826,-3.4788,-3.4892,-3.5546,-3.571,-3.571,-3.571,-3.6389,-3.6978,-3.6978,-3.6978,-3.6978,-3.6978,-3.6978,-3.681,-3.6332,-3.6708,-3.6517,-3.5265,-3.6382,-3.7249,-3.7244,-3.7825,-3.8277,-3.8478,-3.8553,-3.8664,-3.8819,-3.8907,-3.898,-3.9068,-3.9301,-3.9388,-3.9388,-3.9388,-3.9445,-3.9625,-4.0051,-4.0316,0.0,0.0,0.0,0.0,-2.6246,0.0,0.0,0.0,-2.2484,-2.0425,0.0,0.0,0.0,0.0,0.0,0.0,0.0,0.0,0.0,0.0,0.0,0.0,0.0,0.0,0.0,0.0,-2.464,-2.6338,-2.4456,-2.4638,-2.7907,-2.7099,-2.7439,-2.9421,-2.918,-2.9236,-2.9544,-2.9268,-2.935,-2.9754,-2.913,-2.8884,-2.8884,-2.8654,-2.8551,-2.8569,-2.8538,-2.9245,-3.0418,-3.1035,-3.1548,-3.1978,-3.2499,-3.2978,-3.3265,-3.2377,-3.2445,-3.2932,-3.3,-3.3268,-3.3668,-3.4258,-3.4875,-3.5399,-3.5602,-3.5303,-3.5031,-3.576,-3.5,-3.4027,-3.4227,-3.4717,-3.5128,-3.5,-3.5295,-3.5587,-3.5683,-3.571,-3.571,-3.571,-3.6389,-3.6978,-3.6978,-3.6978,-3.6978,-3.6978,-3.6978,-3.6206,-3.3978,-3.4331,-3.5534,-3.7564,-3.5975,-3.5685,-3.7883,-3.8144,-3.8277,-3.8478,-3.8775,-3.8943,-3.898,-3.9228,-3.9337,-3.9337,-3.9388,-3.9388,-3.9388,-3.9388,-3.9732,-4.0385,-4.042,-4.0489,0.0,0.0,0.0,0.0,0.0,0.0,-2.4118,0.0,-2.2803,0.0,0.0,0.0,0.0,0.0,0.0,0.0,0.0,0.0,0.0,0.0,0.0,0.0,0.0,0.0,0.0,0.0,0.0,0.0,-2.4141,-2.4503,-2.6988,-2.7064,-2.7696,-2.9106,-2.9023,-2.9135,-2.9544,-2.9614,-2.9636,-2.9627,-2.9543,-2.9377,-2.914,-2.8646,-2.8454,-2.8544,-2.8202,-2.8565,-2.9425,-2.9804,-3.0215,-3.0623,-3.1342,-3.2078,-3.2752,-3.2641,-3.281,-3.3101,-3.3101,-3.3637,-3.4414,-3.4994,-3.5359,-3.5602,-3.5669,-3.5263,-3.4814,-3.4811,-3.4378,-3.3865,-3.3676,-3.429,-3.4985,-3.5098,-3.5684,-3.6138,-3.5804,-3.5924,-3.6178,-3.6389,-3.6744,-3.6529,-3.5096,-3.6037,-3.6501,-3.5068,-3.4857,-3.4492,-3.3417,-3.4601,-3.5633,-3.5967,-3.6359,-3.7041,-3.8115,-3.8202,-3.8352,-3.8649,-3.9031,-3.9228,-3.9228,-3.9337,-3.9388,-3.9388,-3.9388,-3.9388,-3.9388,-3.9388,-3.9732,-4.0331,-4.0331,-4.0401,-2.3364,0.0,0.0,0.0,0.0,0.0,0.0,0.0,0.0,0.0,0.0,0.0,0.0,0.0,0.0,0.0,0.0,0.0,0.0,0.0,0.0,0.0,0.0,0.0,0.0,0.0,0.0,-2.3683,-2.3004,-2.3555,-2.5904,-2.6756,-2.757,-2.8459,-2.8839,-2.9158,-2.9341,-2.9693,-2.9772,-2.9579,-2.9679,-2.963,-2.9473,-2.8956,-2.8715,-2.866,-2.8291,-2.8378,-2.8788,-2.8958,-2.9363,-2.9989,-3.0811,-3.1573,-3.2214,-3.2847,-3.3196,-3.3308,-3.3308,-3.3973,-3.4856,-3.529,-3.5425,-3.5425,-3.5425,-3.4936,-3.4362,-3.4142,-3.399,-3.3786,-3.3639,-3.4323,-3.5102,-3.5324,-3.5988,-3.6549,-3.623,-3.6338,-3.6549,-3.6915,-3.6978,-3.6206,-3.3747,-3.4801,-3.5377,-3.3557,-3.4066,-3.4633,-3.4633,-3.5295,-3.5706,-3.5473,-3.7099,-3.8202,-3.8202,-3.8389,-3.8649,-3.8943,-3.9228,-3.9388,-3.9388,-3.9388,-3.9388,-3.9388,-3.9388,-3.9209,-3.8871,-3.9026,-3.9234,-3.9459,-3.9703,-3.996,0.0,0.0,0.0,-2.2634,0.0,0.0,0.0,0.0,-2.2951,0.0,0.0,0.0,0.0,0.0,-2.0124,-2.0084,0.0,0.0,0.0,0.0,0.0,0.0,0.0,0.0,0.0,0.0,0.0,-2.1598,-1.9794,-2.0414,-2.4617,-2.5426,-2.6287,-2.7395,-2.876,-2.9329,-2.9019,-2.9167,-2.9415,-2.9776,-2.9072,-2.8995,-2.9487,-2.9531,-2.9249,-2.872,-2.8898,-2.8965,-2.8979,-2.8979,-2.9659,-3.0716,-3.1343,-3.173,-3.2008,-3.281,-3.343,-3.388,-3.388,-3.4287,-3.4788,-3.4816,-3.4816,-3.4816,-3.4816,-3.4142,-3.3536,-3.4355,-3.4154,-3.3882,-3.4636,-3.5286,-3.576,-3.5798,-3.6248,-3.6825,-3.7264,-3.6929,-3.6668,-3.6954,-3.6978,-3.6206,-3.3747,-3.3382,-3.3375,-3.329,-3.5998,-3.8049,-3.8049,-3.5932,-3.5401,-3.7825,-3.8159,-3.8202,-3.8202,-3.8922,-3.9388,-3.9388,-3.9388,-3.9388,-3.9388,-3.9388,-3.9388,-3.9388,-3.9388,-3.8745,-3.7479,-3.814,-3.8152,-3.7628,-3.8449,-3.9069,0.0,0.0,-2.423,-2.2686,0.0,0.0,0.0,0.0,0.0,0.0,0.0,0.0,0.0,0.0,0.0,-1.9798,0.0,0.0,0.0,0.0,0.0,0.0,0.0,0.0,0.0,0.0,0.0,-1.9984,-1.9199,-1.9989,-2.2986,-2.4095,-2.5177,-2.6367,-2.7427,-2.8117,-2.8405,-2.8577,-2.8929,-2.9487,-2.9577,-2.9797,-3.0075,-2.9693,-2.9578,-2.9608,-2.9152,-2.9171,-2.9531,-2.9393,-2.9254,-2.9311,-3.0538,-3.1309,-3.1837,-3.3017,-3.3412,-3.3417,-3.3772,-3.3786,-3.3729,-3.4084,-3.4463,-3.4721,-3.4328,-3.4074,-3.3882,-3.3779,-3.3721,-3.3675,-3.3489,-3.4538,-3.5436,-3.4715,-3.5342,-3.6297,-3.6986,-3.6785,-3.6553,-3.6947,-3.7148,-3.711,-3.663,-3.5131,-3.404,-3.404,-3.6396,-3.8202,-3.8202,-3.7462,-3.6606,-3.5778,-3.7201,-3.8441,-3.8958,-3.9228,-3.9388,-3.9388,-3.9388,-3.9388,-3.9388,-3.9388,-3.897,-3.8108,-3.8392,-3.8048,-3.7015,-3.7488,-3.7767,-3.7846,-3.7661,-3.804,-2.4407,-2.4557,0.0,-2.2983,-2.2741,0.0,-2.1629,0.0,-2.2196,0.0,0.0,0.0,0.0,0.0,0.0,0.0,-1.8965,0.0,0.0,-1.3731,0.0,0.0,0.0,0.0,0.0,0.0,-1.7235,-1.8777,-1.8175,-1.8854,0.0,0.0,-2.4204,-2.5236,-2.6576,-2.7437,-2.7773,-2.8066,-2.8441,-2.8996,-2.9327,-2.9581,-2.9746,-2.9799,-2.9777,-2.969,-2.9592,-2.9595,-2.9671,-2.9368,-2.9149,-2.9206,-3.0219,-3.105,-3.1864,-3.3208,-3.3563,-3.3376,-3.3335,-3.32,-3.3156,-3.3574,-3.4104,-3.4524,-3.3873,-3.3847,-3.3875,-3.328,-3.3413,-3.3692,-3.3326,-3.4307,-3.5231,-3.4584,-3.5055,-3.5901,-3.6811,-3.6689,-3.659,-3.719,-3.7341,-3.7534,-3.7991,-3.678,-3.5764,-3.5764,-3.6765,-3.7694,-3.8144,-3.8202,-3.7615,-3.6008,-3.6859,-3.8018,-3.9307,-3.894,-3.8745,-3.8945,-3.896,-3.896,-3.896,-3.896,-3.8542,-3.7674,-3.8018,-3.7858,-3.7132,-3.7128,-3.7225,-3.7329,-3.6936,-3.7096]}]]